GFSSW_850_thetae_000.txt.gz
Theta_e
304 304 303 304 304 306 312 317 319 317 320 320 320 319 319 319 318 318 317 317 315 313 321 320 325 327 329 328 326 323 326 327 326 326 325 321 324 326 324 324 323 323 323 323 322
305 304 304 305 305 304 304 306 308 309 311 313 317 319 319 318 317 317 317 317 317 314 323 324 326 329 329 328 327 326 328 326 325 325 325 324 325 326 326 325 325 323 323 322 321
307 307 304 305 304 304 306 305 307 310 308 309 312 317 317 316 317 317 316 316 316 316 315 320 328 329 328 327 327 326 328 326 325 324 323 325 326 326 326 328 325 324 323 323 322
307 307 306 304 305 306 306 306 307 310 312 310 310 312 314 315 317 317 316 314 315 317 320 317 325 329 329 329 326 327 326 325 325 325 326 326 326 327 327 327 326 326 325 321 322
307 307 306 306 308 306 306 307 307 309 311 311 309 311 313 315 315 315 316 315 313 318 320 317 324 326 330 329 327 327 326 326 325 326 325 326 327 328 327 326 327 326 323 321 321
307 307 309 310 310 310 307 307 308 308 308 309 309 310 312 314 313 312 314 314 314 317 320 317 323 325 325 328 328 326 326 326 326 326 326 327 327 325 326 326 324 323 322 321 321
306 307 308 310 311 311 310 308 306 307 307 309 310 309 312 311 310 309 310 311 312 314 318 318 319 326 325 329 328 327 328 328 327 327 327 326 327 327 325 320 319 320 319 319 319
304 310 308 309 311 311 311 311 309 307 307 309 310 310 310 310 310 311 310 311 312 312 315 318 319 322 327 327 328 330 329 331 327 327 327 324 328 326 320 321 320 319 320 320 319
304 307 307 309 309 308 310 312 311 308 309 309 309 310 310 309 309 309 310 311 313 312 313 317 319 323 326 328 330 331 332 330 328 327 327 325 327 323 320 320 321 321 320 320 320
303 305 310 310 309 310 311 311 313 310 310 309 308 309 309 310 310 310 309 310 312 315 316 317 318 324 327 328 334 331 330 329 329 326 323 324 326 324 322 320 321 320 320 320 319
303 305 308 308 309 309 311 310 311 310 310 309 309 309 310 309 310 310 310 310 312 315 317 317 320 323 327 327 327 326 328 329 327 324 323 326 327 323 324 321 321 320 320 320 319
303 304 308 308 309 307 311 312 310 310 310 309 308 308 310 310 311 310 311 311 312 315 316 317 320 322 325 326 327 327 327 327 326 322 323 326 328 327 325 321 320 320 320 319 318
303 304 306 309 308 308 311 312 312 310 308 309 308 309 309 309 311 311 311 310 312 313 316 318 319 322 326 327 328 327 327 326 327 324 323 323 328 326 318 316 315 318 319 319 318
304 304 308 309 308 311 312 312 312 310 308 309 310 308 309 310 310 310 311 310 313 314 315 315 318 324 326 327 327 328 326 326 327 329 332 323 331 326 324 319 317 318 318 318 317
306 304 308 307 312 311 311 312 309 308 315 310 309 308 309 309 310 311 312 310 313 315 313 315 321 320 326 326 326 327 325 327 327 328 328 328 327 327 319 319 318 319 318 318 317
312 306 305 307 309 311 311 308 307 310 313 312 310 310 311 310 310 312 312 310 313 314 313 315 320 320 326 324 325 323 324 324 323 325 331 328 326 327 323 321 319 319 318 318 317
314 312 307 307 310 311 311 307 311 314 310 313 312 311 310 310 310 312 313 312 314 318 317 313 313 324 325 326 320 325 327 332 333 331 331 320 322 325 322 318 319 319 318 318 317
314 313 310 308 309 311 309 309 316 313 313 311 311 311 311 311 311 312 312 312 312 317 315 318 326 324 325 325 324 325 328 329 331 331 328 318 325 323 318 317 316 318 319 318 317
314 313 311 310 310 310 308 312 315 315 311 312 312 313 312 311 311 313 312 311 314 313 317 319 321 321 325 322 323 324 327 323 323 321 325 325 324 323 318 318 316 317 318 318 317
313 310 310 311 310 309 307 314 313 313 310 312 311 312 312 311 314 314 312 311 313 315 317 317 322 321 319 322 318 325 324 326 324 329 328 326 325 325 322 320 317 317 317 318 317
314 310 312 312 311 308 312 313 315 314 312 311 311 311 312 312 314 314 312 314 313 316 317 319 321 317 321 323 324 324 326 326 324 323 327 327 326 321 321 319 319 317 317 318 316
311 314 314 311 312 311 312 313 314 317 313 311 312 312 311 312 313 314 313 317 312 318 319 319 320 323 321 315 320 323 324 324 327 324 321 323 324 318 317 316 315 317 317 317 316
311 314 314 312 315 314 314 314 313 317 315 313 315 315 313 313 315 315 316 313 315 318 321 318 321 324 322 319 315 321 321 325 322 319 323 326 324 316 317 318 316 316 316 316 315
311 317 314 313 314 316 316 316 319 317 316 318 318 317 315 314 314 316 317 319 319 317 318 316 321 321 324 323 322 323 320 322 324 325 324 322 323 319 317 318 316 316 316 315 315
309 316 315 315 314 315 316 317 318 321 319 320 319 318 316 317 319 319 319 320 319 320 320 319 321 321 319 320 320 321 321 319 321 323 323 324 322 321 320 319 318 316 315 315 314
311 312 312 316 315 317 316 318 317 320 318 318 321 318 318 319 319 321 321 321 322 320 321 319 321 317 318 317 319 320 320 321 321 322 321 321 321 318 315 315 314 315 314 314 313
312 309 310 314 313 318 317 319 317 316 316 317 319 318 319 319 318 319 320 320 320 321 321 320 319 320 321 315 316 321 319 319 319 319 319 321 321 316 315 315 315 315 314 314 313

GFSSW_850_thetae_003.txt.gz
Theta_e
304 305 305 304 303 303 305 314 319 321 322 321 321 322 321 320 320 319 320 320 319 316 315 321 323 327 328 328 328 326 328 328 327 328 327 325 326 326 326 326 325 325 325 326 324
305 306 307 305 305 304 303 304 308 315 318 317 319 320 320 320 319 320 319 318 318 317 318 320 323 324 329 328 328 327 327 327 326 326 327 325 325 327 327 326 327 327 325 324 324
306 307 308 305 305 304 304 305 304 305 306 308 309 314 318 320 319 319 318 316 316 316 318 320 322 326 327 328 327 328 328 327 326 326 325 325 326 326 328 328 327 327 326 325 325
306 307 307 305 305 306 306 306 306 306 310 312 311 311 314 318 318 318 315 315 315 317 321 320 319 326 329 329 327 328 326 326 326 326 326 326 326 327 327 328 327 327 327 327 325
304 308 307 306 307 308 306 307 308 307 308 312 312 311 313 316 316 316 316 315 317 320 321 321 318 321 329 328 327 328 327 326 326 326 326 326 326 327 327 327 327 327 327 326 325
303 307 308 309 310 311 310 307 308 309 308 310 310 310 314 315 314 315 316 316 315 319 321 321 319 319 324 327 328 328 327 326 326 326 326 327 327 326 327 328 327 325 322 323 324
302 304 308 308 311 312 311 311 308 307 309 308 311 311 313 313 312 313 313 313 313 315 318 320 320 321 323 327 326 328 328 328 327 326 327 327 328 328 327 327 321 320 321 321 322
306 303 310 310 310 311 312 312 310 308 307 308 310 312 313 312 312 312 312 312 312 313 314 317 320 319 322 325 327 328 330 331 327 327 327 328 330 327 326 322 322 322 322 323 322
311 304 304 310 309 310 308 309 312 310 308 308 310 312 312 311 311 311 312 312 312 314 314 315 319 319 321 326 329 330 333 331 330 328 328 329 328 326 325 322 322 322 323 323 323
312 307 303 308 309 309 309 312 311 312 308 310 311 312 311 311 311 311 311 311 311 312 315 315 317 321 322 326 331 332 332 330 332 328 328 328 328 326 324 324 323 323 323 323 322
310 308 304 307 310 310 309 310 310 311 310 311 311 311 311 311 311 311 311 311 311 312 316 316 319 321 321 322 327 328 331 330 330 328 329 328 327 326 325 325 325 323 323 323 321
309 304 304 307 308 309 309 309 311 311 312 310 311 310 310 311 311 311 311 311 311 314 313 316 319 318 319 321 327 329 330 330 328 326 326 326 327 327 327 327 326 323 323 322 320
306 304 304 307 308 309 310 308 311 311 310 308 310 310 310 310 310 312 311 311 312 313 313 316 317 317 318 320 327 328 330 330 329 327 325 326 329 328 328 325 322 322 322 322 320
308 305 304 307 309 309 310 310 310 311 308 311 310 310 309 309 311 310 311 311 311 313 313 314 314 318 319 322 323 330 327 326 327 329 330 327 329 327 326 321 320 321 322 321 319
311 306 304 307 310 311 311 311 311 310 316 312 311 309 310 309 310 310 310 311 312 312 313 314 316 318 320 320 322 329 328 327 328 330 331 330 331 328 327 324 322 321 321 320 319
312 310 305 307 308 310 310 310 308 310 316 312 310 310 310 310 310 311 310 311 311 311 313 313 315 318 320 321 322 326 328 328 328 328 330 328 329 328 327 325 323 321 321 320 319
315 311 310 308 310 310 309 307 311 315 311 313 312 311 311 311 311 312 312 312 313 315 318 314 312 313 318 320 322 327 329 332 330 331 329 327 329 328 322 321 322 321 320 319 319
314 313 312 310 309 311 308 308 315 314 312 311 311 311 313 311 311 311 312 313 312 312 316 316 317 315 315 322 324 327 329 328 329 329 328 323 327 326 322 321 321 321 320 319 319
314 313 311 311 309 309 308 312 315 315 313 313 312 313 314 311 309 309 312 315 311 312 319 317 318 318 319 324 323 324 331 325 327 326 329 327 326 323 322 320 320 321 320 320 319
314 313 312 311 310 310 309 313 315 314 311 312 314 312 313 313 311 312 313 313 311 311 311 316 320 319 324 324 321 326 326 328 327 329 329 328 327 327 323 322 320 320 321 320 319
314 311 312 311 310 310 310 312 314 314 312 313 313 312 312 311 311 312 313 312 311 312 312 317 317 318 324 326 325 326 329 328 326 327 329 330 327 324 322 321 321 320 320 320 320
312 313 313 311 312 310 312 311 313 314 314 315 311 312 312 311 312 314 313 312 310 312 316 318 319 323 321 319 323 326 327 327 329 327 325 325 326 322 321 320 320 320 320 320 319
312 313 313 311 315 313 311 312 312 314 316 314 313 312 312 313 313 314 313 312 313 313 320 320 322 327 325 322 322 325 325 326 326 324 327 325 326 321 321 321 319 319 319 320 319
312 315 313 312 313 315 314 314 315 314 316 314 314 314 314 314 313 314 315 313 315 314 318 318 321 324 325 324 324 326 325 324 325 326 325 325 324 320 320 321 320 318 319 319 318
311 315 315 315 314 314 315 315 315 318 317 314 318 317 316 314 315 317 314 316 314 317 317 320 323 322 322 322 323 324 325 324 326 326 326 324 324 323 322 321 320 319 318 319 318
311 312 315 316 314 315 315 315 316 315 319 319 321 318 317 317 314 316 316 317 319 318 319 319 323 321 322 321 322 323 323 324 324 325 325 324 325 322 320 319 319 319 318 318 317
313 311 312 315 318 316 318 316 316 315 317 318 320 320 319 318 317 318 317 318 320 320 322 321 322 322 323 321 321 323 322 322 323 322 323 325 324 323 318 318 318 318 317 317 316

GFSSW_850_thetae_006.txt.gz
Theta_e
304 304 306 306 305 304 303 305 313 319 322 324 323 323 323 322 322 321 320 320 321 320 318 315 321 324 327 329 329 328 329 329 328 327 327 326 325 325 326 326 326 326 325 326 325
304 306 307 308 306 305 305 304 304 310 316 319 321 321 321 322 321 320 321 320 320 319 317 319 320 322 324 329 328 328 329 328 325 325 325 326 325 325 326 327 326 326 327 326 325
305 306 308 308 306 305 305 305 306 305 305 309 316 317 317 318 319 319 319 318 318 318 317 320 320 322 324 326 328 328 330 327 325 325 325 326 326 325 326 326 327 326 327 328 327
303 305 308 308 306 306 306 307 307 306 306 308 309 308 310 317 321 319 318 318 318 321 321 322 320 321 325 326 327 329 328 327 326 326 326 326 325 325 325 326 327 327 327 327 327
308 304 307 309 306 308 309 308 307 308 307 309 312 311 310 316 317 317 315 314 317 318 321 321 321 319 322 326 326 327 327 326 326 326 326 326 326 326 326 326 327 327 328 327 327
311 304 305 309 309 310 311 311 308 309 309 309 312 312 313 314 314 315 317 315 316 317 321 321 321 320 319 323 325 327 327 328 327 326 326 326 326 326 326 326 327 327 327 325 323
311 306 303 307 308 311 311 312 311 308 307 308 309 310 313 313 313 314 314 315 315 315 316 319 320 321 320 320 323 326 328 328 327 327 326 326 326 326 327 326 326 327 322 321 322
308 310 304 306 312 309 311 312 312 311 309 308 308 312 312 313 313 313 313 312 313 312 313 315 316 319 320 320 323 327 327 329 328 327 326 326 327 326 327 327 326 322 321 322 323
312 310 311 307 311 310 311 309 309 312 310 310 308 311 311 312 312 312 313 312 312 312 314 313 314 317 320 320 323 326 329 330 329 327 326 326 327 326 326 325 323 322 322 324 323
313 309 312 305 309 309 310 309 312 312 312 310 311 311 311 311 312 311 312 312 312 312 312 314 314 317 319 321 323 325 329 327 330 328 327 327 327 326 327 325 322 323 322 323 323
314 308 310 307 308 310 310 309 310 311 312 310 311 311 312 312 311 311 311 312 312 312 312 313 317 318 317 318 320 322 325 330 327 327 328 327 327 327 325 325 324 324 323 323 322
314 310 309 307 308 309 310 310 310 311 311 312 311 311 311 312 312 311 311 311 312 312 312 314 316 315 316 317 320 321 325 328 327 327 327 328 328 326 324 324 325 325 323 323 321
314 312 307 305 308 309 310 310 310 309 310 310 311 311 312 311 311 312 312 311 312 312 312 313 314 314 315 316 319 321 324 328 329 327 326 325 326 324 323 324 326 326 323 322 320
314 312 305 305 307 308 310 311 311 309 310 310 309 311 311 310 310 311 312 311 312 312 312 313 313 313 316 316 316 320 321 325 327 330 331 324 326 324 324 325 322 322 322 321 320
314 311 305 305 311 310 310 311 310 311 315 311 311 310 311 310 310 310 310 311 312 311 311 313 312 313 314 316 316 320 320 325 326 329 329 327 326 324 324 326 318 317 322 321 320
314 311 307 307 309 310 311 310 310 311 314 312 310 311 312 310 310 310 310 312 311 312 311 311 312 313 314 314 315 318 320 322 329 327 333 330 328 326 324 322 319 318 322 320 319
315 313 310 308 308 308 308 309 311 314 311 314 312 311 310 312 311 310 311 312 311 312 313 312 313 313 312 315 317 320 322 326 331 328 329 325 329 325 320 320 320 319 320 320 319
315 314 311 309 310 311 308 309 313 313 313 311 311 311 313 312 312 311 311 312 311 311 312 313 314 314 312 313 320 321 322 326 333 332 326 324 327 325 320 319 320 320 320 319 319
316 314 312 310 311 310 308 310 313 314 314 313 311 313 313 313 312 311 311 312 311 311 313 318 315 314 313 313 319 321 319 317 329 323 325 324 324 319 318 318 317 319 319 319 319
316 314 312 312 310 310 309 311 312 313 311 311 315 311 312 312 310 311 311 311 312 312 310 311 317 316 317 317 319 321 321 324 329 327 330 325 324 322 319 318 317 319 319 319 319
315 313 313 313 310 310 311 311 311 311 311 312 313 313 312 311 311 309 310 311 312 312 310 311 313 317 316 323 323 325 326 328 329 326 327 326 325 320 319 318 317 318 319 319 319
313 313 312 311 312 311 312 311 312 313 313 314 313 314 311 312 311 311 312 313 312 311 312 312 314 319 319 319 321 325 327 327 328 327 324 324 322 317 317 318 317 317 320 320 319
312 313 312 311 313 312 311 312 311 314 315 315 315 313 312 312 311 310 313 313 311 313 314 314 316 321 320 323 323 327 326 326 325 324 325 322 321 317 316 316 319 318 320 320 319
312 315 312 311 312 314 313 313 312 311 312 314 315 313 312 312 311 315 313 314 314 312 316 318 320 318 326 325 325 327 327 325 325 325 324 322 319 318 318 317 317 318 320 320 319
312 314 313 313 312 313 314 313 313 314 314 315 315 314 315 314 313 312 314 314 315 313 315 315 323 322 321 324 324 325 325 324 324 323 325 323 320 317 316 316 316 318 320 320 319
311 311 314 316 312 313 313 315 314 314 315 317 315 318 317 314 313 314 314 314 313 316 315 316 321 322 321 321 323 325 324 324 323 323 323 323 322 316 317 319 318 318 319 319 318
312 311 313 314 316 315 316 315 316 313 313 314 315 315 319 317 315 314 315 315 317 318 318 319 321 322 320 321 321 322 322 323 323 322 323 324 321 317 316 317 317 318 318 318 318

GFSSW_850_thetae_012.txt.gz
Theta_e
306 303 304 305 307 308 307 306 304 305 316 319 321 323 324 323 323 323 322 321 319 319 319 318 318 320 322 323 327 328 325 326 325 324 324 323 323 325 324 323 325 325 325 325 325
311 304 304 306 308 308 306 305 305 304 305 317 319 320 319 323 323 323 322 321 320 320 320 319 316 318 321 323 323 325 326 326 323 323 323 323 323 323 323 324 325 326 326 326 325
315 311 303 306 308 308 306 305 305 306 305 304 314 316 320 320 320 320 320 319 320 322 320 319 317 319 320 321 324 326 328 324 325 325 325 323 322 325 323 323 324 325 326 326 323
314 312 307 304 307 308 306 308 308 308 307 306 306 306 312 317 316 317 318 319 320 322 321 319 317 319 319 321 322 322 325 326 326 326 326 324 325 324 323 323 325 325 325 325 326
315 312 311 305 305 309 308 310 310 308 308 308 307 310 308 314 316 316 315 315 316 320 322 322 320 320 318 318 320 320 321 324 326 327 326 326 324 323 324 325 325 325 325 325 325
315 313 313 309 304 309 309 311 311 310 308 309 308 311 311 312 310 315 316 316 315 317 318 320 320 319 320 318 317 319 319 321 323 324 325 326 325 324 324 324 325 325 325 324 325
315 315 313 309 304 307 309 311 313 311 310 307 308 310 312 311 312 312 314 314 315 315 315 319 316 321 321 319 320 320 321 321 321 323 324 325 325 326 326 325 325 325 325 324 325
315 315 314 308 306 305 308 312 312 314 311 309 308 309 309 310 310 313 314 314 315 316 315 315 314 314 315 319 318 319 319 323 322 323 324 325 328 324 326 325 324 324 325 325 325
314 315 315 310 310 305 311 310 310 309 311 310 310 308 308 310 309 310 312 313 313 315 314 314 312 313 314 319 319 318 320 319 322 321 324 324 326 323 325 324 323 325 325 325 324
315 315 314 312 310 306 311 310 311 310 311 313 310 311 311 310 310 310 312 312 312 312 312 313 313 312 312 318 320 320 319 318 318 322 323 325 325 323 324 324 323 324 325 324 322
314 314 315 313 311 308 310 309 309 309 312 313 312 311 310 312 311 311 311 312 312 312 310 311 313 313 311 313 315 316 316 316 316 317 319 321 324 324 324 323 321 324 324 323 320
314 314 315 315 311 310 309 309 310 310 311 311 312 311 311 312 312 311 311 311 312 313 310 311 312 311 311 311 314 314 315 317 316 316 318 321 323 324 323 324 323 322 323 322 320
313 314 315 314 310 309 307 310 310 309 309 310 311 312 312 312 312 312 311 311 311 312 311 312 310 310 312 313 314 314 315 314 315 316 316 318 319 321 323 323 324 323 323 323 321
313 313 314 312 310 308 308 310 309 309 308 309 309 311 311 312 312 312 312 311 311 312 310 311 310 310 311 313 313 315 314 316 317 318 319 320 323 322 323 324 321 322 321 322 321
313 314 314 313 309 307 307 309 309 309 299 307 309 310 311 312 311 311 312 311 312 311 310 312 310 311 311 311 313 314 313 314 315 317 317 318 321 321 322 324 324 322 319 321 321
314 314 314 311 306 306 307 308 310 301 301 311 310 310 311 311 311 311 311 312 312 312 311 310 310 310 311 310 310 312 314 315 315 317 319 317 321 320 322 322 322 319 318 318 320
313 314 314 310 306 307 310 311 307 300 307 311 311 310 310 311 311 311 312 312 313 313 312 310 310 310 312 313 312 311 312 314 315 316 318 315 320 319 318 319 320 321 316 317 319
309 314 314 307 307 309 311 307 300 307 309 311 310 310 311 310 311 311 312 311 311 311 312 312 311 311 310 311 313 313 313 313 313 314 315 321 323 321 319 319 319 320 319 317 318
307 313 312 307 309 309 309 307 303 308 311 311 310 312 313 311 311 311 312 310 309 309 311 311 309 309 310 310 311 312 313 311 314 316 319 322 324 322 322 319 315 316 316 316 317
308 313 310 306 308 310 308 306 307 311 312 311 313 311 311 310 311 310 310 309 310 309 308 307 307 309 310 310 310 311 311 313 313 315 318 323 325 327 323 319 315 315 315 316 316
306 310 309 307 309 308 309 308 309 312 311 312 314 315 311 309 309 309 309 309 309 309 308 308 309 311 309 311 312 312 312 313 312 315 323 325 325 321 323 318 317 316 316 315 316
311 308 309 309 310 308 311 310 310 310 311 311 311 313 312 309 309 307 309 308 309 309 310 309 312 312 311 310 312 311 312 312 315 313 318 320 319 314 320 316 317 316 315 315 315
312 311 309 309 310 309 310 310 310 312 312 312 314 313 311 310 311 309 309 309 311 311 312 312 313 313 313 313 312 315 312 313 314 318 320 323 323 314 312 315 316 315 315 315 315
308 311 310 310 311 311 311 311 312 311 311 313 314 313 313 314 310 311 311 311 310 311 312 311 313 314 314 319 316 319 316 314 314 319 318 319 319 317 314 313 313 315 315 315 316
309 313 311 310 311 311 311 312 312 313 311 312 312 313 314 312 310 311 311 311 312 312 312 310 313 311 313 314 315 319 318 318 320 318 317 317 316 315 317 313 313 315 315 314 314
311 312 311 311 311 313 312 313 314 313 313 314 313 314 312 313 311 311 310 312 312 312 311 311 312 312 319 317 316 322 319 320 321 317 316 317 318 316 312 312 313 314 315 314 314
311 312 312 311 311 312 313 313 313 313 312 312 313 315 314 313 312 314 313 313 313 313 312 312 312 318 323 322 322 325 322 321 315 314 314 317 317 312 313 312 312 314 315 315 315

GFSSW_850_thetae_015.txt.gz
Theta_e
315 312 303 304 305 308 308 308 307 304 309 318 321 321 322 323 322 322 321 321 320 319 318 318 318 318 322 319 325 326 324 324 323 322 323 322 323 323 323 322 323 324 325 325 325
315 314 311 303 306 308 308 307 306 305 304 315 319 321 322 324 322 321 321 322 321 320 320 320 318 317 320 322 323 325 325 324 322 321 321 322 322 322 323 323 324 325 325 325 325
315 314 314 308 308 308 308 306 305 305 306 304 315 318 320 321 321 320 322 320 322 321 320 320 319 318 319 320 322 324 326 323 324 324 325 322 322 324 323 320 323 325 325 326 325
316 315 315 311 308 308 307 306 308 308 308 306 305 310 315 318 318 317 318 318 319 321 323 321 319 318 318 320 321 321 322 324 325 326 325 324 324 323 323 322 324 324 324 325 325
316 315 315 312 309 310 308 308 309 308 308 308 307 307 307 315 317 316 315 316 319 322 323 323 321 319 317 317 318 319 320 322 322 324 326 326 325 324 324 325 324 325 324 325 324
315 315 315 313 311 308 311 308 311 310 308 309 308 310 310 310 308 315 316 316 317 320 321 322 321 320 319 317 317 317 317 318 319 321 322 323 324 324 325 325 325 325 324 325 325
314 315 315 315 312 308 311 310 312 311 309 307 308 309 312 310 311 310 316 316 315 315 315 317 317 320 320 319 319 319 318 318 319 320 321 323 324 324 324 325 325 326 325 324 325
313 314 314 314 313 308 306 309 312 314 312 309 308 309 309 310 310 312 311 314 315 315 316 315 318 315 315 316 318 319 317 320 318 319 321 323 323 323 324 325 324 325 325 324 325
313 313 314 315 314 308 307 309 311 311 312 311 310 309 309 310 309 311 313 313 314 314 315 315 313 312 314 318 319 318 318 318 318 319 322 323 324 321 322 323 322 324 324 324 325
313 313 315 314 314 309 306 312 310 310 310 312 310 310 310 310 310 310 310 312 312 312 313 312 313 313 314 317 317 316 318 317 317 320 319 321 321 320 322 323 322 322 323 324 325
313 314 315 315 314 311 307 312 309 309 312 313 312 312 310 311 311 311 310 311 312 311 310 310 313 315 314 312 313 314 316 316 314 315 315 317 318 318 320 321 322 322 323 323 325
313 314 314 314 314 312 308 311 309 310 310 312 312 312 311 311 312 311 311 312 312 311 309 311 311 310 310 310 311 312 314 315 313 314 315 315 316 315 316 317 321 322 322 324 324
311 313 313 314 315 312 310 309 309 310 308 309 310 312 312 312 312 312 311 312 310 311 310 311 310 310 310 311 312 312 312 313 313 312 312 313 313 311 313 316 319 322 323 323 324
309 313 314 314 313 312 310 308 309 309 299 306 309 310 311 312 312 312 311 311 311 312 312 312 311 310 310 310 311 312 312 313 314 314 314 314 313 312 314 315 317 320 322 323 323
307 312 314 314 313 311 310 307 310 309 300 306 308 310 312 311 312 311 312 311 312 311 310 312 310 310 310 310 310 312 312 312 314 315 314 315 316 313 316 318 319 319 321 323 323
305 309 313 314 312 312 310 307 309 300 301 310 309 310 311 311 312 311 312 312 312 313 311 310 309 310 310 310 310 312 312 313 314 314 315 313 314 312 312 317 318 317 321 322 322
305 309 312 313 311 307 307 309 305 300 307 310 310 310 309 310 311 312 311 313 314 314 312 311 312 309 310 311 310 310 312 315 316 317 315 312 314 314 312 313 316 317 320 322 321
304 306 308 313 311 306 308 307 303 306 308 309 309 309 310 309 311 311 312 311 311 311 312 312 312 312 309 311 312 311 311 313 314 313 311 312 316 315 314 313 314 315 318 319 318
305 305 304 312 309 308 309 307 304 305 309 310 310 311 311 311 311 310 310 310 310 309 310 309 310 309 309 310 311 313 314 310 312 312 317 316 316 319 318 317 316 315 317 317 316
305 303 306 311 307 309 308 305 305 309 310 310 310 311 311 310 310 309 309 308 310 308 308 309 309 308 309 309 309 310 310 313 313 314 314 312 318 318 319 317 316 314 313 316 316
304 304 308 308 309 309 310 305 307 311 311 311 311 312 310 310 309 309 308 307 308 308 308 309 306 306 308 310 310 311 311 312 311 310 310 313 312 317 317 316 315 313 314 315 316
305 305 308 309 309 309 310 307 308 311 311 311 311 311 312 309 309 307 308 308 308 308 310 309 310 310 308 310 310 310 310 310 314 308 309 312 315 313 314 313 315 313 315 315 315
307 306 309 309 309 309 309 309 310 311 311 311 312 311 312 310 310 308 308 308 309 309 310 310 312 312 314 312 310 312 311 310 310 312 311 310 310 316 314 314 315 316 314 314 315
308 305 308 308 309 308 310 309 311 310 310 311 312 313 313 312 309 310 309 310 309 309 311 310 312 313 313 315 311 313 312 311 310 311 312 314 313 314 315 314 314 314 314 313 314
305 308 306 308 309 308 308 311 311 313 310 311 312 313 314 312 312 311 311 311 311 312 312 311 311 311 312 312 312 314 313 312 312 311 312 311 316 314 315 314 313 314 313 313 314
308 311 309 309 309 310 310 311 313 312 312 313 313 313 312 315 310 309 310 311 312 313 312 311 310 311 313 312 313 315 314 315 313 313 313 314 317 315 314 314 312 313 313 313 313
306 312 311 309 310 312 312 311 312 313 312 312 313 313 314 314 312 311 311 312 312 313 313 310 310 314 319 318 317 318 315 316 315 315 315 317 316 315 314 311 311 313 314 313 314

GFSSW_850_thetae_018.txt.gz
Theta_e
317 315 314 312 303 305 306 309 309 307 305 309 318 319 319 322 321 321 321 320 320 319 319 318 318 318 318 319 323 325 323 323 321 321 321 321 321 322 323 322 323 323 324 325 325
319 316 315 314 311 305 307 308 308 306 306 305 315 320 320 321 323 322 322 321 321 319 318 319 319 317 318 321 321 324 323 322 320 319 321 320 321 321 322 322 323 324 324 325 325
318 318 315 314 313 306 308 308 306 305 306 305 310 318 320 320 321 320 320 320 321 321 321 320 319 317 318 320 321 323 324 322 323 324 324 322 322 323 322 322 323 323 323 324 325
315 317 315 315 314 310 308 308 306 307 308 307 305 312 317 319 316 317 318 319 321 323 324 321 319 317 317 318 320 320 320 323 324 324 325 324 324 323 322 322 323 324 324 324 324
313 315 315 315 314 312 309 309 309 309 308 308 307 307 310 317 318 315 315 316 319 322 323 321 320 317 316 316 317 318 318 320 321 321 321 322 323 324 324 325 325 325 325 324 324
312 313 315 316 314 313 309 311 310 310 309 309 308 311 310 311 309 315 315 317 320 323 324 322 321 320 318 317 316 316 317 317 318 319 320 320 321 322 322 324 324 324 324 324 324
315 314 314 315 314 314 311 311 310 312 310 307 309 310 312 309 310 310 316 316 318 322 321 320 321 319 319 318 318 318 318 316 317 318 318 320 320 321 321 321 322 322 323 324 323
313 313 313 314 315 314 311 309 310 312 313 310 308 309 308 309 309 312 313 316 315 315 315 314 317 318 317 315 316 318 318 318 315 317 318 320 320 320 320 321 321 321 322 323 322
310 314 313 313 314 313 311 307 309 311 314 312 310 308 309 310 310 310 312 312 315 315 315 315 314 313 313 315 315 317 317 318 317 316 318 320 321 321 321 321 320 322 322 323 324
308 312 313 314 315 315 311 308 310 310 310 311 310 310 311 310 310 309 312 312 313 313 314 314 312 312 314 316 315 315 317 317 317 315 315 316 318 317 318 318 318 320 321 322 323
305 310 313 313 315 315 309 310 311 309 310 312 312 311 310 310 310 310 310 311 311 311 311 310 313 315 314 312 313 313 314 315 314 314 314 315 315 314 314 315 316 318 320 321 322
303 306 312 313 315 315 310 309 310 308 309 311 313 311 311 311 311 311 310 311 311 311 309 311 311 310 311 311 313 313 313 313 311 312 312 313 313 313 312 313 315 318 319 320 322
303 304 308 313 316 314 310 309 309 309 307 308 310 312 312 311 311 311 311 311 310 310 310 311 310 309 310 310 311 310 311 311 310 310 310 311 310 308 308 310 311 312 314 316 319
301 303 308 311 315 313 311 309 309 309 298 304 309 310 311 312 311 311 311 311 310 311 311 311 310 310 309 310 309 311 310 311 312 312 312 309 311 309 310 310 307 310 313 316 318
301 302 306 309 313 313 312 309 308 308 302 306 309 310 311 311 311 311 311 311 312 310 311 312 310 310 311 310 308 310 310 311 312 313 312 312 314 310 310 311 311 311 315 316 317
302 303 303 306 311 313 312 308 308 300 301 310 309 311 313 311 312 310 312 311 311 312 311 310 309 309 309 309 309 310 310 311 312 313 315 312 312 311 309 309 309 310 313 316 319
304 304 303 305 311 312 310 309 307 305 307 309 309 310 311 311 311 312 312 313 313 313 313 312 312 310 309 309 309 310 314 314 316 315 313 310 311 311 308 309 309 310 313 316 317
305 305 303 304 311 311 307 304 306 306 308 309 308 308 309 309 311 311 312 312 312 312 313 312 308 310 310 310 310 310 311 314 315 310 309 310 313 311 309 310 311 311 312 315 318
305 305 305 304 309 309 307 307 307 305 309 310 309 309 310 310 310 310 312 312 310 311 312 309 307 308 309 309 310 313 311 310 313 312 315 311 311 311 315 313 313 311 312 313 315
304 304 304 305 308 308 307 306 305 306 308 309 309 309 310 311 311 311 308 307 309 308 307 308 310 306 308 308 309 311 311 314 312 313 313 310 309 310 312 313 312 313 313 315 315
304 304 305 306 306 308 309 306 305 310 309 310 310 310 310 310 310 309 307 306 307 307 307 308 308 306 308 309 309 311 312 312 311 313 311 308 307 310 315 313 314 313 313 315 317
304 305 305 306 307 309 309 305 308 310 310 310 310 311 310 309 308 307 307 306 307 307 309 309 311 310 309 308 309 309 310 310 311 307 308 306 309 311 312 312 313 314 313 313 315
305 306 307 306 308 309 309 308 309 311 311 311 311 310 311 311 310 307 307 307 307 308 309 309 311 312 311 310 310 311 310 310 310 311 310 308 309 307 307 311 313 315 314 314 314
306 306 307 307 307 309 309 309 309 310 311 311 312 312 311 312 308 309 308 309 307 308 309 309 312 311 313 313 312 313 312 311 311 311 310 310 310 309 312 314 314 314 314 314 314
306 306 305 306 307 308 308 308 310 312 310 311 312 310 314 314 312 311 308 309 309 309 311 311 312 311 311 311 311 313 313 312 312 310 310 308 309 309 310 313 313 313 314 313 312
307 309 306 306 308 308 308 308 309 310 311 312 311 312 312 314 311 310 310 310 311 312 312 311 312 311 312 311 311 313 314 313 312 311 311 310 310 310 312 313 312 314 313 313 313
302 305 309 308 310 308 308 310 311 311 311 311 312 312 313 313 311 312 312 310 311 313 312 311 310 314 314 314 316 318 313 313 312 312 311 312 311 310 311 312 313 312 312 313 313

GFSSW_850_thetae_024.txt.gz
Theta_e
314 314 316 316 319 316 315 312 306 309 309 308 306 310 318 316 318 322 320 321 318 318 319 319 318 319 319 320 325 324 324 324 323 323 322 322 322 322 322 323 324 323 324 324 323
316 316 315 316 318 316 315 313 308 307 309 307 306 310 318 318 319 321 321 321 320 319 320 320 319 318 320 321 323 324 324 323 322 323 322 322 323 323 323 323 324 324 324 323 324
315 315 313 315 315 319 314 314 312 306 308 306 306 310 316 318 321 321 321 321 321 321 321 320 320 318 319 321 321 323 325 322 323 322 323 324 324 323 323 324 324 325 325 324 325
310 313 314 314 315 316 316 314 313 306 307 307 306 307 316 318 321 318 319 319 321 323 321 321 320 319 320 320 320 322 321 322 321 323 324 324 324 324 323 322 322 324 323 324 325
305 306 312 314 314 314 317 314 313 307 308 309 309 306 316 318 319 317 315 317 318 324 323 322 320 320 321 319 320 321 320 320 320 321 321 321 321 322 322 322 323 323 324 325 325
305 305 307 312 314 314 316 315 313 309 309 309 309 309 311 316 315 316 316 316 320 324 324 321 321 319 319 319 319 318 319 319 319 319 319 319 319 319 319 320 320 320 321 321 323
303 304 305 309 312 314 315 316 313 309 310 310 309 309 312 311 309 308 312 316 319 323 322 322 321 320 320 320 319 319 320 319 319 318 319 318 320 320 319 319 319 319 319 320 320
303 303 302 305 310 313 314 317 313 309 311 311 308 309 311 309 309 310 313 318 321 320 322 322 320 319 318 317 317 318 319 321 319 318 318 318 319 318 318 319 320 320 320 319 319
302 302 303 303 306 310 314 316 312 310 312 312 311 309 311 309 309 309 312 317 318 315 317 319 318 316 316 318 319 318 320 320 319 317 318 319 321 320 320 320 320 320 320 320 321
300 302 302 303 302 308 313 316 312 309 312 313 311 311 311 311 310 309 312 316 315 314 315 316 315 316 316 318 320 318 319 317 317 317 317 318 319 318 318 317 318 318 319 320 320
301 302 302 302 303 306 310 315 311 311 312 313 312 311 311 310 309 310 311 312 313 315 316 314 316 316 316 315 316 315 316 317 317 316 316 316 316 316 315 315 315 315 315 316 317
301 302 301 302 303 302 306 311 309 310 311 311 311 311 311 311 311 311 311 312 314 316 314 314 316 314 313 314 314 314 315 315 315 314 314 314 315 314 314 314 313 313 314 314 314
301 301 301 301 303 303 302 311 310 309 310 309 311 312 311 311 312 311 312 312 313 314 314 315 313 311 313 314 314 314 314 314 313 314 313 314 315 315 314 313 313 312 312 313 313
301 300 303 303 303 302 305 307 310 309 313 309 310 310 311 312 312 312 311 312 312 314 313 313 312 311 312 313 313 315 313 313 313 313 314 312 317 315 315 314 313 312 312 312 312
301 302 303 303 304 306 306 307 309 309 316 309 309 310 311 310 311 311 311 311 313 313 312 313 312 313 312 312 312 313 311 311 312 313 313 314 313 314 313 314 314 314 314 313 313
301 301 303 303 303 304 308 310 308 309 313 310 309 312 312 310 311 311 311 311 311 312 312 312 310 311 312 312 311 311 312 312 312 313 317 314 314 315 315 315 314 313 313 313 312
302 302 302 304 304 303 307 306 308 315 308 310 310 312 311 311 312 312 312 313 313 314 314 313 312 311 310 311 311 311 312 314 315 316 315 312 315 314 313 312 313 313 313 312 313
303 301 303 304 303 304 305 305 314 310 311 309 310 312 312 310 311 311 313 313 312 312 313 313 316 313 311 311 312 312 312 314 314 314 313 312 314 313 313 312 312 312 313 315 316
302 303 304 304 304 304 304 312 312 309 309 309 310 311 311 310 311 311 312 312 312 312 313 314 311 309 311 311 310 312 313 312 313 313 314 312 312 313 312 312 312 312 314 316 316
301 302 304 304 303 304 307 312 307 309 309 310 311 310 310 310 311 311 311 311 311 311 311 311 312 308 310 310 311 312 311 313 313 313 313 312 311 312 312 312 313 314 314 315 316
302 301 303 305 304 304 311 309 310 309 309 310 310 311 311 310 311 311 311 309 310 311 312 310 309 310 310 310 311 311 312 314 312 314 313 312 312 311 311 311 312 313 314 315 315
302 305 305 305 304 303 310 308 310 310 310 310 310 310 311 311 311 311 311 309 308 309 312 310 310 310 310 309 310 310 311 311 314 314 314 315 315 311 312 313 314 313 314 314 315
303 303 305 305 309 309 307 310 311 311 311 311 311 311 310 311 312 310 309 308 307 309 310 310 311 312 313 313 310 311 310 311 312 312 315 314 313 309 309 310 310 312 312 312 314
303 305 304 305 307 309 310 310 311 310 311 312 311 312 312 311 310 311 310 309 308 309 309 309 311 312 315 316 315 314 312 312 312 314 314 314 313 311 311 310 310 310 310 311 314
305 305 305 308 309 309 309 310 311 311 311 311 312 312 312 313 312 311 310 310 309 308 309 310 312 311 311 311 312 313 313 313 313 312 313 313 312 312 311 311 311 309 311 313 313
301 303 305 307 308 308 308 310 311 311 311 312 312 312 312 313 312 313 312 312 312 310 311 311 313 313 313 313 314 315 315 315 314 314 313 313 313 311 311 310 310 311 312 313 314
301 301 303 307 309 309 310 308 310 311 310 311 311 312 312 312 311 312 311 310 311 311 311 312 312 313 316 314 315 320 318 317 316 313 313 314 312 311 311 311 311 312 312 313 313

GFSSW_850_thetae_027.txt.gz
Theta_e
315 315 317 314 317 318 318 316 314 309 305 308 309 308 313 319 316 316 319 322 322 320 319 322 320 320 321 321 322 325 327 325 325 323 323 323 323 323 323 323 324 325 325 327 327
308 314 315 316 315 316 318 316 314 313 306 308 308 307 311 319 319 319 321 322 320 318 320 321 320 320 321 321 322 325 324 323 322 323 323 323 323 323 324 324 323 325 325 325 328
304 306 312 313 315 315 316 318 314 313 308 308 307 306 313 318 321 321 322 321 321 321 322 321 320 320 320 321 321 323 324 322 322 324 324 323 323 323 324 325 323 324 325 325 326
305 307 306 311 313 314 315 317 315 314 310 307 307 306 314 317 323 323 321 321 322 322 323 321 320 319 320 322 321 322 321 322 322 323 324 324 323 323 323 323 323 324 325 326 326
303 305 306 305 310 313 314 315 317 314 311 307 308 306 315 318 320 319 317 318 321 323 323 322 321 320 321 320 319 321 322 320 321 322 322 323 323 323 323 323 323 323 324 325 325
303 304 304 305 306 311 314 315 317 314 312 308 309 308 314 317 316 318 316 317 320 324 324 323 322 321 321 321 321 321 321 320 321 320 320 321 320 320 320 320 321 321 322 322 323
302 303 303 304 303 308 312 315 314 314 312 310 310 309 313 313 312 313 316 317 322 323 325 323 322 321 322 321 320 320 322 322 321 320 321 320 321 321 320 320 320 320 320 320 321
302 302 302 303 303 305 309 314 315 314 311 310 310 313 314 313 313 310 313 319 320 323 323 323 321 321 321 319 319 320 321 323 321 320 320 319 321 320 320 320 320 320 320 320 320
302 301 300 302 303 303 306 311 314 315 311 311 310 313 314 311 310 312 313 318 318 321 323 322 320 319 318 320 321 321 323 323 322 320 320 320 323 321 321 321 320 320 321 321 321
301 300 301 302 303 303 303 308 313 315 311 312 313 313 312 312 312 311 313 317 316 319 320 320 316 317 318 320 325 323 322 321 320 319 318 319 320 319 319 319 320 320 321 321 321
301 301 301 301 302 302 303 306 313 313 314 313 313 313 313 312 311 312 314 316 316 317 318 317 318 320 320 320 319 318 318 319 319 318 317 318 318 318 317 317 317 317 318 319 319
301 301 301 301 301 302 302 304 305 311 313 313 313 312 312 312 312 312 314 315 315 317 315 316 318 317 316 316 316 317 318 318 317 316 316 316 316 316 316 316 316 316 316 317 317
300 301 301 301 300 302 303 304 306 309 312 313 312 312 312 312 313 313 313 314 315 316 316 318 316 314 315 316 316 317 316 316 316 315 314 315 316 317 317 315 315 315 315 315 315
300 300 301 302 304 304 303 304 303 307 313 312 312 312 312 313 314 312 313 313 314 315 315 315 314 313 314 315 315 317 315 315 315 315 317 314 318 316 316 316 316 315 314 314 314
300 301 303 302 303 305 306 304 306 307 319 311 311 311 312 312 313 313 313 312 314 315 314 316 313 314 313 314 313 314 313 313 314 314 314 315 316 316 316 316 316 316 315 315 315
301 302 302 303 304 305 306 304 306 310 318 311 310 311 312 311 312 312 312 312 312 312 313 314 312 313 313 313 313 312 312 312 313 312 315 314 315 316 315 315 316 317 316 315 314
301 302 302 303 305 305 307 303 307 314 310 311 311 312 312 311 312 313 313 313 314 314 314 313 313 312 311 313 312 312 313 315 318 317 316 314 315 315 314 314 314 314 314 314 313
301 302 303 305 304 303 305 307 313 312 311 309 311 312 313 311 312 312 313 314 312 312 314 313 318 313 312 312 313 313 313 315 316 317 316 314 315 315 314 314 313 313 313 313 313
301 303 305 304 304 304 303 311 315 312 310 311 312 313 314 311 312 313 313 313 312 312 315 315 314 311 313 312 311 312 313 312 314 313 314 313 313 314 313 313 313 313 312 313 314
302 302 305 304 304 305 306 312 310 311 310 312 313 311 312 312 313 312 312 313 312 313 312 314 315 311 312 311 311 312 312 313 314 314 315 314 314 314 314 313 313 313 313 313 315
302 302 304 304 304 305 312 312 311 310 311 312 311 311 310 311 312 311 312 312 312 312 312 311 311 312 310 311 312 312 312 312 313 316 315 315 315 314 312 312 311 313 314 314 315
302 305 304 305 305 304 311 310 309 311 311 311 311 312 311 311 313 313 313 311 310 311 312 311 310 312 312 310 310 311 311 312 315 314 314 315 316 312 312 312 312 312 313 314 313
303 302 304 306 310 310 309 311 311 312 312 312 312 311 312 312 313 313 312 310 309 311 312 311 312 313 316 313 311 311 311 311 313 314 315 316 316 312 311 311 311 310 311 312 312
304 307 305 307 309 311 312 312 312 312 313 312 313 311 312 313 313 313 312 310 309 310 309 311 312 312 316 316 315 315 313 313 313 315 315 315 315 314 313 313 312 312 311 310 311
303 306 306 310 311 311 311 311 311 312 312 312 313 313 313 313 313 313 312 311 310 310 310 311 314 312 312 312 312 313 314 314 314 314 315 315 315 314 313 313 312 312 311 311 312
302 303 304 309 310 311 311 312 312 312 312 312 314 313 313 314 313 313 313 312 313 311 311 311 313 314 313 312 314 316 315 315 316 316 316 315 315 314 313 312 311 311 311 312 312
302 303 303 308 309 311 311 311 312 312 312 312 312 313 313 313 312 312 311 311 312 312 311 312 313 313 314 315 315 320 318 317 318 317 315 316 315 313 312 312 311 311 311 312 313

GFSSW_850_thetae_030.txt.gz
Theta_e
306 310 311 313 315 314 317 318 318 316 314 308 307 309 309 312 318 319 318 318 320 323 319 325 322 320 320 322 321 323 326 325 324 323 323 322 322 324 323 323 324 325 325 327 337
305 305 306 308 313 314 314 317 318 317 314 312 306 308 308 315 318 320 316 320 322 322 320 322 321 321 320 321 321 324 326 327 323 321 322 323 322 323 323 323 323 324 325 326 328
305 304 305 308 308 311 313 315 317 318 314 313 306 308 307 316 319 320 319 320 322 321 318 321 321 320 321 321 321 322 324 322 321 321 323 324 323 323 323 324 324 323 325 325 328
304 304 304 306 306 306 310 313 316 318 315 313 307 307 307 317 320 323 322 321 321 321 323 322 321 320 321 321 321 321 322 322 322 322 323 324 323 323 323 323 324 324 324 326 326
304 304 304 304 304 305 307 312 314 316 315 313 307 308 310 316 319 321 319 322 322 323 323 322 320 320 320 319 320 321 321 321 321 321 321 322 323 323 323 323 323 323 323 323 326
304 304 303 303 304 304 305 310 313 315 317 313 308 309 311 316 317 319 317 317 320 322 323 323 320 319 319 319 319 319 320 320 320 320 320 321 321 321 320 321 321 322 323 322 323
303 303 303 303 303 303 304 307 311 315 318 313 308 309 312 315 314 315 317 316 320 322 323 324 323 321 321 321 320 320 321 320 320 320 320 320 320 320 320 320 319 320 320 321 321
300 302 303 302 302 303 304 304 310 314 316 313 309 311 314 314 314 314 313 316 319 322 322 323 322 321 321 319 320 321 321 322 320 320 320 320 321 319 320 320 320 320 320 320 320
301 301 301 300 302 303 303 303 304 311 315 314 310 313 313 313 313 314 313 317 320 322 323 322 321 320 319 320 321 320 322 321 321 320 320 319 320 320 320 321 321 321 320 320 320
300 300 301 301 301 302 302 302 303 309 315 313 312 313 312 313 311 312 314 318 318 321 322 320 317 319 319 320 323 322 322 320 320 320 319 318 318 318 318 318 318 321 321 321 321
300 300 301 301 301 302 302 302 306 312 315 312 313 313 312 313 312 312 314 317 316 320 319 320 320 321 319 319 319 321 319 318 317 317 316 316 316 316 316 316 316 317 318 319 319
299 300 301 301 301 302 302 303 304 307 313 311 313 313 313 313 313 312 316 316 317 319 317 317 318 318 319 319 318 317 317 317 316 316 315 314 314 313 313 314 315 315 316 317 317
299 300 300 301 303 302 302 302 304 303 309 312 314 313 312 313 313 313 316 315 316 316 317 316 316 315 316 317 316 316 316 316 315 314 314 313 314 314 315 314 314 314 315 315 316
300 300 301 302 304 302 304 305 304 302 308 314 314 313 313 314 314 313 315 315 315 316 316 316 315 314 315 316 315 316 315 315 315 315 314 313 315 313 313 313 313 314 315 316 316
299 301 301 302 303 304 305 305 303 301 316 313 312 313 313 313 313 313 314 313 315 315 315 315 314 315 314 314 314 314 313 313 314 313 313 313 312 312 313 313 314 313 316 315 315
300 301 301 303 303 305 306 303 301 304 314 313 311 313 314 313 313 312 313 313 313 314 314 314 312 313 314 313 313 312 313 312 313 313 313 312 313 312 312 312 312 311 314 315 315
300 301 302 305 304 305 304 305 306 309 310 312 313 313 313 313 313 313 314 313 314 314 315 313 313 312 312 313 313 313 313 313 315 314 311 313 313 312 312 312 312 312 314 314 314
301 302 304 304 304 304 303 305 308 313 312 309 312 312 312 312 313 313 314 314 313 312 315 313 315 313 311 312 314 314 313 312 315 315 314 312 314 311 312 312 313 313 313 314 313
302 303 304 305 305 304 306 308 310 312 310 311 312 312 313 312 313 313 313 313 312 312 315 314 314 313 312 312 312 312 312 311 312 311 309 310 310 310 312 311 311 311 312 313 313
303 303 305 304 303 303 306 311 310 310 311 311 313 312 313 312 313 313 313 312 311 312 311 314 315 312 313 311 311 311 311 312 312 308 312 311 311 312 312 310 310 309 311 313 312
303 304 304 304 304 305 309 308 311 311 311 312 311 311 311 311 312 312 311 312 311 312 311 312 312 311 309 311 311 311 312 312 312 314 311 312 312 312 311 311 311 309 313 314 315
303 304 303 304 305 305 309 309 311 312 311 312 311 311 311 311 312 311 313 312 312 312 312 311 311 310 310 310 310 311 311 310 308 309 310 311 312 312 310 311 309 309 312 313 314
303 303 304 307 309 310 308 311 311 312 312 312 312 312 310 311 312 313 313 309 310 311 312 311 310 308 313 312 310 310 311 311 311 312 312 313 312 311 310 311 312 311 311 311 311
305 307 306 309 309 309 312 312 313 312 313 312 312 312 311 312 313 313 312 310 310 311 310 311 312 309 311 313 312 311 312 312 312 314 313 313 312 311 312 313 313 313 312 312 311
305 306 306 311 312 311 311 312 312 313 313 313 313 313 313 313 313 313 312 311 310 310 310 311 312 308 310 311 310 311 312 312 313 313 315 314 314 314 314 314 313 313 312 312 311
303 304 304 310 311 311 311 311 312 312 313 313 313 313 313 313 313 312 312 312 312 310 310 310 311 309 310 311 311 312 312 314 315 316 316 316 317 314 314 313 311 311 311 311 312
303 303 304 309 310 311 312 312 312 312 313 313 313 313 314 313 312 312 312 312 312 311 311 313 311 312 308 313 313 317 316 318 317 317 317 318 316 316 316 314 311 311 310 310 310

GFSSW_850_thetae_033.txt.gz
Theta_e
305 306 306 307 310 310 312 314 317 321 317 315 313 305 308 309 310 317 318 315 315 321 320 321 320 319 320 320 321 321 320 321 323 323 322 322 320 322 323 323 323 324 330 336 338
305 306 305 305 306 308 309 312 314 317 319 316 314 307 308 308 311 317 315 317 317 318 322 323 323 320 320 320 321 320 321 323 321 320 320 320 322 322 322 322 322 323 328 336 337
305 304 305 305 305 306 307 308 312 315 319 318 314 307 308 307 315 314 314 318 323 321 321 321 321 320 320 320 321 320 321 322 323 322 321 323 323 323 321 320 322 322 325 326 325
305 304 305 305 304 305 306 307 309 312 315 319 314 307 307 312 316 322 321 318 322 321 321 319 321 321 319 319 320 319 320 321 321 321 321 322 323 322 322 322 322 323 323 323 328
304 304 304 304 304 303 304 305 306 310 315 317 315 308 307 314 316 320 319 321 323 321 319 321 322 320 319 318 319 318 318 320 320 320 320 321 321 321 322 323 322 322 322 323 324
303 303 303 303 303 303 303 304 305 309 314 317 315 309 308 315 313 318 319 320 322 322 321 322 322 320 319 318 316 318 318 319 320 320 320 319 319 320 321 322 322 322 322 322 322
303 302 301 303 302 302 302 304 304 307 312 314 315 310 309 311 316 318 318 317 318 321 322 321 322 320 320 320 320 319 320 318 319 320 318 320 318 318 320 319 319 319 319 321 320
301 301 301 301 301 301 302 303 304 303 310 314 314 310 311 310 314 314 316 317 319 321 322 322 323 321 320 320 320 319 319 321 319 319 319 319 319 318 319 319 319 319 319 318 320
300 300 300 300 300 301 301 302 302 302 304 314 313 310 312 313 312 314 313 316 319 320 322 322 322 320 319 319 320 319 319 319 319 318 319 318 319 318 319 319 318 318 319 320 319
299 299 300 300 301 301 301 301 300 301 303 310 311 311 312 313 313 314 313 317 320 322 321 320 319 320 319 320 322 320 319 318 318 318 318 318 317 315 319 318 316 317 318 319 320
299 299 300 300 301 301 302 301 302 306 305 313 311 312 313 313 312 313 314 316 318 321 322 319 320 321 317 317 318 319 320 317 315 315 314 314 313 312 313 313 314 315 315 317 318
300 300 300 301 301 302 302 302 302 304 305 308 311 313 312 312 312 312 316 317 318 319 315 318 319 319 318 318 320 318 316 315 314 314 313 312 313 312 312 312 313 313 314 315 316
300 300 300 301 301 303 302 303 302 302 303 311 312 313 312 313 313 312 316 316 316 318 317 316 315 316 317 317 317 315 315 314 314 312 311 310 311 311 311 311 312 312 313 314 315
299 300 301 301 303 302 303 304 302 301 305 313 314 313 312 313 313 314 316 315 316 316 316 316 314 313 315 316 315 315 312 313 314 312 312 310 312 309 310 310 310 312 313 314 314
299 300 300 301 302 303 303 304 303 303 309 312 314 312 312 314 313 314 315 314 315 316 315 316 315 314 313 314 313 314 312 312 312 311 309 310 309 309 309 310 310 309 312 314 315
300 300 302 303 303 303 304 304 302 304 307 313 312 313 313 313 313 313 313 313 313 315 314 313 312 312 312 312 311 311 311 311 311 310 305 309 310 309 309 310 311 309 312 313 314
302 304 303 303 303 304 304 301 301 302 305 311 314 313 313 314 313 313 313 314 313 313 312 314 313 311 312 312 311 311 308 303 306 312 309 310 310 309 309 310 310 309 312 313 313
303 303 304 303 305 304 302 304 304 308 311 313 312 313 314 313 313 314 313 312 311 311 308 308 308 311 310 311 311 311 309 305 310 311 311 310 312 311 310 311 311 312 313 313 313
303 304 304 305 304 303 304 303 306 312 310 313 312 312 313 312 313 313 313 312 310 311 310 309 312 311 310 311 311 312 309 309 309 308 302 308 307 307 308 308 307 308 310 310 312
304 304 304 304 304 304 306 310 308 309 311 311 311 312 313 313 313 312 312 311 311 310 309 313 313 312 312 311 311 309 309 309 303 303 309 308 308 309 309 309 308 307 310 314 312
303 304 304 304 304 304 307 307 311 310 311 312 311 312 311 312 312 312 311 311 310 310 310 311 311 310 311 310 310 310 311 311 308 306 308 311 309 307 310 309 308 307 310 311 312
303 304 304 305 304 304 306 305 310 310 311 311 308 309 309 310 311 311 310 309 310 310 311 311 310 307 307 307 308 308 308 308 305 304 306 304 310 310 310 308 309 310 311 312 312
304 304 306 306 308 307 310 311 312 312 312 312 311 310 309 310 310 310 311 308 310 311 312 310 308 302 312 308 308 309 309 309 308 308 310 311 311 308 309 310 310 311 313 313 313
305 305 306 309 308 309 311 311 313 312 312 310 309 309 310 312 310 311 310 309 310 311 310 310 309 303 307 309 308 305 310 309 309 312 311 311 311 310 310 311 313 314 312 312 313
304 304 305 303 307 310 311 311 312 312 311 312 312 310 311 313 312 312 311 309 309 310 309 309 309 303 307 309 309 307 309 310 311 311 313 311 313 313 313 314 315 311 311 311 311
303 303 303 305 309 308 310 310 312 312 312 312 312 312 312 313 312 312 311 310 309 308 308 308 305 308 308 309 309 310 311 311 311 311 312 313 315 314 316 316 314 312 311 311 310
303 303 304 306 307 310 310 312 312 311 311 311 312 313 314 313 312 311 311 311 309 308 309 311 310 303 303 309 311 316 313 313 315 316 316 319 317 316 316 316 311 310 309 309 310

GFSSW_850_thetae_036.txt.gz
Theta_e
306 306 306 307 306 306 307 308 310 315 319 320 317 314 307 308 309 310 313 309 311 320 320 321 321 321 318 320 320 320 318 320 321 319 319 321 319 322 322 321 323 324 329 327 334
306 307 307 305 306 305 305 307 307 310 316 318 317 315 309 308 308 309 311 313 314 320 318 323 322 321 320 320 320 318 318 320 319 320 320 320 321 322 321 321 321 325 329 335 338
306 306 305 305 306 305 304 305 306 307 312 316 318 316 310 308 310 310 310 313 316 321 320 323 322 321 320 319 320 318 320 319 321 322 322 321 321 322 321 320 320 324 334 337 337
305 305 304 304 304 304 304 304 305 306 309 314 316 316 310 308 314 321 317 315 318 318 318 321 321 321 318 318 319 319 318 320 321 321 320 320 321 321 322 322 322 322 324 333 338
303 304 304 303 303 304 304 304 304 304 308 313 315 316 309 310 313 321 320 318 323 321 322 320 321 321 318 317 319 318 318 319 320 320 319 319 320 320 321 322 323 322 322 321 323
302 302 302 301 302 302 303 303 304 304 307 311 314 316 310 311 308 319 319 319 322 322 321 319 321 321 319 318 317 317 319 318 319 319 319 319 318 319 320 321 322 322 321 321 321
301 301 301 301 301 301 300 302 302 304 304 309 313 315 311 309 312 316 318 320 320 321 320 318 321 320 319 319 319 318 319 318 318 319 318 319 319 317 319 319 319 320 320 320 319
301 300 300 300 300 301 301 302 302 303 303 305 311 314 311 311 315 317 317 318 319 320 321 319 322 321 321 319 319 318 317 320 317 318 318 318 320 317 318 318 319 319 318 318 318
300 300 300 300 300 300 301 301 301 302 301 303 308 313 310 311 311 317 317 317 318 320 321 321 322 320 319 317 317 318 318 319 318 317 317 317 319 317 318 317 317 318 319 319 319
299 300 299 300 300 300 301 302 301 301 300 302 307 310 311 312 311 313 314 316 319 320 321 321 320 320 318 318 319 319 318 317 318 317 315 316 316 316 317 316 317 318 317 318 318
300 300 300 301 301 301 302 302 302 304 303 306 310 311 312 311 313 313 312 315 319 320 321 319 321 323 321 319 317 317 320 319 315 314 313 312 311 311 312 312 312 313 313 315 317
300 300 300 300 301 301 303 301 302 303 305 304 308 310 312 312 313 313 313 316 319 320 318 318 321 319 319 319 320 319 316 315 313 313 313 311 311 311 311 312 312 313 314 314 315
299 299 300 301 301 303 303 302 302 302 303 305 305 309 312 312 313 313 313 317 316 317 317 319 317 317 319 319 320 315 314 314 314 311 310 309 311 310 309 310 311 312 312 312 313
299 300 299 300 302 302 302 304 301 302 305 309 310 313 313 312 312 313 316 316 316 317 315 315 312 318 318 318 314 315 312 312 312 312 312 309 312 308 308 308 308 309 311 313 313
301 301 301 303 303 302 303 303 302 302 310 309 312 312 313 313 313 315 315 315 315 316 314 315 314 313 314 315 313 313 311 311 311 310 308 309 309 308 307 309 308 308 312 312 313
303 303 303 302 302 303 303 302 303 302 309 309 311 313 313 313 313 314 314 313 315 315 313 312 312 312 311 311 311 310 310 308 308 307 304 307 309 307 308 309 310 309 311 312 313
303 303 303 304 303 303 304 302 299 304 304 310 315 313 313 313 314 314 314 314 315 316 315 313 312 311 311 311 311 309 307 305 304 308 309 308 309 307 307 307 308 307 311 312 313
303 304 304 304 304 304 301 304 302 305 305 309 313 313 314 313 314 314 314 313 311 309 309 311 314 311 310 310 311 310 308 304 308 309 309 308 311 308 307 308 308 308 309 310 310
304 303 303 304 303 302 303 303 305 307 307 314 312 313 313 312 314 313 313 313 311 310 310 308 311 310 310 310 310 311 308 308 307 306 302 306 305 304 306 307 307 307 311 311 312
303 303 303 304 304 304 305 308 307 307 311 310 311 311 312 312 313 313 312 311 310 309 309 310 311 311 311 311 310 309 308 307 299 299 307 306 306 307 307 309 307 306 308 310 311
303 303 304 304 304 304 307 306 310 310 311 311 311 310 311 311 311 311 310 310 309 309 310 310 307 309 311 310 309 310 310 309 306 303 306 309 309 304 308 309 308 306 308 309 311
303 299 304 306 303 300 306 307 309 311 311 310 308 309 309 311 311 311 310 308 309 309 310 310 307 303 310 308 307 308 308 307 302 302 304 303 309 307 306 307 307 309 310 312 313
304 304 306 307 309 310 310 311 312 312 311 311 309 309 308 309 310 309 309 308 310 309 310 309 304 302 310 307 307 308 308 307 306 306 300 307 308 307 306 308 310 313 314 315 312
305 300 306 308 308 307 309 310 312 311 311 308 308 308 309 310 308 310 310 309 310 311 311 309 306 303 306 307 304 303 308 308 307 305 307 308 309 309 309 312 314 314 315 311 311
304 304 304 303 306 308 309 309 311 312 311 310 309 310 312 313 311 311 310 308 309 310 310 307 303 300 305 307 307 306 308 308 307 309 308 310 310 311 312 313 315 314 313 312 311
303 303 304 305 307 308 308 310 311 311 311 312 312 312 312 313 311 311 309 308 309 308 308 305 304 304 306 307 307 306 308 308 309 309 310 310 311 311 313 316 311 309 308 309 311
303 303 304 305 305 308 308 311 311 310 311 311 311 313 314 313 311 310 309 309 308 307 307 307 305 305 306 306 308 311 311 311 310 310 311 316 317 316 316 314 308 306 304 301 302

GFSSW_850_thetae_039.txt.gz
Theta_e
307 307 307 307 306 306 306 306 307 308 311 316 317 318 315 312 310 314 313 308 309 317 314 323 323 322 321 319 320 319 318 319 318 318 318 318 319 321 321 320 321 322 325 329 330
307 307 307 307 306 305 306 304 305 306 308 312 317 317 316 313 309 312 307 308 309 322 321 319 320 321 321 319 320 317 316 319 318 317 320 319 320 321 321 320 320 324 328 333 335
304 305 305 305 305 305 305 306 304 305 307 308 312 316 317 314 310 307 306 308 310 321 321 322 322 322 319 319 319 317 318 317 320 321 321 320 319 320 320 319 319 321 336 337 337
304 304 304 303 303 304 303 304 304 305 304 306 309 315 318 312 311 320 313 308 314 321 322 322 321 320 318 318 319 319 318 320 319 320 320 319 320 320 321 321 321 322 325 336 338
303 303 302 302 302 303 303 302 303 304 304 304 309 313 315 310 309 321 321 312 318 321 321 322 321 320 318 317 318 317 317 319 320 320 319 319 318 318 320 320 321 322 322 322 327
303 302 301 301 302 302 302 301 302 304 304 304 309 312 313 310 315 317 319 319 319 320 320 322 321 320 319 317 317 318 318 318 319 318 318 318 317 318 319 320 320 320 321 322 321
302 301 301 300 301 301 301 301 301 301 302 304 307 310 313 312 311 310 319 319 322 321 318 321 320 320 319 317 318 318 318 317 317 318 317 318 317 316 319 319 319 319 319 319 319
300 300 300 299 300 300 300 300 301 302 302 303 304 307 312 313 312 313 318 319 319 320 320 320 321 321 319 318 317 317 316 319 317 317 317 318 318 316 318 319 319 319 319 318 317
301 301 301 299 300 300 300 300 301 301 301 302 304 306 312 312 312 317 319 318 319 320 320 319 320 320 319 316 316 317 317 318 318 316 317 316 317 316 317 317 316 317 317 316 317
300 300 300 301 301 301 301 302 302 302 301 300 304 309 310 312 311 317 317 317 318 320 321 320 320 318 315 317 320 319 318 316 317 316 315 316 315 315 317 317 315 317 318 318 318
301 300 300 300 301 301 301 301 302 304 302 302 306 309 312 312 311 315 316 316 318 320 322 320 322 321 319 317 316 316 318 317 316 314 312 312 311 310 311 311 311 312 314 317 318
300 300 300 300 301 301 302 302 301 302 304 302 307 309 312 312 312 313 314 316 318 320 318 319 322 319 319 319 320 320 318 317 313 312 312 310 310 310 310 311 312 313 313 314 316
302 301 301 301 301 302 302 301 303 301 302 304 304 308 311 312 313 313 312 317 318 320 318 319 319 319 318 320 321 320 316 314 314 311 309 308 309 309 308 309 310 311 312 312 312
304 303 303 302 302 302 302 302 301 302 297 306 306 310 312 312 313 313 313 317 316 318 316 316 314 319 320 320 318 315 311 312 312 312 313 309 312 309 308 307 307 308 310 312 312
303 303 303 303 303 302 303 302 301 302 307 309 309 311 312 312 312 313 315 315 316 316 315 315 315 318 319 318 313 314 310 311 310 309 308 308 309 309 306 308 307 306 309 310 311
303 303 303 302 303 303 302 301 302 304 310 308 311 313 313 312 314 315 314 315 315 314 313 312 312 312 311 310 311 310 309 306 306 306 304 307 308 308 307 308 305 306 310 309 310
303 304 303 303 303 303 302 302 303 306 304 309 312 312 313 315 315 314 314 315 317 316 315 313 311 310 310 311 310 307 307 304 303 305 307 307 308 308 306 307 306 305 307 311 312
303 303 303 302 302 301 302 302 303 307 306 309 313 312 314 315 314 314 313 314 311 311 312 312 314 311 309 310 311 309 308 304 306 307 308 307 311 308 306 306 307 310 309 310 310
303 303 304 303 303 303 304 305 308 306 306 314 313 313 313 313 314 314 313 313 311 309 311 307 311 310 310 309 309 310 306 307 306 303 301 307 305 303 305 305 306 307 309 309 311
303 303 304 304 304 303 303 310 308 309 311 308 311 311 313 312 314 313 312 311 311 309 308 308 311 310 310 310 309 309 307 306 299 301 306 305 305 305 306 306 306 305 307 309 312
303 303 304 305 305 304 307 307 312 310 310 310 310 309 309 310 311 311 311 309 309 309 308 308 308 311 311 310 309 309 309 306 305 303 306 308 307 303 307 306 306 305 308 312 314
304 298 306 306 306 303 309 309 308 310 310 309 307 308 309 309 310 311 310 309 309 308 310 308 306 310 311 307 307 307 307 306 300 302 301 305 308 306 305 306 307 308 313 314 315
305 305 306 307 308 304 309 311 310 311 310 309 309 308 308 308 309 308 309 308 308 308 309 307 303 302 308 306 306 307 307 305 303 300 296 304 307 305 304 307 309 313 314 315 314
305 300 306 307 307 306 308 309 311 310 309 307 307 307 308 309 307 309 308 308 309 309 310 308 304 303 305 306 304 303 307 306 303 303 304 306 306 308 307 309 311 314 312 311 312
304 304 303 302 305 306 307 309 311 311 310 308 308 309 310 311 310 310 308 308 310 311 309 307 304 300 304 306 306 306 308 307 303 306 306 307 307 308 309 310 312 312 309 309 308
303 304 303 304 305 305 306 309 310 310 310 311 309 312 311 312 310 310 308 308 310 308 308 304 304 302 304 306 306 305 306 307 308 308 307 308 309 308 309 313 315 309 307 306 303
302 303 304 304 303 306 307 310 310 309 311 311 312 313 313 312 310 309 308 308 307 307 307 306 303 302 305 304 307 309 308 308 309 309 309 310 311 312 316 316 311 307 305 301 300

GFSSW_850_thetae_042.txt.gz
Theta_e
305 306 307 307 307 308 307 306 307 306 305 307 311 315 316 318 315 312 314 312 309 316 317 319 323 322 322 319 318 319 317 318 318 317 318 317 318 320 320 320 320 320 322 326 328
305 305 305 305 305 305 306 306 307 306 306 306 308 313 316 318 316 314 310 307 308 317 321 319 325 322 321 318 319 316 316 318 316 315 316 318 319 320 321 319 320 321 329 327 331
305 304 303 304 304 303 304 305 305 304 305 304 306 308 314 315 315 314 315 307 307 318 322 319 323 322 320 318 318 317 316 316 318 319 320 320 320 320 320 319 319 319 325 334 335
304 304 303 304 303 303 303 303 304 304 304 305 305 308 310 314 316 316 313 309 307 319 322 321 321 321 318 316 318 318 317 317 318 320 320 319 319 319 320 320 321 321 321 329 335
303 304 303 302 303 302 302 302 303 303 304 304 305 307 312 313 314 320 320 318 308 321 322 322 320 319 318 317 317 317 317 318 319 319 319 319 318 317 318 319 320 320 321 321 323
303 302 302 300 301 301 301 301 302 302 303 304 304 308 311 313 314 314 318 320 310 319 321 322 321 320 319 317 317 317 318 318 318 318 318 317 317 317 318 319 319 319 320 320 320
302 302 302 301 300 300 300 301 301 301 301 302 304 307 310 312 313 315 310 319 314 319 322 322 321 319 318 316 318 316 317 316 316 317 317 317 316 315 318 319 319 319 319 319 319
302 301 301 301 301 300 300 300 300 301 302 302 304 306 309 312 312 312 314 319 316 319 320 320 321 320 318 317 316 316 316 318 316 316 317 318 317 315 317 317 318 318 318 318 318
302 302 301 301 301 301 301 301 301 302 302 302 303 304 310 312 313 313 317 319 318 319 319 318 319 320 318 315 316 316 316 317 318 315 316 315 317 315 317 316 315 316 317 316 317
302 301 299 300 300 301 301 301 301 302 301 301 302 305 309 311 313 313 317 319 319 319 318 318 319 317 315 317 318 318 318 316 317 314 315 315 314 313 314 314 314 316 317 318 318
302 302 300 300 300 301 301 301 301 302 302 301 304 307 311 312 312 314 316 318 319 320 321 319 322 321 319 317 314 315 316 316 315 313 313 312 310 310 311 311 311 313 314 316 318
303 303 303 300 302 301 301 301 301 302 302 302 303 305 309 312 311 313 314 317 318 320 319 320 321 319 317 316 318 317 317 317 314 312 311 310 310 309 310 311 312 313 314 315 316
304 304 305 303 301 301 302 302 302 302 302 304 304 306 309 312 312 312 313 317 317 320 319 317 320 319 319 320 320 319 319 316 315 311 308 307 311 308 308 308 309 310 310 311 311
303 303 304 304 302 302 302 302 301 301 300 304 306 309 310 312 311 313 313 317 317 319 317 316 318 319 319 319 320 319 312 312 311 312 314 308 313 309 308 306 305 306 307 307 309
303 303 302 303 303 302 302 301 301 301 295 306 308 308 312 311 312 313 313 315 317 316 316 316 318 320 320 319 316 317 310 310 309 308 308 308 308 308 305 307 306 304 308 310 310
303 303 303 302 302 302 301 301 301 298 306 309 310 310 313 312 314 313 315 314 314 315 313 314 312 313 313 311 312 309 307 306 306 306 304 306 307 306 306 306 305 304 308 309 310
303 303 303 302 302 302 302 302 300 302 303 309 310 312 313 314 314 314 315 315 316 315 315 313 312 310 310 311 309 308 309 307 304 303 307 306 308 306 306 306 306 305 308 309 312
303 303 302 302 302 302 302 300 301 306 303 308 312 313 315 313 314 313 314 315 311 311 312 312 316 311 309 310 311 309 308 306 306 307 307 306 310 307 304 306 307 307 309 312 314
303 303 303 303 304 304 304 306 307 307 306 313 312 315 314 313 314 314 312 312 311 309 312 310 312 309 309 309 309 309 305 305 304 302 300 305 304 301 305 304 305 306 309 311 314
302 303 306 306 305 304 305 312 312 308 311 308 311 310 313 314 315 313 313 311 310 309 307 307 311 309 310 309 308 308 305 306 298 302 305 303 304 303 306 306 305 306 307 312 314
304 304 307 308 306 306 308 309 310 310 309 309 309 309 309 311 311 311 310 309 309 309 307 306 308 311 309 310 309 309 308 304 304 302 304 306 305 302 304 306 306 305 309 313 315
305 301 308 308 305 304 307 308 309 310 310 307 307 308 308 308 309 309 309 309 309 308 309 307 306 309 310 306 306 307 307 304 300 301 302 303 305 305 304 305 305 307 311 314 312
305 305 308 308 307 303 305 309 309 310 309 308 308 308 307 308 309 308 308 307 308 308 308 306 304 302 308 306 305 307 306 304 302 300 297 302 305 304 304 304 307 309 313 312 310
305 299 305 308 305 306 307 308 310 310 308 307 307 307 307 308 307 308 308 309 308 309 309 307 304 303 304 305 304 304 307 305 303 300 303 304 305 307 306 305 308 309 312 310 309
304 302 302 303 304 303 306 308 310 310 309 308 308 308 309 309 310 309 308 309 309 311 308 306 302 299 304 305 305 305 307 306 302 305 304 305 305 306 307 307 308 310 311 309 306
303 303 303 304 303 303 305 308 310 310 309 310 308 311 310 310 309 309 307 308 309 307 308 304 305 302 303 306 305 305 306 306 306 306 305 307 308 308 308 309 312 313 310 307 304
301 302 303 304 301 305 305 308 309 309 310 310 311 312 313 312 309 308 307 307 307 306 306 306 303 300 301 304 306 308 307 307 306 307 309 308 309 308 308 312 314 311 308 305 302

GFSSW_850_thetae_045.txt.gz
Theta_e
306 306 305 305 306 306 306 306 307 308 307 306 305 306 313 316 318 316 315 314 308 315 317 311 325 322 319 317 317 319 321 320 321 318 319 316 316 318 318 319 320 320 321 323 327
305 304 305 305 304 304 304 305 305 305 307 305 304 303 308 314 314 316 316 314 309 315 321 316 323 323 321 318 318 318 320 320 316 317 317 317 318 319 320 319 319 320 325 327 324
305 304 304 304 304 304 304 304 304 304 305 305 306 304 306 309 313 316 317 316 311 309 319 320 322 322 320 317 317 316 319 317 318 317 318 319 319 319 319 319 319 319 325 332 332
304 304 304 303 303 304 304 303 303 303 304 305 305 305 305 309 316 314 316 315 315 311 319 322 322 321 318 317 317 318 317 317 318 320 320 319 319 318 319 319 320 320 320 323 333
304 303 303 303 302 302 301 301 302 302 303 303 304 305 305 311 313 316 318 315 317 314 320 321 321 321 321 317 316 317 317 318 318 318 318 318 318 318 318 318 319 319 320 320 321
303 303 302 302 301 301 301 301 301 301 302 302 303 303 306 312 313 315 313 317 316 317 319 320 320 320 319 318 317 317 317 317 318 318 318 317 317 317 318 318 318 318 318 319 320
303 302 302 302 301 301 300 300 301 301 301 301 303 304 307 310 313 314 315 312 314 318 319 321 319 318 318 316 317 316 317 317 317 317 317 317 317 316 317 317 318 317 318 318 319
303 302 302 301 302 301 300 301 300 300 302 302 302 304 307 310 312 313 314 312 317 319 320 320 319 318 317 316 316 317 316 318 316 316 316 317 317 315 316 317 317 317 317 317 317
304 303 302 300 301 301 301 302 301 301 302 302 302 304 307 311 312 312 314 316 315 318 318 319 320 319 317 316 317 316 317 317 317 315 316 316 317 315 316 315 316 316 317 317 317
304 305 304 302 299 300 301 301 301 301 302 301 302 304 307 311 312 312 313 317 318 318 317 318 318 317 316 316 319 319 317 316 316 314 315 316 316 315 316 312 313 314 315 316 317
305 304 302 304 301 301 301 301 301 302 302 301 302 303 309 311 312 311 314 317 315 318 319 318 319 318 319 316 314 315 316 317 315 312 313 314 312 312 312 312 312 313 315 316 316
304 303 303 304 301 301 301 301 301 301 302 302 302 303 307 310 312 313 316 318 319 319 318 319 318 317 317 315 315 316 316 316 314 311 312 311 311 311 312 311 311 311 311 311 311
303 303 302 303 302 300 302 302 301 301 301 303 303 305 307 311 312 312 314 317 318 315 310 318 319 317 318 318 319 318 317 315 316 311 308 309 313 310 309 307 306 306 306 307 308
303 303 303 303 302 302 302 302 301 301 293 303 305 308 308 311 312 313 314 316 317 313 312 312 319 319 319 319 319 320 313 313 312 313 316 308 317 310 307 306 304 307 308 309 310
302 303 302 302 302 302 302 301 301 301 301 303 307 307 311 312 311 313 314 315 316 315 316 315 319 320 318 318 318 317 311 310 309 309 310 309 312 310 305 307 305 306 307 310 312
302 302 302 301 301 301 301 300 301 295 307 308 309 311 312 311 314 313 314 314 313 314 313 313 312 315 314 312 314 309 308 306 306 307 313 307 308 307 307 307 305 305 308 310 314
303 303 302 302 302 302 302 302 296 304 301 309 309 312 313 313 314 314 314 315 316 316 315 313 312 310 312 314 310 309 313 313 309 309 315 306 308 308 305 306 306 306 308 311 314
303 304 304 304 303 303 303 298 304 307 307 309 312 313 315 313 313 313 314 314 310 311 312 314 316 312 309 311 314 310 310 313 312 309 309 306 310 309 304 303 307 307 309 311 314
303 304 306 305 305 304 303 309 308 302 307 313 312 312 314 312 313 313 310 312 310 309 314 312 312 309 309 308 309 310 310 304 305 302 307 306 305 302 304 304 305 307 311 313 315
305 306 306 307 306 305 305 311 311 307 310 307 311 310 313 313 314 313 313 310 310 308 307 308 313 309 309 309 307 308 305 309 304 308 309 303 303 304 304 306 306 307 308 311 314
306 307 308 308 308 307 307 308 310 310 308 309 308 309 311 312 310 311 310 310 309 308 306 306 310 311 310 310 309 308 308 305 304 303 306 305 305 302 305 306 306 305 309 312 313
305 303 308 308 305 305 309 308 309 310 309 307 306 307 307 307 309 309 309 309 309 308 309 306 308 313 310 306 305 307 307 304 306 304 303 304 306 304 303 304 304 306 308 311 313
305 305 308 309 303 300 305 308 309 308 307 307 308 307 307 307 309 308 308 307 308 308 307 306 304 307 311 307 305 307 306 303 301 301 303 306 305 304 303 304 306 307 309 312 311
304 299 306 308 305 305 306 307 309 309 307 306 307 306 307 307 306 308 308 308 308 309 308 306 304 304 306 306 305 305 307 304 304 305 304 305 304 305 305 305 306 308 309 312 308
303 302 302 303 303 302 304 307 309 309 308 307 307 307 308 309 309 308 308 308 308 310 306 305 303 299 304 305 304 305 307 305 304 305 307 305 305 306 306 306 307 308 312 309 306
302 302 303 303 303 302 304 308 309 309 309 309 308 309 309 308 307 308 307 307 308 306 306 303 307 302 303 306 305 306 306 306 306 306 305 306 308 307 307 307 309 313 310 307 305
301 302 302 302 300 303 305 307 309 308 309 310 309 310 310 311 309 308 307 307 306 306 305 306 303 300 302 304 306 308 307 306 306 306 307 308 308 307 307 308 311 311 308 305 302

GFSSW_850_thetae_051.txt.gz
Theta_e
307 307 307 307 306 305 305 306 306 305 306 306 306 309 308 306 307 309 313 318 318 318 312 313 321 324 325 322 321 322 327 329 328 327 327 325 325 323 322 322 321 321 324 332 334
308 306 306 305 304 304 305 305 305 306 306 306 305 306 308 305 306 309 313 317 319 316 320 315 320 323 322 321 320 322 327 326 325 325 325 325 323 323 322 321 321 321 324 334 335
306 306 306 305 303 304 304 304 304 304 304 304 305 306 307 306 307 307 311 316 318 317 319 318 318 323 320 320 320 319 321 322 322 321 321 323 321 321 322 322 321 322 323 330 336
306 305 305 305 304 303 303 302 302 303 302 302 303 304 305 307 308 307 315 316 317 318 318 318 319 322 321 321 319 320 319 319 320 320 320 320 320 321 321 322 322 322 323 323 333
305 306 305 305 304 303 303 303 302 302 302 302 303 304 306 307 307 312 315 316 318 317 317 318 317 321 321 319 318 319 320 319 320 320 320 319 320 320 321 321 322 322 321 322 322
306 305 306 305 305 303 303 303 301 301 302 302 303 303 306 308 307 307 314 317 319 318 316 318 317 320 320 319 319 319 319 319 319 320 320 321 320 321 321 321 321 320 320 320 320
306 305 305 304 304 301 303 302 302 301 301 301 302 304 306 307 308 309 313 316 317 319 316 316 316 319 320 320 319 319 319 319 319 319 320 319 320 321 320 320 320 319 319 319 319
306 304 304 304 304 302 300 301 302 301 302 302 302 305 306 306 306 311 312 315 317 319 316 318 318 318 319 319 319 319 319 320 319 319 318 318 319 319 319 319 319 319 318 318 318
305 304 304 303 304 303 300 301 301 301 301 302 303 305 305 306 308 310 313 314 318 318 316 319 320 319 318 319 320 319 318 319 318 318 319 319 318 318 317 317 318 318 318 318 318
304 303 304 304 303 304 300 301 301 304 303 304 304 305 305 308 310 311 312 313 319 317 318 319 318 319 319 318 319 318 317 316 316 319 318 319 318 318 317 317 317 318 318 317 317
304 302 303 304 303 301 303 304 305 304 304 304 304 305 306 309 311 312 312 314 317 316 318 318 319 320 318 317 315 315 316 315 316 317 318 317 318 318 317 317 317 317 317 317 317
304 302 303 300 300 300 304 303 303 304 304 304 304 304 305 307 311 313 313 317 315 317 317 319 319 318 317 317 317 316 316 316 317 316 316 316 317 317 317 317 317 317 317 317 317
304 302 301 302 302 303 303 302 301 302 305 304 305 306 305 308 313 313 313 315 315 317 317 318 317 318 318 317 317 316 316 316 317 317 316 317 317 317 314 313 312 312 312 312 313
303 302 301 302 305 304 303 302 302 303 308 306 307 305 309 311 313 312 313 315 313 318 318 317 318 318 318 318 317 317 316 317 318 318 316 316 315 318 313 313 313 313 313 314 315
304 303 303 300 303 303 301 301 301 304 311 307 307 308 310 313 312 311 312 312 314 314 315 314 318 318 319 318 316 318 318 318 318 319 319 318 318 317 313 313 313 313 314 315 315
303 304 303 306 303 301 301 302 303 310 313 310 309 312 312 313 314 312 314 314 314 313 313 314 313 316 317 315 317 316 316 316 317 318 323 320 318 315 313 313 313 313 314 315 315
305 304 305 305 306 303 304 305 311 314 308 311 314 313 312 314 315 313 313 315 315 316 316 311 310 313 313 315 314 316 319 323 324 324 322 314 316 317 313 313 313 314 314 315 316
306 306 306 305 305 305 306 309 315 312 313 311 314 313 315 314 314 314 316 317 316 317 318 318 317 309 311 315 316 318 320 323 322 322 321 311 315 315 312 312 312 313 314 314 316
305 307 306 307 306 306 309 313 314 313 311 314 313 314 315 314 315 314 316 316 315 316 319 318 317 311 311 313 315 315 320 312 315 312 315 313 312 311 310 310 312 314 315 316 317
305 306 308 307 307 307 313 313 313 310 312 312 314 313 315 315 316 316 316 314 314 313 313 315 316 312 311 312 311 317 315 319 319 322 318 315 313 313 310 311 313 314 314 315 317
305 310 309 308 309 312 312 313 312 311 311 312 313 313 314 314 315 315 316 314 313 312 312 315 316 314 312 315 316 313 315 314 315 314 317 314 311 310 311 312 312 311 313 315 317
307 315 308 308 315 315 315 313 310 312 310 311 312 313 314 314 315 315 316 315 312 312 314 313 315 316 315 311 311 313 315 315 318 317 313 314 313 309 312 312 311 311 314 315 316
307 309 308 308 317 315 312 312 312 311 311 311 311 311 312 313 314 313 313 311 311 312 313 313 315 315 314 313 311 313 313 313 311 313 317 316 313 310 311 311 310 313 315 315 315
307 312 311 311 310 314 313 312 312 311 310 310 310 311 312 312 312 313 313 311 310 312 308 310 313 315 317 315 314 314 313 312 313 317 314 312 312 311 311 311 314 314 314 316 314
306 306 304 314 313 312 312 312 312 312 311 310 310 311 312 313 312 312 312 312 311 309 310 312 314 310 311 311 312 312 312 312 312 313 317 313 312 313 312 312 314 313 315 315 313
304 303 304 307 308 310 310 313 312 312 312 311 311 311 311 311 311 312 312 312 313 312 311 311 313 310 312 310 310 311 311 312 311 311 311 312 312 312 311 313 313 315 315 314 310
300 302 303 307 310 311 313 312 312 311 312 311 311 312 311 312 311 311 310 311 311 312 312 312 312 312 314 309 310 313 312 311 312 311 311 312 312 312 313 313 313 314 314 311 308

GFSSW_850_thetae_054.txt.gz
Theta_e
307 309 308 307 307 306 305 305 306 306 306 306 307 306 307 310 308 306 310 316 318 317 312 315 316 324 326 325 323 324 327 329 329 329 328 327 325 324 323 323 322 322 330 334 343
307 307 307 307 307 306 305 304 306 306 305 305 306 306 306 309 307 308 309 313 318 319 315 315 318 322 326 324 323 322 325 327 326 326 325 325 325 324 322 322 322 321 325 332 334
308 307 306 306 306 306 305 304 304 305 304 304 304 305 305 308 308 308 308 312 315 319 318 316 319 323 325 322 321 321 323 324 325 323 321 324 324 323 322 321 321 321 323 332 336
307 307 307 306 306 305 305 303 303 304 304 303 304 304 305 307 309 312 308 311 315 319 319 319 315 321 322 322 321 320 320 321 322 320 320 321 322 322 321 322 322 323 324 328 333
306 307 306 306 305 306 305 303 304 302 302 302 302 303 304 307 307 308 311 310 313 318 318 319 315 320 321 320 320 320 319 319 319 320 320 320 320 319 321 321 322 323 322 322 323
308 308 305 304 304 305 303 303 303 303 302 302 302 303 305 308 307 308 310 316 317 317 318 319 316 319 320 319 319 319 319 319 319 320 320 319 318 319 320 321 322 321 321 320 321
308 305 304 304 304 304 300 301 302 302 301 301 302 303 305 306 307 310 308 315 317 318 318 317 316 319 320 320 319 319 319 319 319 320 320 319 320 319 320 321 321 321 321 320 320
306 304 304 305 304 304 300 300 302 301 302 301 302 305 305 305 306 308 310 313 317 317 317 316 316 317 319 319 319 319 319 320 319 319 319 319 320 319 320 321 321 320 320 319 319
305 304 302 304 303 304 299 301 301 301 301 302 303 305 305 306 307 307 308 313 316 318 317 316 317 318 319 319 320 319 320 320 319 318 319 318 319 318 319 320 320 319 319 319 318
305 304 302 304 304 302 301 301 304 304 303 304 305 305 305 307 307 307 307 314 317 317 316 317 318 319 318 320 322 320 319 318 318 318 318 319 318 317 318 318 317 318 318 318 318
305 304 302 300 301 301 304 305 305 305 305 304 305 305 306 306 308 308 310 313 317 317 319 317 318 319 319 318 316 316 317 317 317 318 317 317 317 317 317 317 317 317 317 317 317
305 304 302 301 301 303 304 304 303 304 305 304 304 304 305 305 309 310 312 315 318 317 317 318 319 317 318 317 317 316 316 316 316 317 317 316 316 315 316 316 317 317 317 317 317
304 303 302 302 303 304 304 304 304 304 306 306 306 307 306 307 309 312 313 315 316 316 317 317 317 316 316 317 317 316 316 315 316 316 316 316 315 315 315 315 315 313 313 314 314
303 305 304 304 305 303 301 301 303 302 308 307 307 307 307 303 306 311 312 315 315 316 317 317 317 318 318 319 317 316 315 316 318 317 316 315 310 314 314 312 312 313 312 313 314
304 304 305 303 306 305 301 301 302 306 311 308 306 308 308 309 310 310 312 314 316 316 316 316 318 318 319 319 317 317 317 318 318 318 318 316 316 316 311 312 312 313 314 315 315
304 306 306 306 305 303 301 303 305 309 313 309 308 312 312 313 312 311 314 314 314 314 311 313 313 316 318 317 317 318 316 316 317 318 321 318 315 313 312 312 311 313 314 315 315
304 307 307 306 306 305 304 305 309 313 309 312 313 310 313 313 312 312 315 316 316 316 316 310 310 312 314 317 317 316 317 317 320 319 320 315 316 314 311 311 311 312 314 315 316
304 307 307 307 306 305 306 309 312 311 312 312 314 314 315 314 314 312 314 317 314 316 317 317 314 311 312 316 316 316 318 318 319 321 317 311 314 312 310 312 313 314 314 315 316
304 308 309 308 307 306 307 312 312 312 309 314 314 315 315 315 314 315 317 316 316 316 317 318 315 310 312 314 315 316 318 311 314 311 314 311 312 311 309 310 312 313 314 315 317
305 308 309 307 308 309 311 313 313 311 313 312 314 314 314 316 316 316 317 315 314 313 312 315 315 311 312 313 312 315 316 318 312 315 317 312 311 310 308 308 310 313 315 316 317
308 311 311 308 310 311 310 311 313 312 311 312 314 313 313 315 315 316 316 314 314 312 313 315 316 315 313 314 314 314 317 316 314 312 316 313 310 309 308 308 310 311 314 315 317
310 314 310 308 314 316 315 312 312 312 311 312 313 313 314 314 314 315 316 314 312 312 314 313 314 316 315 311 311 312 315 314 318 319 310 310 311 308 308 309 311 311 314 315 317
307 309 311 309 319 316 312 312 312 312 311 311 312 312 312 314 314 313 314 312 312 313 313 313 314 314 314 312 311 313 313 313 310 311 312 313 310 309 309 310 310 310 315 315 316
307 311 308 312 312 313 313 313 313 311 311 310 311 311 312 312 312 313 313 312 311 311 309 311 313 313 312 314 313 311 313 312 309 308 312 311 309 309 309 309 310 314 314 315 315
306 306 304 309 313 310 312 313 313 313 311 310 311 312 313 313 312 313 313 311 312 309 311 312 309 304 311 312 311 312 313 312 307 311 309 313 311 309 308 308 313 314 314 315 314
303 302 303 305 308 310 310 314 313 312 312 312 311 311 311 312 312 312 312 312 313 310 311 311 309 309 311 310 310 309 310 311 311 311 311 311 311 310 311 312 313 315 316 314 312
297 301 303 305 309 310 310 311 313 312 312 311 312 311 311 313 312 311 311 311 311 311 311 311 309 309 311 309 309 310 310 310 311 311 310 311 310 311 312 312 313 313 315 313 310

GFSSW_850_thetae_057.txt.gz
Theta_e
308 310 308 309 308 307 307 306 305 305 306 306 306 306 306 307 310 310 308 313 317 318 317 316 314 320 326 326 325 325 327 327 328 329 328 326 325 322 322 322 323 332 337 340 341
309 308 308 309 308 307 307 306 305 304 305 305 305 305 305 306 309 310 309 308 314 318 314 315 312 320 325 326 324 325 327 324 323 325 325 325 325 324 322 321 324 333 334 334 337
308 307 308 308 306 306 307 306 305 304 304 305 304 304 304 306 308 309 309 307 311 317 317 314 310 322 324 324 322 321 325 324 323 323 324 323 325 325 320 320 321 330 328 327 330
309 308 308 308 305 305 305 306 304 303 304 304 302 302 304 306 310 309 312 312 310 317 318 316 317 322 322 322 322 320 321 323 323 323 323 321 321 323 321 321 322 321 326 329 330
308 307 306 305 305 304 305 304 303 304 303 302 302 302 303 305 307 308 310 313 313 316 317 319 318 321 321 321 321 321 319 320 320 319 321 320 319 318 319 321 322 325 329 329 330
306 307 305 304 305 304 304 300 303 303 303 301 302 302 303 305 305 305 308 312 313 315 317 319 316 320 320 320 319 320 320 319 318 319 320 318 318 319 319 320 321 321 321 321 322
307 306 302 305 304 304 301 299 302 302 301 300 301 303 304 304 306 308 308 309 313 315 318 318 315 319 319 319 318 318 320 319 318 319 319 319 319 317 319 319 320 321 321 320 320
307 305 303 304 303 303 299 301 301 301 301 302 301 303 304 304 304 308 309 309 314 315 316 318 316 318 319 319 318 318 318 320 317 318 319 318 319 317 319 319 320 320 320 320 319
306 305 302 303 303 301 300 300 302 302 300 302 302 304 305 306 305 306 306 308 315 316 316 316 317 317 318 318 318 319 319 319 318 318 318 318 318 317 318 318 320 320 320 319 319
306 304 301 300 300 301 302 303 304 303 303 304 305 304 304 306 307 306 307 308 314 317 317 317 317 317 318 317 321 319 317 319 318 317 317 318 317 316 316 317 319 320 319 318 318
304 303 302 301 300 301 303 304 304 305 305 303 304 304 305 305 308 308 306 308 314 317 317 316 316 318 318 317 316 317 317 318 317 316 318 318 317 317 317 316 316 316 317 317 317
303 305 302 302 303 303 303 304 303 304 304 304 305 305 306 306 308 307 307 312 315 316 316 317 316 315 316 317 318 315 316 315 315 316 316 317 316 316 315 314 316 316 316 317 316
303 304 305 303 303 302 302 302 304 304 304 306 306 306 305 307 307 308 309 313 313 315 316 316 315 316 317 317 318 314 313 314 315 315 314 315 314 313 313 315 316 315 315 315 315
303 305 307 305 306 305 303 301 302 303 305 308 307 307 307 306 309 309 312 313 315 317 316 317 315 315 315 317 315 315 313 315 316 315 315 314 312 310 312 311 311 313 313 313 313
301 305 306 307 303 305 302 301 303 305 307 308 307 306 307 306 310 311 311 313 316 314 314 316 316 317 318 317 317 316 315 316 315 315 316 315 313 312 310 311 310 310 312 313 315
302 306 306 306 306 305 305 302 305 303 311 309 305 306 307 306 311 309 313 314 314 314 312 313 312 315 318 317 317 315 315 314 314 315 316 316 313 312 311 313 309 310 314 315 315
303 306 307 306 307 306 306 305 306 307 308 313 313 313 313 313 312 314 315 315 315 316 314 313 311 311 314 317 316 315 315 312 313 312 315 312 314 313 311 309 309 311 314 314 315
304 306 308 307 307 306 307 306 306 311 309 312 314 314 314 313 312 313 315 315 314 312 310 313 315 314 312 315 318 316 314 312 314 314 315 310 316 313 308 310 312 313 314 315 316
305 307 309 307 307 308 308 304 305 306 307 313 314 315 315 315 313 315 315 316 315 314 314 314 313 310 312 314 315 316 313 311 311 310 308 311 310 309 309 310 311 312 314 315 316
307 309 310 308 308 309 307 310 311 310 312 312 314 313 313 316 315 315 315 314 316 314 313 314 314 312 313 313 313 315 314 315 307 313 313 311 310 311 309 310 310 311 313 314 317
309 310 310 307 310 309 308 305 311 312 311 311 312 313 313 315 314 315 314 313 312 311 310 312 312 314 313 314 317 315 316 315 313 308 312 311 309 307 309 308 309 312 314 315 316
309 304 310 308 310 308 303 310 311 311 311 311 311 312 312 314 313 314 314 312 311 311 315 313 312 315 314 312 312 312 315 314 314 316 307 307 308 305 305 306 310 311 314 315 316
307 308 310 310 308 307 311 312 312 311 310 310 311 311 311 312 313 312 312 311 311 311 312 311 312 312 313 311 310 312 313 314 310 310 312 313 309 306 306 308 309 310 313 315 316
306 302 306 310 310 310 311 312 312 310 310 310 310 310 311 311 311 312 311 311 311 309 309 311 310 310 312 313 311 311 313 311 309 306 310 309 309 308 307 308 308 309 314 315 315
303 303 303 300 307 306 308 311 312 312 310 310 310 310 310 311 311 312 311 311 311 309 310 309 305 300 309 312 309 311 312 311 309 310 308 310 308 306 306 306 308 312 314 315 314
301 300 301 302 304 306 308 312 311 312 310 311 310 309 309 311 310 311 311 310 311 308 310 308 305 304 308 309 309 307 309 310 310 309 309 309 310 308 308 308 312 313 314 315 314
294 298 301 302 305 307 308 309 310 310 311 311 310 310 311 311 310 310 310 309 309 308 308 309 304 302 304 308 308 307 308 309 309 310 310 310 310 309 310 310 311 315 315 314 313

GFSSW_850_thetae_060.txt.gz
Theta_e
307 307 308 309 309 309 308 307 307 306 304 305 306 307 306 306 306 310 311 307 314 318 318 316 316 319 324 325 324 324 325 325 325 326 326 325 323 325 321 322 324 330 337 340 342
308 308 308 308 309 308 306 306 307 307 305 304 305 306 305 305 306 307 310 311 311 318 318 317 316 317 324 325 325 324 325 324 322 323 325 325 323 323 321 324 335 337 339 343 343
307 308 309 308 307 306 305 304 306 306 305 304 305 305 304 304 306 307 307 310 310 315 318 317 315 315 323 324 323 324 325 323 323 323 325 325 325 324 322 319 331 336 339 341 340
307 310 308 305 306 306 304 305 306 305 303 304 303 303 303 305 307 307 308 312 311 312 317 315 316 319 321 322 323 322 323 324 324 323 324 324 323 322 322 320 322 322 324 330 328
307 307 305 305 306 305 304 302 303 304 304 302 301 302 303 304 305 309 308 311 313 311 318 316 315 320 319 321 323 320 321 322 323 323 324 323 322 322 321 322 322 328 332 329 328
307 306 303 304 304 303 300 300 302 302 302 301 302 302 303 304 303 304 307 309 314 309 317 317 315 320 320 320 322 322 320 320 320 320 324 322 322 321 320 319 328 331 330 330 330
307 305 303 303 303 301 298 301 301 301 300 300 301 302 303 302 305 305 305 309 313 313 317 317 316 318 319 319 320 319 320 318 319 318 318 321 321 319 320 318 320 321 321 321 320
306 305 301 303 301 299 300 300 301 301 300 302 301 302 303 303 303 304 308 309 312 313 316 317 315 318 318 318 318 317 319 321 318 318 319 317 318 317 318 318 319 320 320 320 320
305 305 301 300 300 301 301 303 302 300 301 302 303 303 304 306 305 305 307 308 312 312 314 318 317 317 318 316 317 318 320 320 319 317 318 316 317 316 318 317 318 319 320 319 319
305 305 301 301 299 300 302 304 303 303 304 304 305 304 305 305 306 306 306 307 308 312 313 318 316 316 314 317 320 320 319 319 319 317 318 317 316 316 317 315 317 318 319 320 319
303 304 302 302 302 301 302 303 302 303 304 304 304 304 304 305 307 307 307 306 309 314 317 316 316 317 317 315 315 317 317 319 317 316 318 318 317 316 317 316 315 316 318 319 317
301 304 305 302 302 302 301 302 303 303 303 305 305 305 306 307 308 307 306 308 313 318 316 317 318 315 315 316 316 317 316 317 316 316 316 316 317 315 315 315 316 316 317 318 316
297 305 306 303 303 302 301 302 302 303 304 306 306 305 306 307 308 307 307 309 313 316 315 316 315 315 317 317 318 315 316 314 315 315 314 314 314 314 313 314 317 316 316 316 315
296 305 307 305 305 304 304 301 302 304 300 309 307 307 307 305 309 307 306 312 311 316 316 316 314 316 316 317 316 316 312 313 314 315 318 313 315 309 311 311 310 314 314 315 314
298 305 307 307 305 303 303 301 303 305 310 309 307 306 306 307 308 311 311 313 314 315 314 317 315 315 316 316 314 314 313 314 314 314 313 314 312 310 309 310 310 309 312 313 313
301 305 307 307 306 306 305 304 304 301 312 308 306 308 309 308 310 309 311 314 313 314 312 313 312 314 316 316 316 314 314 312 313 313 315 314 312 310 309 310 310 308 311 312 314
303 306 307 306 307 306 306 305 301 308 307 312 314 311 312 312 312 309 314 315 315 315 315 312 312 312 313 316 315 315 313 314 317 316 314 312 313 313 310 309 308 308 312 314 315
304 307 308 307 307 306 307 301 305 309 308 311 314 313 314 313 312 314 314 315 312 311 313 314 316 315 312 314 316 316 312 310 314 314 313 310 314 314 308 308 311 312 313 314 315
305 308 309 307 308 307 307 301 304 303 305 311 313 315 315 314 312 314 313 315 313 311 313 314 313 311 312 314 315 315 317 311 309 308 306 310 310 308 309 308 309 311 313 314 315
307 310 309 307 309 309 303 308 307 309 310 312 313 312 313 315 315 315 316 314 315 313 311 311 313 312 313 313 313 314 312 315 306 310 312 310 309 310 310 309 309 310 312 314 315
309 310 309 307 309 307 303 304 310 311 311 311 312 312 313 313 313 315 313 314 312 313 311 310 310 313 314 316 316 316 317 314 311 308 311 311 308 305 308 310 311 311 313 314 315
307 304 309 308 309 304 301 308 310 311 310 310 310 311 312 312 312 313 313 312 310 310 312 311 310 314 314 313 313 312 315 315 315 310 304 305 307 306 304 307 310 312 313 313 315
307 307 310 310 307 303 309 311 311 311 309 309 310 310 310 311 311 311 311 310 311 310 311 311 308 307 314 311 312 314 313 312 310 308 304 307 309 306 304 307 311 312 313 314 315
305 299 304 308 308 307 308 311 311 310 310 309 309 309 310 311 310 311 311 310 310 309 310 311 309 309 310 310 309 308 313 312 311 310 313 309 311 308 307 307 307 311 313 314 315
302 301 301 299 305 303 306 309 312 312 309 309 309 309 310 310 311 311 310 310 310 309 309 307 304 301 308 311 309 310 312 311 311 314 314 314 309 307 307 308 308 309 311 313 315
300 299 300 300 302 304 307 309 311 311 310 310 309 309 308 310 309 310 310 309 310 308 309 305 304 303 308 309 309 307 308 311 311 310 309 309 309 307 307 307 308 309 313 313 314
296 299 300 300 299 306 306 307 309 308 311 310 309 310 310 310 309 309 310 309 308 307 308 307 303 300 302 307 306 306 307 307 309 309 310 310 311 308 307 306 309 310 312 314 314

GFSSW_850_thetae_063.txt.gz
Theta_e
309 308 309 310 309 308 308 308 306 306 308 307 305 306 307 306 306 306 309 312 312 317 316 316 317 319 325 324 324 324 325 324 324 325 325 324 323 324 323 320 327 332 339 338 342
308 308 310 310 307 306 307 305 305 304 306 308 305 305 306 305 305 306 306 310 310 315 317 318 314 318 322 324 324 324 325 324 322 323 325 324 325 324 323 322 333 339 340 341 342
308 308 308 306 306 306 306 304 304 305 306 305 305 305 305 303 304 303 304 307 311 312 317 318 316 316 320 323 323 324 325 322 322 322 324 325 325 322 321 320 321 335 342 341 341
308 307 306 308 305 305 303 302 302 304 304 304 304 303 302 303 305 310 305 305 310 310 313 317 317 316 319 321 323 325 323 323 323 324 323 324 324 323 321 321 321 321 339 338 341
307 306 304 305 305 302 299 300 302 303 303 301 301 301 302 304 304 308 308 311 311 312 312 316 316 316 318 320 321 320 322 323 323 323 323 323 323 322 322 322 321 321 333 335 337
307 306 304 306 303 299 300 301 302 301 302 301 301 301 302 303 302 302 307 307 309 311 312 316 316 315 319 321 321 321 320 323 323 322 324 322 321 321 322 322 319 324 333 330 328
306 306 304 303 301 298 300 300 300 300 300 300 301 302 302 302 303 305 305 306 309 312 312 315 315 316 319 318 321 321 320 320 321 321 322 322 322 321 322 320 319 322 333 332 332
305 305 304 301 300 299 300 303 302 303 301 302 302 302 302 304 304 304 305 306 310 313 312 316 316 316 317 318 319 317 319 321 319 319 319 322 324 321 320 320 319 318 319 318 319
304 305 305 301 299 300 301 303 301 301 301 302 303 303 303 305 305 305 304 308 311 313 310 313 316 317 317 315 316 317 319 319 319 318 319 320 318 319 320 321 319 318 318 319 319
303 304 305 301 301 300 300 302 303 304 303 304 305 303 304 305 306 305 306 306 310 312 313 317 315 314 313 315 319 318 317 318 319 318 317 319 316 316 317 319 319 319 319 319 319
300 304 305 302 302 303 302 303 302 303 303 304 303 304 304 305 306 306 306 305 309 313 314 316 315 317 315 314 315 315 316 319 317 317 318 318 317 316 314 314 314 315 316 318 319
295 300 306 302 301 301 300 301 302 303 303 306 306 305 305 307 308 307 305 308 309 312 312 315 315 314 315 315 315 315 316 317 316 315 318 317 317 316 316 314 316 315 316 316 317
295 300 306 304 303 301 300 301 302 303 304 306 306 305 306 307 308 307 308 307 310 312 312 313 315 314 316 317 316 314 315 314 317 314 313 315 315 315 315 314 316 316 316 316 316
296 302 306 306 304 304 302 300 302 304 297 309 307 307 307 306 309 306 309 310 310 313 315 316 315 316 316 317 315 316 313 313 314 316 316 314 318 311 312 312 312 316 316 316 315
298 303 307 307 305 303 303 301 302 305 304 308 307 306 306 308 308 309 309 312 312 315 315 315 315 315 316 316 313 315 311 313 313 314 314 313 314 313 308 310 312 312 314 315 315
300 305 307 306 306 305 305 304 303 299 307 309 308 309 310 310 309 308 311 313 313 314 313 313 312 313 316 315 314 312 312 311 312 313 314 313 313 312 309 309 309 311 313 313 313
302 307 307 306 306 306 305 304 302 305 307 312 314 311 311 311 313 312 312 314 314 315 317 314 313 312 313 316 315 313 311 313 317 316 315 311 312 315 310 307 307 308 309 312 313
304 307 307 307 307 306 306 299 305 309 310 311 313 312 313 312 313 314 314 315 312 313 313 316 316 313 311 314 315 315 311 310 315 315 314 310 314 313 310 309 310 311 310 311 314
304 307 309 307 308 307 306 300 304 301 303 310 312 314 313 312 313 312 313 314 312 310 312 312 313 311 313 313 313 315 312 308 307 305 307 310 309 307 306 307 307 308 310 313 315
307 309 308 307 308 308 300 305 306 307 309 311 312 310 313 313 314 313 314 313 314 312 310 310 314 312 313 313 313 314 312 314 304 308 311 309 309 310 309 308 307 308 310 313 314
308 310 309 307 309 307 299 299 309 310 310 310 311 312 312 313 312 313 313 313 313 312 309 308 309 312 314 315 316 316 316 313 310 306 310 311 309 304 306 306 307 309 311 313 314
307 304 309 309 308 302 300 307 310 310 310 309 309 310 311 311 312 312 312 311 311 312 311 309 309 312 315 311 313 315 316 311 309 309 303 303 308 305 302 304 309 310 312 313 314
307 307 309 310 304 301 307 310 310 310 309 309 309 309 309 310 312 311 310 310 310 309 310 309 306 313 314 312 311 316 314 312 308 305 303 307 310 305 304 307 310 311 312 314 314
305 299 305 307 305 306 306 310 310 310 309 308 308 309 309 310 308 310 310 309 309 309 310 310 308 306 308 309 309 314 315 312 310 310 314 308 310 309 306 306 308 311 313 313 313
302 299 300 298 305 303 305 308 311 311 309 308 309 308 309 310 310 311 310 309 309 309 308 308 307 301 306 311 307 308 310 313 309 314 313 315 311 311 308 306 308 311 312 313 314
298 298 299 300 301 302 305 308 311 309 309 309 308 309 308 309 308 309 309 308 310 307 308 304 303 301 307 308 308 306 307 311 313 313 312 311 310 308 308 307 308 310 311 311 313
297 299 300 299 297 303 302 303 308 307 310 309 309 309 309 309 308 308 309 308 307 306 307 306 302 300 302 304 305 306 306 307 310 309 311 310 312 308 307 305 307 309 308 311 313

GFSSW_850_thetae_066.txt.gz
Theta_e
308 308 309 309 307 307 308 307 307 305 305 304 307 307 306 307 307 306 306 309 312 317 316 316 320 321 322 324 324 324 325 324 323 325 324 324 324 324 322 322 326 332 338 339 342
308 309 308 306 307 307 306 305 304 304 305 305 306 308 306 307 306 305 304 304 311 313 316 317 316 319 321 323 323 324 325 323 321 323 324 325 324 323 322 321 323 323 340 341 341
308 309 307 307 307 305 301 300 301 304 304 306 306 306 306 305 302 301 303 303 307 313 315 317 316 318 318 322 322 323 325 322 322 323 324 324 324 323 321 320 321 321 326 341 342
307 310 306 306 305 300 300 301 303 303 303 304 305 304 304 302 300 308 309 304 308 312 314 317 317 316 317 320 322 323 323 323 323 324 323 323 324 323 322 322 322 319 319 339 341
307 309 305 306 304 298 300 301 301 302 303 302 301 302 302 303 302 307 308 309 311 312 312 315 316 316 316 318 321 321 321 322 323 323 323 323 322 322 322 322 323 321 323 334 334
306 307 306 304 302 298 300 300 300 300 300 300 301 302 301 301 301 301 307 307 309 310 311 311 316 316 316 319 320 321 321 322 323 323 323 322 321 320 321 322 323 321 322 334 334
306 305 306 304 302 298 299 301 302 303 300 301 300 301 302 301 302 305 303 306 308 309 311 312 315 314 317 318 320 319 323 323 323 323 324 321 322 320 320 321 321 322 319 333 332
302 305 305 305 304 300 300 302 302 300 300 301 302 301 301 303 305 302 304 306 309 309 311 312 315 315 317 318 319 319 320 324 321 322 321 320 323 320 321 320 321 321 321 318 330
302 304 305 305 302 301 300 302 302 302 302 303 304 303 303 305 305 304 304 305 310 310 313 313 315 315 316 315 317 319 319 318 321 321 321 319 320 319 320 321 321 320 320 320 318
303 301 305 304 302 304 301 301 303 303 303 303 304 303 304 304 305 305 304 308 309 312 312 311 312 314 313 316 318 317 316 317 319 319 321 319 317 319 320 320 320 319 320 321 319
301 297 303 304 301 301 301 303 302 303 303 304 304 304 304 306 305 305 305 305 309 311 310 307 314 316 315 314 313 313 315 317 316 318 320 321 319 317 318 319 318 319 319 320 321
297 296 303 305 302 301 300 301 302 303 304 306 305 305 305 306 306 306 306 307 310 312 310 309 314 312 313 313 314 314 314 316 316 316 318 316 318 316 314 317 318 318 319 319 317
297 298 304 306 303 302 301 302 302 303 303 306 307 306 306 307 308 306 308 308 309 311 310 313 312 313 316 314 315 313 314 314 315 314 313 315 317 316 315 317 315 315 317 316 315
297 300 305 306 304 304 302 301 301 304 301 308 307 306 307 306 308 308 309 309 310 313 312 313 314 315 316 316 314 316 312 313 314 315 317 314 318 313 315 316 313 314 315 316 316
298 302 306 306 305 303 303 301 301 304 303 309 308 307 307 308 308 309 310 310 310 313 311 314 316 315 317 316 314 314 311 312 313 312 313 313 315 314 309 315 316 315 314 316 316
299 304 306 306 306 305 304 304 303 298 303 308 309 309 309 310 309 309 311 312 311 314 313 313 312 313 315 314 313 310 311 310 310 311 310 313 314 313 309 311 310 310 313 316 316
301 306 307 307 306 306 305 304 299 304 307 308 313 311 312 312 312 312 313 312 311 315 315 315 314 313 312 314 314 311 311 310 312 311 311 310 312 315 311 307 307 308 310 312 314
302 307 307 307 306 306 306 298 304 306 311 311 313 312 314 313 313 312 314 314 311 312 313 314 317 313 311 313 315 313 311 310 314 314 312 309 313 313 309 310 310 310 311 311 311
303 307 308 306 308 306 305 297 302 299 302 310 313 314 313 312 313 312 313 313 311 310 313 310 314 311 313 312 312 314 314 307 305 304 305 309 308 307 306 307 307 307 308 310 310
306 308 308 307 308 306 300 304 306 305 308 310 310 310 314 312 312 311 312 312 313 311 309 309 313 312 313 312 312 313 310 313 304 309 311 308 308 310 308 307 306 307 308 310 311
308 309 309 307 307 306 300 298 308 309 310 309 310 311 310 310 311 312 312 313 312 311 307 307 308 313 312 313 313 315 314 312 309 306 309 310 310 304 306 304 303 305 309 311 313
306 303 308 309 306 301 300 305 309 309 310 309 308 309 310 310 312 311 312 311 312 310 310 308 308 313 314 311 311 313 314 310 310 308 302 303 308 305 303 302 303 307 309 311 314
306 307 308 308 302 299 305 309 309 309 308 308 309 309 309 309 312 310 310 309 309 309 310 308 306 314 313 311 311 315 315 314 307 304 303 310 311 305 304 305 308 309 311 312 313
304 299 305 306 304 305 306 309 309 309 308 308 308 308 309 309 308 310 310 309 308 309 310 309 306 306 308 308 309 314 313 314 313 316 315 309 309 309 308 306 307 310 311 312 313
300 298 298 298 302 302 304 306 310 310 308 307 307 308 308 309 310 310 309 309 308 310 307 308 306 299 306 308 307 308 310 312 313 315 316 314 313 312 310 307 307 310 311 312 312
298 298 299 298 300 303 303 306 309 307 308 309 308 308 308 309 308 309 308 308 309 307 307 303 302 300 307 307 308 306 307 309 312 313 312 312 312 310 309 309 307 308 310 311 312
298 298 300 297 296 302 299 299 306 303 308 308 308 309 308 308 308 307 308 307 307 306 306 305 301 300 302 304 304 306 306 306 308 309 312 313 313 309 308 307 307 309 309 311 312

GFSSW_850_thetae_069.txt.gz
Theta_e
309 310 310 308 306 308 305 302 301 302 305 305 305 304 307 308 307 308 306 305 310 314 315 316 318 318 321 324 324 323 325 326 324 324 324 324 324 323 321 323 326 329 336 338 343
309 310 310 306 306 305 300 300 300 302 302 305 305 306 307 307 307 307 306 304 307 312 316 316 317 317 320 323 324 324 325 324 321 323 325 325 324 323 322 321 321 320 334 340 343
308 309 308 304 308 300 300 301 303 303 302 304 305 306 306 307 305 304 306 304 304 311 314 316 316 318 318 322 322 323 325 321 321 324 324 324 324 323 322 321 321 319 320 340 342
307 308 308 304 306 299 300 302 304 301 302 302 303 305 305 304 301 307 308 306 303 311 313 316 316 316 317 321 321 324 323 322 324 324 323 323 323 322 322 322 322 321 320 334 339
305 307 307 305 304 299 299 300 301 300 300 300 300 302 303 302 301 306 307 309 308 312 313 315 316 315 315 318 321 322 323 322 323 323 323 323 322 322 321 321 321 322 322 328 338
304 305 306 306 304 301 298 299 303 303 300 300 301 302 301 301 301 301 306 307 309 311 312 315 316 314 315 318 320 320 321 322 323 323 323 323 321 321 320 321 321 322 322 325 335
307 303 305 305 305 304 299 300 304 302 302 301 301 301 301 301 301 303 304 307 306 309 310 313 315 315 315 318 319 319 321 321 323 323 323 322 323 322 320 321 321 321 322 320 325
307 304 304 305 305 304 301 300 302 302 301 302 302 301 301 303 304 302 303 304 306 308 309 311 314 315 316 317 319 319 320 322 323 323 321 322 324 320 321 321 321 321 322 321 320
306 304 301 305 304 303 303 299 302 303 303 303 304 303 303 304 304 304 304 304 306 308 309 311 312 315 315 317 318 320 320 321 322 322 321 321 323 320 320 321 321 321 322 322 320
305 303 300 304 302 301 303 302 302 303 303 303 304 303 304 304 305 306 304 305 308 309 312 312 310 315 313 317 318 320 318 318 321 323 321 321 320 320 320 320 320 321 322 322 321
303 300 298 305 303 301 300 302 302 302 304 304 305 303 304 305 305 305 305 307 308 311 312 306 308 314 315 313 313 314 317 318 318 319 322 321 319 320 319 320 320 322 322 321 322
300 298 300 306 305 301 300 301 302 303 304 305 305 305 305 305 305 306 306 308 307 311 308 309 312 311 313 313 313 315 316 316 315 318 319 320 320 317 318 319 319 320 320 321 322
300 298 302 306 305 303 300 302 302 303 305 306 306 306 307 306 307 306 307 307 308 310 310 311 313 311 314 313 314 313 315 314 316 315 314 316 319 318 315 317 317 319 320 321 320
300 299 305 307 305 304 302 301 301 304 300 309 308 306 307 307 308 308 309 308 309 311 311 311 312 314 314 314 313 316 312 314 314 316 320 315 320 317 316 315 315 317 318 321 320
300 301 306 306 306 304 303 301 301 304 307 308 308 307 307 308 308 309 309 310 311 312 311 314 313 315 316 315 313 314 311 312 313 313 313 313 317 315 313 317 316 315 316 318 318
301 304 307 307 306 305 304 304 303 298 303 308 309 309 309 309 309 309 312 311 312 311 311 314 312 313 315 313 312 309 311 310 310 312 318 314 317 315 312 314 314 316 316 317 317
301 305 307 307 306 305 305 303 299 303 305 309 312 311 312 312 312 312 313 312 315 313 314 314 314 313 312 315 313 311 311 316 318 318 316 310 313 316 313 309 309 310 313 315 316
302 306 307 307 306 305 305 299 304 305 310 310 313 312 313 312 312 313 312 313 312 313 314 317 316 313 311 313 315 313 310 312 315 316 314 309 314 314 310 310 309 309 310 310 310
303 306 308 306 307 306 304 295 304 300 303 310 313 312 313 312 313 313 312 313 311 310 312 312 316 312 313 312 312 314 311 306 306 304 309 310 309 307 306 307 308 308 309 310 310
305 307 308 306 307 306 299 304 305 303 307 310 310 310 312 312 312 311 312 312 313 309 308 309 314 313 313 312 312 312 308 313 307 310 313 309 308 311 309 308 305 305 306 309 310
307 308 308 307 307 305 297 298 306 308 309 309 309 310 310 310 310 311 311 312 311 309 306 307 309 313 312 313 316 315 313 310 309 307 312 311 311 305 307 305 304 303 307 308 310
306 303 307 307 306 300 298 304 309 309 309 308 308 309 310 309 310 311 311 310 311 308 310 307 308 314 313 311 311 311 311 310 312 310 303 306 311 306 304 304 303 306 309 309 310
306 306 307 308 301 297 304 308 309 309 307 307 308 308 308 309 311 310 309 308 310 308 309 307 308 312 312 311 309 314 312 311 307 308 304 314 313 305 304 305 307 309 310 311 312
304 299 304 305 303 304 305 307 309 308 307 307 307 307 309 309 307 309 309 308 308 309 310 308 306 306 309 309 309 312 313 312 312 315 313 312 312 311 310 309 307 309 311 312 313
301 298 299 297 301 301 304 306 309 309 307 307 307 307 308 309 309 309 309 308 307 309 306 307 306 300 306 307 308 309 311 313 314 313 314 313 312 312 311 311 311 310 310 310 311
299 298 298 298 299 302 301 304 307 305 307 308 307 308 307 308 307 308 308 308 309 306 307 303 303 301 307 306 307 306 308 309 311 312 312 312 313 312 311 312 311 311 310 309 311
299 298 301 296 296 301 298 298 304 302 307 306 307 308 307 307 307 306 307 306 306 306 306 308 303 302 304 303 304 306 306 307 308 309 311 313 312 311 310 309 309 311 309 309 310

GFSSW_850_thetae_072.txt.gz
Theta_e
309 310 310 309 305 304 303 305 301 301 301 303 305 305 305 305 309 308 310 309 307 313 315 314 315 319 323 324 324 324 328 329 326 324 324 325 326 324 323 326 325 325 334 337 340
308 309 309 308 304 303 303 303 301 300 300 303 304 305 306 305 308 307 308 307 304 311 315 316 318 319 320 322 324 325 328 327 324 324 324 326 326 325 325 326 325 325 328 339 342
306 308 309 308 304 304 300 301 301 299 299 300 301 304 306 307 307 306 306 306 304 312 314 316 318 318 319 321 322 323 326 324 324 323 325 325 326 324 324 326 323 323 325 340 342
307 305 307 308 306 304 298 300 299 301 300 300 300 303 303 305 306 307 307 308 306 311 313 315 317 318 317 321 321 324 323 324 323 323 323 325 325 325 325 325 323 322 324 338 340
307 305 306 307 306 305 300 299 303 303 302 300 301 302 302 303 302 305 306 308 307 311 313 315 316 317 318 318 320 322 322 323 323 324 324 324 324 324 324 323 322 322 322 333 338
307 306 303 306 306 304 304 299 304 304 302 300 301 301 302 302 301 301 305 308 310 311 313 314 316 316 316 317 321 320 321 322 323 324 324 323 323 322 323 321 322 322 322 323 331
307 306 303 304 306 305 304 299 301 301 301 300 302 301 301 302 301 303 303 306 308 311 314 314 316 315 315 316 319 320 322 323 323 324 324 323 324 324 322 322 322 322 322 322 323
306 306 305 302 305 304 303 300 300 302 302 303 303 302 303 303 304 302 303 305 307 308 311 311 315 315 316 317 318 321 321 324 324 323 323 323 327 323 322 322 322 322 322 322 321
306 306 303 300 305 301 303 302 300 302 303 303 304 304 304 304 305 304 303 306 307 308 310 311 313 314 316 318 319 320 321 322 323 323 323 324 325 322 321 322 322 322 323 323 322
306 304 300 301 306 301 302 301 301 302 303 303 303 304 305 305 305 306 304 305 308 308 308 312 310 313 316 318 319 319 320 321 322 324 323 324 324 321 321 321 322 322 322 323 322
305 301 299 302 306 301 301 302 303 304 304 305 305 305 304 305 305 306 305 306 307 307 311 309 311 313 316 316 314 316 319 320 320 323 323 323 322 321 320 320 321 321 322 322 322
301 300 299 304 306 302 300 302 303 303 306 305 306 305 305 305 306 306 306 307 307 306 309 311 313 313 314 315 315 318 318 320 321 323 323 323 324 321 320 320 320 321 322 322 322
301 300 302 306 305 303 300 302 302 303 307 307 306 306 306 305 307 306 307 308 307 309 311 312 313 312 315 315 316 317 318 319 320 322 321 322 323 322 320 319 320 319 319 320 322
301 300 305 306 305 304 301 301 301 304 310 309 308 307 307 307 308 307 308 308 309 310 311 312 312 314 316 315 316 318 317 318 320 322 320 320 318 320 321 320 319 319 319 319 321
301 302 306 306 306 304 303 301 301 304 314 309 309 307 308 308 308 309 309 308 310 311 311 313 313 315 317 316 316 316 316 317 318 318 318 319 319 317 318 320 320 319 318 318 319
301 304 306 307 306 305 304 304 303 310 314 309 310 310 310 310 310 309 312 310 311 311 313 314 313 315 316 315 315 313 316 317 317 318 319 317 318 317 318 318 318 318 318 318 318
301 305 306 307 306 305 304 304 311 315 308 312 313 311 312 310 310 312 312 313 314 316 316 315 314 315 314 315 314 316 317 320 319 320 318 315 318 317 317 316 315 315 316 317 318
302 306 307 307 306 305 305 306 316 309 312 311 313 312 313 312 312 313 313 315 313 314 316 318 319 316 314 316 317 317 317 318 317 317 316 314 318 316 316 314 312 312 312 311 312
303 306 307 306 307 305 304 313 314 312 311 313 313 313 313 312 313 313 314 315 313 314 317 315 316 313 314 314 315 316 317 311 314 311 316 316 315 314 312 314 312 311 310 311 312
305 306 307 306 307 305 306 311 310 306 309 312 313 312 312 313 314 314 315 313 314 311 310 314 317 314 314 314 314 315 313 316 317 318 316 314 313 314 314 314 312 311 310 309 310
306 308 307 307 306 305 311 311 309 308 309 311 312 312 312 313 313 314 314 313 313 310 310 312 315 315 314 315 318 316 316 315 315 315 316 314 314 313 313 312 311 311 311 310 310
307 310 307 306 307 303 310 308 309 310 309 310 310 311 313 312 314 314 314 313 312 311 312 310 314 316 315 313 312 314 316 316 318 317 313 314 315 311 311 310 310 312 312 311 311
305 306 306 306 312 311 308 310 310 310 309 309 310 310 310 313 314 313 312 309 312 311 312 311 313 315 314 312 312 315 316 315 314 314 316 317 316 310 309 310 311 312 312 312 312
304 309 303 305 304 308 310 310 311 308 308 308 309 309 311 311 311 313 312 310 309 311 309 310 311 314 315 313 314 314 314 315 316 319 316 315 315 314 313 314 313 313 313 312 313
302 303 304 309 307 307 307 309 311 311 309 308 309 310 310 312 312 312 311 310 310 310 309 311 315 308 309 310 312 313 314 315 316 316 317 315 314 314 313 314 313 313 311 311 311
301 301 299 301 301 306 305 309 310 308 309 310 310 310 309 310 309 312 311 311 313 309 310 308 313 308 310 309 310 312 312 313 314 315 314 314 314 313 313 313 313 313 313 312 312
300 299 302 298 302 307 305 304 305 304 307 307 309 310 310 309 308 306 307 307 310 311 312 313 310 311 314 307 308 311 310 311 312 313 313 315 314 313 313 311 311 311 311 312 311

GFSSW_850_thetae_078.txt.gz
Theta_e
310 310 307 309 309 308 307 307 308 301 299 300 300 299 300 303 306 307 309 310 312 312 312 313 316 318 320 321 324 325 328 330 328 328 326 325 325 325 326 330 329 333 338 342 341
308 310 308 306 309 309 307 305 305 301 300 301 300 300 302 301 307 309 309 309 311 312 313 315 316 317 320 320 323 323 328 328 326 325 325 324 325 324 326 327 329 331 335 339 336
308 308 308 307 307 309 308 306 300 302 306 302 300 300 301 305 307 307 308 308 310 310 312 314 316 317 318 320 321 323 325 325 325 325 325 323 326 325 325 326 325 325 333 340 341
306 308 308 307 305 308 308 306 305 303 307 302 300 301 302 306 307 306 306 306 308 308 311 313 315 316 318 320 321 323 323 322 324 325 325 325 324 325 326 325 324 325 331 337 341
304 308 308 306 306 305 308 307 306 301 305 301 300 301 304 306 304 304 306 306 308 309 311 313 315 316 318 317 320 321 323 323 323 324 324 325 324 324 326 324 324 325 331 335 340
303 307 307 306 305 304 307 306 306 301 304 302 302 302 305 305 303 304 305 307 310 310 311 313 314 316 316 316 318 320 321 323 322 323 321 323 324 324 323 325 324 324 326 333 337
302 304 306 307 305 305 305 306 305 301 302 302 303 305 306 305 304 304 305 307 310 311 312 313 314 315 316 317 316 318 322 323 322 323 322 321 326 323 323 324 324 324 325 326 328
302 303 305 305 304 303 305 303 305 301 303 303 303 306 307 303 305 306 306 307 310 311 311 313 315 314 316 317 317 319 320 322 321 323 323 323 323 322 323 323 323 324 324 325 325
302 303 303 302 301 304 305 302 302 300 303 304 306 307 307 306 306 306 306 308 309 311 311 312 314 315 315 317 318 320 321 320 322 320 320 321 323 323 323 323 324 324 323 323 324
303 303 302 301 301 305 302 301 302 301 306 307 307 307 307 306 306 307 306 307 309 310 311 310 312 314 315 318 320 319 318 319 319 321 319 321 322 322 323 322 322 322 322 323 323
303 303 302 301 303 307 302 306 308 307 307 307 307 306 307 306 306 307 307 307 309 309 310 309 313 316 314 313 317 316 316 317 317 321 323 322 323 323 323 323 323 322 322 322 322
304 303 302 301 306 306 301 307 306 306 308 308 308 307 306 305 306 307 306 308 308 310 309 310 313 313 315 314 317 316 316 317 318 322 323 322 322 321 321 322 323 322 321 321 322
304 303 302 304 306 304 306 306 303 303 308 309 308 307 308 306 307 307 308 308 308 309 309 312 313 313 314 316 317 317 316 317 320 321 321 321 320 320 321 322 321 322 322 322 321
303 303 301 306 308 307 306 305 301 304 310 310 309 308 308 307 307 307 308 308 308 309 309 309 312 314 314 316 317 318 316 318 320 321 323 320 318 319 318 320 320 321 321 320 321
304 302 302 306 308 307 307 304 301 307 315 310 309 308 309 309 307 308 308 308 309 308 310 313 313 313 316 316 317 317 316 318 320 321 319 321 318 316 317 318 320 320 320 320 321
304 302 305 306 307 307 305 304 305 310 312 310 311 310 310 310 310 309 310 308 309 308 309 314 313 314 317 316 316 316 318 318 319 319 316 318 318 315 316 317 318 319 320 320 320
303 302 306 308 308 306 305 307 311 314 310 311 312 311 310 311 311 309 310 311 313 312 315 315 316 315 316 317 317 317 319 317 316 314 316 315 315 314 315 315 316 315 317 318 319
302 304 306 308 306 305 306 309 313 313 312 312 313 312 313 311 312 313 312 312 314 315 314 314 315 316 316 317 317 317 316 315 315 315 315 315 316 314 314 315 316 316 316 316 316
302 306 307 306 306 306 308 311 317 313 310 313 313 314 313 313 313 314 314 314 315 313 316 316 316 314 316 316 316 317 317 313 316 314 314 315 314 314 314 314 314 314 314 314 315
304 307 307 307 306 306 308 312 313 313 313 313 316 314 315 314 314 314 315 314 315 315 313 314 315 314 316 316 316 317 315 315 313 314 315 315 315 313 312 312 311 312 313 313 312
307 307 307 306 306 307 309 311 313 311 312 314 314 314 312 314 314 315 315 313 314 314 312 315 314 316 316 317 316 316 318 316 315 313 316 313 313 312 312 312 312 313 314 314 314
307 310 306 306 308 307 310 312 311 312 311 313 312 314 313 314 314 315 315 314 314 312 314 313 316 315 317 315 315 316 316 314 313 316 313 312 314 313 311 312 314 314 314 314 314
309 306 306 306 309 309 312 311 312 312 312 312 313 312 314 314 315 314 314 313 313 313 314 313 314 315 315 314 314 315 316 316 315 314 315 313 313 311 311 312 312 314 314 314 314
309 307 305 306 306 310 312 312 312 311 311 310 311 311 313 314 313 315 313 313 313 313 311 311 314 315 315 315 314 313 314 315 316 314 316 315 314 312 311 311 312 313 313 314 313
307 310 306 307 308 310 312 312 312 311 310 310 311 312 312 313 314 314 313 312 313 311 311 312 312 305 311 313 314 314 314 313 312 314 311 314 313 313 311 312 313 313 313 312 314
304 305 307 310 310 310 310 312 312 311 311 311 311 312 312 313 312 314 313 313 314 311 311 311 311 310 312 312 312 312 312 313 314 314 314 314 314 313 313 313 313 312 312 312 312
303 304 305 307 308 310 310 311 312 311 310 311 312 311 312 311 310 309 310 310 311 313 312 312 310 310 311 310 310 310 311 312 313 313 313 315 314 312 311 311 311 311 312 311 311

GFSSW_850_thetae_081.txt.gz
Theta_e
306 308 310 309 307 309 309 308 305 306 305 302 300 300 299 300 301 305 307 306 307 311 313 312 315 313 318 320 322 324 325 325 325 325 325 324 324 324 327 330 330 336 338 329 339
304 307 309 309 308 307 309 308 306 301 305 307 301 300 300 302 305 305 309 308 310 310 311 312 312 314 317 320 322 323 325 324 324 324 322 323 324 323 327 329 337 336 339 329 328
303 305 309 308 309 305 308 309 307 303 307 308 301 300 301 305 306 307 305 308 309 309 311 313 314 315 317 320 320 323 325 324 326 327 325 324 325 324 325 324 326 338 339 340 341
304 303 308 308 308 307 305 309 308 305 305 306 301 301 301 305 305 304 304 306 306 309 310 311 313 314 316 318 319 323 323 323 324 324 325 325 324 325 325 324 325 328 333 340 341
304 303 307 307 307 307 304 307 307 307 301 305 302 302 304 306 305 303 305 305 306 307 309 311 312 315 317 316 319 320 322 322 322 323 324 325 324 325 324 324 326 330 333 337 336
304 303 305 307 307 305 305 305 306 306 301 303 302 303 305 306 303 304 304 305 307 309 308 311 313 315 316 316 318 320 321 322 322 323 322 323 325 324 324 324 326 327 330 337 339
305 303 303 306 306 303 303 305 306 305 301 303 302 304 306 306 303 305 306 306 310 308 309 311 313 314 315 316 316 319 320 319 321 322 322 321 326 324 323 323 324 326 326 334 338
306 303 302 304 303 300 304 306 302 304 301 303 304 306 308 305 306 305 306 308 308 311 311 312 313 313 315 315 317 320 320 321 320 322 322 321 326 322 322 324 323 324 325 325 327
306 304 303 303 302 301 305 302 302 301 304 304 306 307 307 305 305 304 306 308 309 309 310 312 314 313 314 316 318 318 319 321 321 321 321 322 322 320 321 323 323 323 323 324 325
306 304 303 302 301 303 304 301 302 302 307 307 307 307 307 306 305 307 305 308 309 309 308 310 310 312 313 317 319 319 319 319 321 320 320 321 320 319 322 321 322 323 323 322 324
306 304 303 302 302 306 303 305 308 308 306 307 307 306 307 305 306 307 305 307 308 309 310 309 309 312 312 314 314 316 317 318 319 321 320 318 318 318 319 321 320 321 322 323 322
306 305 303 302 304 306 301 307 306 306 307 307 307 307 306 306 306 307 307 307 308 309 309 308 311 313 313 313 316 316 316 316 318 321 320 318 319 320 319 321 321 321 321 321 322
306 305 303 301 306 305 305 306 305 303 307 309 307 307 306 306 307 307 307 307 308 307 309 310 312 312 314 314 316 316 315 316 319 321 320 322 322 321 319 321 322 322 322 322 321
306 305 303 303 308 306 306 305 302 305 304 310 309 308 307 307 306 307 308 308 307 308 308 308 309 313 315 314 316 318 315 316 319 321 322 320 322 319 319 320 319 321 321 322 322
306 305 302 304 307 307 307 306 301 307 311 310 309 307 309 308 306 307 308 307 307 307 308 309 314 314 315 315 314 318 315 316 319 321 318 321 319 315 314 318 319 317 320 321 321
306 305 302 306 306 307 306 303 305 306 303 311 310 310 309 310 309 308 309 308 307 308 310 312 312 314 316 315 315 316 317 318 318 318 318 319 318 314 314 317 316 317 320 321 320
306 303 304 307 307 307 305 307 309 305 309 310 311 310 310 311 311 308 310 309 311 309 312 315 314 314 316 317 316 317 315 319 319 319 317 314 314 313 313 314 314 315 319 319 320
305 302 306 307 307 305 306 308 308 311 307 311 311 310 311 310 312 311 311 311 310 311 314 313 314 315 315 316 316 318 316 312 317 316 314 313 314 313 312 313 314 316 316 315 315
302 304 306 306 306 306 307 305 308 308 307 313 312 312 312 313 312 313 313 312 313 311 313 314 315 314 315 315 314 316 316 311 314 311 312 312 313 310 311 311 312 313 314 314 314
303 306 306 306 305 305 307 307 311 311 311 312 314 313 314 313 314 314 314 313 314 313 311 311 314 314 316 315 314 315 314 312 307 312 315 313 313 311 310 309 309 309 312 313 312
305 307 306 306 305 306 306 305 311 310 312 313 314 314 312 312 312 314 313 312 313 313 311 312 310 315 315 315 315 314 316 314 312 310 314 311 310 307 308 310 310 311 313 313 313
306 308 306 305 306 307 306 309 311 311 311 312 311 313 312 312 313 314 313 312 313 311 313 314 311 314 315 313 314 315 315 314 310 314 308 308 311 310 309 310 312 313 313 314 314
307 306 306 305 307 306 306 311 311 311 311 312 312 311 312 313 314 313 312 312 312 312 313 312 309 313 315 312 312 315 315 315 312 309 308 308 309 308 308 310 313 314 313 314 314
308 305 305 306 306 307 309 310 311 311 310 310 310 310 311 314 312 313 312 312 313 312 311 312 311 308 308 310 311 312 313 314 312 306 313 312 313 310 310 310 310 311 313 313 313
309 304 305 306 305 306 307 310 311 310 309 309 310 310 312 312 313 313 311 312 312 311 311 311 309 302 310 312 313 312 312 312 310 313 312 313 313 312 311 311 312 312 312 312 312
307 306 305 304 305 304 306 310 310 310 309 309 310 310 310 311 310 312 311 311 312 310 310 309 308 308 311 310 311 311 311 311 312 312 313 313 313 311 312 311 310 311 311 311 311
304 305 307 305 305 306 306 309 310 309 309 310 310 309 311 310 309 308 308 309 310 310 310 310 306 304 307 308 308 308 309 310 311 311 312 313 313 312 310 309 310 311 311 311 310

GFSSW_850_thetae_084.txt.gz
Theta_e
305 304 307 311 310 309 308 309 308 306 300 306 307 301 300 300 301 303 302 304 308 306 312 312 313 314 314 315 320 323 325 325 324 320 322 323 324 324 327 330 332 335 335 335 334
307 304 304 309 309 309 306 309 309 308 303 307 308 302 300 301 303 304 305 305 307 309 309 311 312 313 314 316 319 323 323 324 322 323 322 322 323 324 329 334 338 338 335 334 332
307 305 304 308 309 308 308 305 308 308 306 306 305 301 301 301 304 306 303 304 307 309 309 309 311 312 315 317 319 322 324 323 325 327 325 323 323 324 325 325 333 338 341 335 330
307 306 304 304 307 307 308 305 309 308 307 302 305 302 301 305 302 303 303 304 305 309 309 310 311 313 315 316 318 323 322 322 325 324 325 324 324 323 324 324 331 336 336 340 338
309 306 304 304 306 308 307 306 306 308 307 302 305 302 303 305 305 303 305 305 304 306 308 310 311 313 314 314 317 320 322 323 323 323 323 324 323 323 323 324 327 331 337 334 332
311 306 305 304 305 306 306 305 305 307 306 302 304 302 305 305 303 303 305 305 305 306 307 309 311 312 314 315 315 318 321 321 322 323 322 322 324 323 323 325 329 330 333 339 339
311 307 305 304 304 302 302 305 306 303 304 302 303 304 306 305 305 305 306 306 308 306 307 309 311 313 314 315 315 318 321 321 319 320 323 320 325 323 322 324 327 327 330 336 337
312 308 305 304 304 303 302 305 302 302 301 303 303 306 306 305 305 305 305 308 309 308 307 309 311 313 315 315 316 317 320 322 320 322 322 319 326 323 322 321 326 327 327 331 336
311 308 305 304 303 302 305 303 301 301 305 304 306 306 306 305 306 304 306 307 308 309 310 311 312 313 314 315 317 317 320 320 321 320 322 318 318 321 322 321 320 325 325 325 326
313 309 305 304 303 302 306 301 302 302 306 307 307 307 306 306 305 306 306 307 309 309 309 310 311 313 314 316 317 318 318 319 321 321 320 321 322 320 321 320 321 321 322 323 324
314 307 306 304 303 305 304 305 308 308 306 306 307 306 306 305 306 306 306 307 308 309 309 307 312 313 313 314 316 316 317 318 318 319 319 319 321 320 320 320 320 322 321 322 323
316 305 306 304 302 306 303 306 306 305 306 307 307 307 306 305 306 306 307 307 307 308 308 309 311 312 313 315 316 316 316 319 319 320 318 319 320 318 319 319 320 322 321 322 322
317 304 306 304 304 305 304 306 305 303 305 308 307 307 306 306 306 305 307 307 307 307 308 310 310 310 314 315 317 316 318 317 319 320 319 320 320 319 318 318 319 322 322 321 321
317 306 305 303 305 306 306 305 303 302 301 308 308 307 307 307 306 306 308 308 306 307 309 310 308 313 313 314 315 318 315 316 319 320 323 321 322 318 318 318 316 319 321 322 321
317 306 305 302 307 306 307 306 301 306 301 308 308 307 309 308 305 306 307 307 305 307 308 309 313 314 314 314 314 317 316 316 319 319 320 320 317 315 315 317 316 317 320 321 321
316 305 306 303 306 307 307 304 305 306 302 308 309 309 309 309 309 308 308 308 307 308 310 313 313 313 314 314 314 316 316 316 318 319 321 318 315 315 313 316 315 316 319 320 321
314 305 306 305 306 307 305 305 307 304 306 307 310 310 309 311 309 308 309 307 308 304 310 314 314 313 315 316 316 316 314 316 320 319 317 315 318 315 312 313 314 314 318 319 321
310 304 304 305 307 306 305 303 307 306 306 310 309 309 311 311 310 311 310 310 309 311 315 311 313 315 314 316 316 317 314 314 318 318 314 313 318 314 311 311 312 315 316 317 316
306 304 305 306 306 305 307 304 303 306 306 312 311 311 312 311 311 312 311 309 312 310 315 314 316 314 315 315 314 316 314 311 312 309 310 312 312 310 310 309 310 311 312 313 314
304 306 306 306 305 306 306 305 306 310 310 310 311 311 311 312 312 312 312 311 313 311 310 312 316 313 314 314 313 313 313 312 307 312 315 312 313 310 311 309 309 309 311 312 312
304 305 306 305 305 306 306 303 307 310 311 312 312 314 312 312 312 312 311 312 312 313 310 309 311 313 313 313 314 314 314 312 310 309 312 312 311 306 308 308 309 310 312 313 313
305 306 306 305 306 306 306 305 310 310 311 311 311 312 311 311 312 314 312 311 312 311 312 312 310 310 314 313 313 314 314 311 308 311 306 306 310 306 306 308 310 311 313 313 314
307 305 306 305 305 306 305 307 310 310 310 311 311 311 312 311 314 312 312 311 311 311 311 311 308 313 315 311 310 314 314 314 310 307 306 309 308 307 308 309 311 311 313 313 314
305 305 305 306 306 305 305 309 311 310 310 310 310 310 311 314 311 312 312 312 312 311 311 311 308 307 307 309 310 312 313 314 310 306 311 310 312 309 309 310 310 311 312 313 312
306 303 305 306 305 306 306 309 310 310 309 309 309 310 310 312 312 311 311 312 312 310 310 309 307 300 309 312 311 311 312 312 310 312 310 311 312 309 310 311 311 311 311 311 311
307 304 305 303 304 304 306 308 309 309 308 308 309 309 309 311 310 311 310 311 312 310 310 308 306 307 310 310 310 311 310 311 311 311 312 312 311 310 310 309 309 310 310 310 310
304 306 306 304 302 304 305 307 309 308 309 309 308 309 309 309 308 308 308 309 310 309 309 309 306 304 306 306 307 309 308 309 310 310 311 312 312 310 309 309 310 310 310 310 309

GFSSW_850_thetae_087.txt.gz
Theta_e
309 309 306 305 310 309 309 307 309 309 308 303 307 309 305 301 301 301 303 303 306 309 309 309 312 311 313 316 314 319 322 324 322 320 321 321 323 324 325 332 336 334 334 335 331
311 308 307 305 309 309 309 308 307 309 308 307 306 307 302 302 301 301 304 303 308 308 308 309 310 311 312 314 314 318 320 320 320 319 319 321 322 325 330 335 336 336 335 332 330
315 310 307 305 305 306 308 305 306 307 309 307 303 306 303 301 303 305 303 304 307 305 307 309 309 310 312 313 315 316 320 318 322 326 325 323 323 323 327 328 336 337 338 332 329
318 312 307 305 304 305 307 304 306 306 309 307 305 306 303 302 302 304 302 304 305 305 309 309 309 310 312 312 314 316 317 317 323 324 324 324 324 323 324 325 334 333 334 335 335
321 316 308 306 304 305 305 302 303 305 308 307 303 305 302 304 304 303 303 305 306 305 307 308 309 310 311 312 314 316 315 318 323 323 322 324 323 322 322 327 337 336 337 335 335
321 317 308 306 304 304 303 301 304 306 307 306 303 305 303 305 304 304 305 306 305 305 305 308 310 311 312 313 313 316 318 316 323 322 321 322 323 322 322 329 334 338 333 333 333
321 318 311 305 304 304 303 302 306 306 304 305 304 304 306 305 305 305 305 305 308 308 305 307 309 310 313 313 314 314 318 317 322 320 323 320 325 321 321 329 333 334 336 337 334
321 318 311 305 304 304 302 305 304 302 302 302 303 305 305 306 305 305 304 306 308 307 306 307 309 310 313 314 315 316 316 316 321 321 320 319 327 322 321 323 328 330 333 335 334
319 318 315 306 304 303 302 305 302 302 303 304 305 306 305 306 306 304 306 306 308 309 308 310 309 310 314 313 314 316 319 317 320 319 320 319 323 319 320 320 320 325 327 331 332
319 318 316 306 303 302 305 302 302 302 305 306 306 306 306 305 304 305 306 307 308 308 307 308 311 308 313 313 314 316 318 317 317 320 318 317 319 319 320 320 320 320 322 324 326
319 318 316 307 303 302 305 304 308 307 306 307 306 306 306 304 305 304 306 307 308 308 308 307 312 312 314 314 314 314 316 318 318 320 319 317 318 317 318 319 318 319 320 322 324
317 319 316 307 302 304 303 305 305 305 304 307 307 307 306 305 306 304 307 307 307 307 308 306 312 312 313 315 315 315 317 318 318 318 318 319 318 317 318 320 319 318 320 321 323
314 318 315 306 302 304 303 305 305 303 304 307 308 307 306 306 305 305 307 307 306 307 308 309 311 310 314 316 316 316 316 318 319 319 318 319 319 318 318 319 319 319 320 321 322
312 316 314 304 304 306 305 305 304 302 298 305 308 307 307 306 305 305 307 307 305 307 308 310 309 312 313 315 315 317 315 317 319 319 324 319 323 318 318 318 317 316 319 320 321
309 312 311 304 307 306 306 305 301 306 299 305 307 307 308 307 305 304 307 308 306 307 308 311 310 313 313 313 314 317 316 316 319 319 320 321 319 315 316 319 318 314 317 320 321
305 310 308 303 306 306 307 303 305 304 301 307 308 307 309 309 309 307 308 307 307 308 311 313 312 313 314 314 314 315 316 318 318 319 320 320 318 314 314 316 315 314 317 318 319
307 309 306 303 305 307 305 305 303 308 305 306 308 309 309 311 308 308 308 307 305 308 314 313 313 313 314 316 314 315 314 318 319 319 319 316 317 315 313 311 312 312 315 317 319
306 309 305 305 307 306 304 303 306 303 305 308 308 308 311 311 310 310 308 308 309 311 313 312 311 314 314 316 316 317 313 315 320 319 314 315 318 315 309 309 310 313 315 316 317
306 306 304 307 307 305 306 302 303 302 305 311 309 310 311 311 311 310 309 309 310 309 313 312 316 313 315 315 316 315 310 311 310 309 311 313 311 309 309 307 307 309 311 312 313
306 304 306 306 307 305 302 305 304 307 308 309 309 309 309 310 312 311 311 310 312 310 309 312 315 314 314 314 312 315 313 313 309 313 313 311 311 310 311 310 308 308 310 311 312
305 306 305 307 306 306 302 302 305 309 311 310 310 310 309 310 311 311 310 310 311 311 309 310 310 314 312 313 313 313 314 311 309 308 311 312 311 306 308 308 308 308 311 313 313
305 304 306 305 305 305 302 304 308 309 310 310 310 311 309 309 312 314 310 309 311 310 312 311 308 312 313 312 312 313 313 310 308 310 304 305 309 304 305 307 309 310 312 313 313
304 304 305 305 305 304 304 305 306 309 309 310 310 310 311 310 313 312 311 311 310 310 312 310 307 304 306 308 310 314 313 310 307 305 305 306 309 306 307 308 310 311 313 313 313
304 305 305 305 305 303 304 307 310 310 309 310 309 309 311 312 310 311 312 311 311 310 311 309 307 307 306 308 309 311 313 312 307 305 309 309 310 309 308 309 308 311 312 312 312
304 304 305 306 305 304 304 308 310 309 309 308 309 309 311 312 311 310 311 311 311 310 309 307 305 299 309 311 310 311 311 311 307 309 308 310 311 309 308 310 310 309 310 310 311
303 303 305 303 305 305 307 307 309 308 307 308 308 308 309 310 310 310 310 310 310 309 309 306 305 306 309 308 308 310 309 310 310 311 311 311 311 308 308 309 309 310 310 310 310
305 305 305 304 304 304 306 305 308 307 309 307 307 308 309 308 307 308 308 309 309 308 308 307 304 303 306 305 306 307 307 308 309 309 310 311 310 307 308 308 309 309 310 310 309

GFSSW_850_thetae_090.txt.gz
Theta_e
322 319 312 310 306 309 310 309 305 307 310 310 307 306 308 306 301 302 301 302 304 308 310 310 308 311 312 313 314 316 318 319 320 322 321 318 320 322 321 326 330 331 332 329 337
322 321 316 310 307 306 307 309 307 305 306 310 307 304 307 306 302 301 302 303 308 308 306 307 308 307 311 311 313 314 316 317 318 318 317 319 321 323 329 333 334 334 334 332 327
321 321 320 312 307 306 305 309 308 306 305 309 308 307 306 305 302 303 303 305 307 305 304 306 307 309 309 310 311 313 315 315 318 318 320 322 321 324 328 332 334 336 335 333 331
320 321 320 315 308 305 306 308 307 305 305 311 308 306 305 303 300 303 303 307 307 305 305 308 309 309 308 309 310 312 313 315 317 318 322 323 323 322 327 327 331 335 334 332 332
321 319 320 317 309 305 304 307 307 307 306 308 307 304 305 303 303 303 303 304 305 305 306 306 308 309 309 310 311 312 313 315 316 317 318 321 322 322 321 330 332 336 334 331 330
321 320 319 318 311 306 304 305 305 308 307 307 306 305 305 303 304 304 305 305 305 306 307 306 308 308 309 309 311 312 313 314 316 316 318 322 322 322 321 332 338 335 333 332 334
320 322 319 318 313 306 304 304 302 307 307 303 306 305 305 305 305 305 305 305 306 308 308 306 307 308 309 311 311 311 314 316 313 315 321 320 323 321 320 328 336 335 334 334 335
317 320 320 318 314 307 304 303 304 306 305 303 305 305 305 305 305 305 306 307 308 305 305 306 307 308 308 311 313 312 314 317 315 312 314 320 326 319 319 323 326 332 333 334 334
315 318 319 318 314 307 303 303 305 305 304 305 305 306 306 305 305 304 306 306 307 308 306 307 308 307 307 311 313 313 316 317 316 314 319 319 325 320 318 319 319 323 327 333 333
299 314 317 317 314 308 303 305 303 302 303 305 306 306 305 305 304 305 306 307 308 307 307 308 307 307 310 311 312 314 316 316 317 318 316 318 318 318 317 317 318 319 320 326 331
296 312 314 315 313 307 304 303 306 305 305 307 306 306 306 305 305 304 306 306 308 308 307 307 307 311 312 312 312 313 315 316 315 316 317 316 317 317 317 316 317 317 320 321 323
296 304 313 312 311 306 304 304 306 306 304 306 307 307 306 305 306 305 306 306 306 306 307 306 312 310 313 314 314 315 316 318 318 316 316 317 318 317 317 317 318 318 318 320 323
296 298 312 311 309 305 305 304 305 303 303 306 307 307 306 305 305 305 307 306 305 306 308 306 310 311 313 315 315 315 315 316 317 317 318 317 318 318 317 317 318 318 319 320 321
296 298 311 310 307 305 305 305 305 302 297 305 307 307 306 306 304 305 307 307 304 306 307 308 310 312 313 314 315 317 315 317 318 317 320 318 321 317 317 318 318 317 318 318 321
297 298 308 310 306 306 305 305 303 305 298 304 306 306 308 306 304 304 306 307 306 306 307 310 313 313 313 313 314 317 315 317 318 319 319 319 320 317 316 318 318 316 318 317 318
300 298 305 308 305 306 306 304 303 299 299 308 307 307 309 308 309 306 307 307 306 308 311 311 311 312 314 314 314 315 316 317 317 319 316 319 317 315 315 317 316 316 317 317 317
301 301 303 308 306 304 306 302 301 299 303 306 307 307 308 309 308 307 308 305 305 311 314 311 313 312 314 314 313 316 316 319 320 319 318 316 316 314 313 311 313 314 313 316 317
300 300 304 308 305 304 305 303 300 303 305 306 307 308 309 309 308 309 307 307 308 309 311 306 305 312 313 315 314 316 313 317 319 316 316 316 319 314 308 307 309 311 313 314 316
301 302 306 307 304 306 304 304 302 303 304 309 308 308 310 310 309 309 308 307 308 308 311 311 313 313 313 315 316 316 312 310 310 309 312 314 311 309 308 307 307 308 310 311 312
301 302 306 305 305 305 304 305 303 304 307 307 308 308 309 309 309 311 309 308 311 310 309 312 314 312 314 314 313 314 311 313 310 316 313 310 311 310 310 309 307 307 309 311 311
301 302 304 303 305 304 306 301 304 306 309 308 308 308 308 309 309 309 308 309 311 311 309 310 309 313 311 313 313 312 313 310 309 308 311 312 310 307 306 308 307 307 311 312 312
301 304 305 304 305 305 306 303 305 308 309 309 308 309 308 309 310 310 309 309 310 309 311 309 308 310 313 311 311 312 312 308 308 311 303 305 309 304 303 306 308 310 311 312 312
303 304 306 304 306 306 304 304 305 308 309 309 310 310 307 309 311 311 310 310 310 310 311 309 306 310 311 308 308 313 312 308 305 305 305 306 308 306 306 307 309 310 311 312 312
303 304 304 305 304 303 304 304 307 308 308 309 309 309 310 310 309 311 311 311 310 310 310 308 305 305 305 308 308 311 313 310 307 305 308 308 310 309 308 309 308 310 310 310 310
305 305 305 305 305 303 302 306 309 309 308 308 308 309 311 311 310 311 311 310 310 309 308 306 304 299 307 310 309 310 311 311 304 308 307 309 310 308 308 310 310 309 310 310 310
304 304 304 305 305 304 303 307 308 307 307 308 308 308 309 310 309 310 309 309 311 307 308 304 304 305 307 305 307 310 309 309 310 311 310 310 311 306 307 309 309 310 310 310 310
305 305 305 304 305 304 303 305 308 307 307 307 307 307 308 308 307 309 308 308 308 308 307 306 304 302 304 304 306 307 307 308 309 308 309 311 309 308 307 307 308 309 309 309 309

GFSSW_850_thetae_093.txt.gz
Theta_e
322 321 321 321 319 313 307 308 309 309 307 309 310 308 304 308 307 304 301 301 301 306 309 308 308 308 310 310 312 314 315 315 316 319 320 319 320 321 320 321 328 331 330 330 330
322 322 321 321 320 316 309 305 309 308 306 307 310 309 308 305 305 302 302 302 308 308 305 304 303 306 308 310 311 312 314 313 314 316 319 319 319 320 322 324 329 331 332 328 331
321 321 321 320 320 317 310 306 310 309 305 306 310 309 308 304 304 302 302 305 307 306 304 305 305 308 308 308 310 310 311 312 312 314 318 321 319 320 321 324 327 332 332 329 328
319 320 323 319 319 318 311 307 308 308 306 305 310 308 307 304 301 302 303 305 306 306 305 305 306 307 308 308 309 309 309 311 313 314 317 319 321 322 321 322 326 332 329 330 329
318 318 319 321 318 318 312 308 306 305 305 306 309 307 305 304 303 303 304 304 304 305 305 305 306 308 308 307 307 309 309 310 312 313 316 318 318 319 322 321 322 331 333 330 328
316 318 318 320 318 318 312 307 305 304 306 308 307 307 306 303 304 304 304 304 305 305 306 306 305 307 308 307 309 309 309 310 312 313 315 318 318 318 322 322 324 329 332 331 327
303 313 316 319 319 318 313 307 305 303 306 307 305 307 306 304 305 305 305 305 306 307 307 307 306 306 308 308 309 307 308 312 312 314 316 316 315 315 319 321 325 328 331 332 330
296 298 312 317 319 317 313 305 304 304 306 305 304 307 305 305 305 305 303 306 306 306 305 305 306 308 307 306 308 310 311 314 314 315 312 314 317 318 318 320 326 328 331 331 331
298 296 305 316 316 314 313 307 303 305 304 304 307 306 305 305 304 303 304 306 306 307 307 307 307 307 307 305 308 312 314 314 316 313 314 312 315 316 317 318 319 321 328 331 334
298 296 300 314 315 313 310 304 305 304 303 305 307 305 305 305 304 303 305 306 307 308 307 309 307 307 307 307 314 313 314 314 316 316 314 312 310 309 317 317 318 317 321 331 332
299 296 297 311 313 312 307 305 305 305 303 305 306 306 306 306 304 304 306 307 307 308 308 306 308 308 311 308 311 313 314 315 317 316 315 315 311 313 317 317 318 318 319 326 331
300 297 296 310 311 311 308 305 306 305 304 304 305 306 306 305 304 304 306 306 305 306 306 307 311 309 307 309 313 314 316 317 316 315 314 314 312 314 317 317 317 318 318 320 328
299 298 296 309 311 310 306 304 304 304 303 305 305 306 306 305 304 304 306 306 305 306 307 306 310 311 313 314 314 314 315 316 316 316 314 315 314 317 318 318 318 318 318 318 319
300 298 301 308 309 308 305 304 304 303 302 305 307 306 306 306 303 305 306 306 303 306 307 308 310 312 312 314 314 316 315 315 316 317 319 317 319 316 318 318 319 319 319 318 319
300 299 302 304 306 305 305 304 304 304 308 305 306 306 307 305 303 303 306 306 305 306 307 312 313 313 311 314 314 316 315 316 317 319 319 318 319 318 316 318 318 319 320 319 318
300 300 300 303 306 306 305 304 302 306 308 308 307 306 309 307 309 306 306 306 306 308 310 311 310 312 313 313 315 315 315 315 316 318 319 319 318 316 317 317 316 318 318 320 318
300 300 300 303 305 306 304 302 306 307 304 308 307 307 308 308 308 306 307 305 306 308 313 310 312 311 313 313 314 314 316 319 319 316 318 315 317 315 312 309 311 317 315 319 317
300 300 300 300 303 305 304 304 307 305 306 305 306 307 308 308 307 308 306 305 307 309 310 304 306 312 312 314 315 315 314 316 317 317 319 316 319 315 308 307 309 311 314 313 313
300 301 303 302 305 305 303 307 308 305 304 307 307 308 309 310 308 308 307 306 307 308 310 310 314 313 312 314 315 316 313 310 311 310 317 313 311 308 308 309 308 308 309 309 311
301 301 302 306 305 304 304 307 305 303 306 306 307 307 308 308 308 309 308 307 310 308 308 311 312 311 314 314 312 313 311 313 311 314 314 312 311 310 308 309 308 309 308 310 311
301 301 303 304 304 303 305 306 303 304 308 307 308 307 307 308 307 308 308 308 310 310 308 309 310 315 311 313 312 312 312 309 309 309 313 314 311 306 307 307 309 308 310 311 312
300 303 302 303 304 303 306 304 305 307 307 308 308 308 307 308 308 309 309 307 309 309 310 308 308 315 314 310 310 311 311 307 311 312 305 307 311 304 303 305 308 309 311 311 312
301 301 304 303 306 306 305 305 305 307 308 309 310 309 306 308 311 310 309 309 309 309 311 308 306 310 309 308 309 311 311 306 305 306 307 310 310 306 306 307 308 309 311 311 311
302 302 304 304 304 305 306 305 305 307 308 308 308 308 308 309 307 310 311 310 309 310 309 307 304 305 305 308 308 311 312 308 306 307 309 308 309 308 308 308 308 309 310 310 310
301 303 304 304 305 305 305 304 306 309 308 307 308 309 309 310 309 310 310 310 309 309 307 305 305 299 305 307 309 310 311 310 305 307 309 308 309 308 308 309 308 308 309 309 309
304 305 304 305 304 304 305 305 307 307 307 308 307 307 308 309 309 309 309 309 310 307 307 304 304 304 307 305 305 309 309 309 310 310 309 310 311 306 306 309 308 308 309 309 308
305 305 305 305 304 305 302 305 308 306 306 306 306 306 308 308 308 308 308 307 307 307 306 305 304 302 305 304 305 307 307 308 308 308 308 311 309 307 308 307 307 308 308 308 308

GFSSW_850_thetae_096.txt.gz
Theta_e
321 322 323 322 320 319 319 314 308 306 308 305 302 311 311 309 307 305 306 303 301 305 309 309 307 308 309 309 310 312 315 316 315 315 315 315 317 319 321 322 321 325 330 332 330
318 319 320 322 322 319 319 316 307 307 308 305 302 310 310 309 307 304 303 302 305 309 308 305 305 306 307 308 309 311 312 311 312 313 314 315 316 317 320 322 322 323 331 333 331
312 318 319 320 322 319 318 319 311 307 308 304 305 310 310 308 305 303 302 305 309 307 305 305 307 308 307 307 308 308 311 310 310 311 312 315 316 318 320 322 322 323 326 331 336
309 312 317 318 320 320 318 318 312 307 308 304 305 310 308 307 307 303 302 305 307 307 306 307 307 308 307 308 307 309 307 308 308 310 312 313 315 317 319 319 321 322 324 332 333
307 309 314 317 317 319 319 316 309 307 307 305 307 309 307 306 306 303 304 304 304 304 306 307 307 307 308 308 308 308 308 306 307 308 310 313 315 318 319 321 321 321 323 327 332
305 304 306 314 317 317 319 317 310 307 304 306 308 308 307 307 304 303 304 304 304 306 307 306 307 306 307 309 309 307 307 307 307 308 310 312 315 317 318 321 322 322 322 324 330
304 302 297 302 313 317 317 313 310 305 304 306 307 306 307 307 305 305 305 304 306 307 307 308 307 306 307 309 308 308 309 309 309 309 312 312 316 317 317 319 320 322 321 324 329
304 300 297 299 313 316 316 312 307 305 305 306 304 305 308 305 304 305 305 304 306 307 306 306 307 306 307 308 308 306 310 311 310 311 311 314 317 315 318 318 320 323 322 326 329
302 299 297 297 311 315 314 311 306 305 307 305 305 307 307 305 305 303 303 306 308 307 307 307 306 308 308 309 308 308 315 313 314 313 314 316 316 316 313 313 315 322 324 327 328
302 300 298 296 308 313 313 308 306 306 305 304 306 306 306 306 304 304 304 306 307 308 308 308 309 310 309 309 311 314 314 314 315 315 315 316 317 315 313 313 315 322 324 327 328
303 301 298 296 307 312 312 306 305 305 303 305 307 307 306 306 305 304 305 307 308 309 310 308 309 309 311 310 307 308 314 315 316 316 316 316 316 314 313 314 312 322 325 328 329
303 303 298 298 307 310 311 306 306 306 306 305 305 306 306 306 306 304 306 307 307 310 309 309 310 311 310 310 311 311 314 316 316 316 316 316 316 316 315 314 311 321 323 328 325
303 302 299 304 309 308 308 305 305 305 304 304 304 305 306 306 306 305 307 307 307 309 310 311 311 310 313 312 314 315 313 316 316 316 315 316 317 314 313 313 312 319 319 324 326
304 303 298 303 307 307 305 305 305 303 307 307 307 307 306 306 305 305 306 307 306 309 309 310 311 313 313 313 315 315 314 316 316 317 320 317 320 316 314 320 322 321 319 319 323
303 302 299 303 304 306 305 305 304 303 315 307 307 306 307 306 304 304 306 307 307 309 310 312 313 314 313 314 315 316 316 316 316 318 319 318 321 318 318 323 323 322 320 318 318
302 301 299 301 303 306 305 304 303 309 313 310 307 307 308 308 308 306 307 306 307 310 310 312 311 312 314 313 314 316 317 317 319 319 321 319 321 319 316 314 319 320 320 320 317
301 300 300 299 303 305 305 302 310 312 305 310 308 308 309 309 309 308 308 308 310 314 314 311 312 312 313 315 315 316 318 320 320 322 321 318 321 315 312 312 313 318 319 319 318
300 300 300 301 301 305 304 305 312 307 307 307 308 309 309 308 309 308 308 308 309 311 312 313 315 312 312 315 315 315 317 320 319 320 321 319 320 314 312 311 312 316 314 317 319
301 301 301 301 300 303 304 309 311 308 307 309 309 310 310 309 309 309 309 310 310 311 314 314 316 313 313 314 314 317 316 312 317 318 320 317 314 316 313 313 311 310 312 311 315
301 300 300 302 300 304 305 308 308 304 306 308 310 310 310 308 309 310 310 310 312 309 311 313 316 313 314 314 314 315 313 317 318 320 320 315 316 317 315 314 313 312 311 310 310
301 302 301 304 303 303 308 308 305 305 305 308 309 310 310 310 310 311 311 311 312 312 311 312 314 315 313 315 316 315 315 313 314 314 317 317 316 311 312 312 313 312 312 311 311
301 303 301 303 302 303 307 306 304 307 307 310 310 310 310 311 311 312 312 311 310 311 313 311 314 316 315 313 312 314 314 312 318 315 312 316 315 310 310 312 312 312 312 311 310
301 302 302 303 307 308 304 305 305 307 309 311 311 310 310 312 313 313 312 310 310 311 313 311 313 317 315 313 313 315 313 312 311 314 314 317 315 310 310 311 311 312 311 310 310
301 303 302 302 304 306 307 307 307 306 309 309 310 310 311 313 312 313 313 311 310 311 309 309 310 311 315 313 313 316 315 313 314 319 314 315 314 313 312 312 312 311 310 310 309
302 303 304 306 306 306 306 306 306 308 308 308 310 311 312 314 313 313 313 312 310 309 309 311 313 308 310 310 312 313 314 314 314 312 316 312 314 313 313 312 311 310 310 310 309
302 304 305 305 304 305 306 307 307 308 309 310 311 311 311 313 312 314 313 312 313 311 311 309 313 309 312 310 310 312 312 313 314 312 313 313 314 311 311 310 310 310 309 309 308
303 305 305 304 304 306 306 306 307 308 307 306 309 311 312 310 309 310 309 309 310 311 311 311 311 313 314 309 310 313 310 311 312 312 313 314 313 311 311 310 309 309 309 309 309

GFSSW_850_thetae_099.txt.gz
Theta_e
316 317 318 319 321 322 322 319 318 312 308 308 305 305 311 311 309 310 308 308 305 303 306 309 308 307 309 310 309 311 314 316 314 315 315 314 315 315 317 319 320 321 322 325 330
306 308 315 318 319 320 321 319 318 311 309 307 305 306 310 310 309 308 307 302 303 310 309 307 306 307 307 308 310 311 313 313 312 312 313 313 314 314 315 317 319 321 322 323 332
306 307 310 314 318 318 321 319 318 312 310 307 304 308 310 309 308 306 302 303 309 309 308 306 307 307 308 306 308 309 312 310 310 310 310 312 313 313 315 317 318 319 321 325 333
306 307 307 308 314 317 320 319 318 316 309 308 304 309 310 308 310 305 302 308 308 308 308 308 308 308 308 308 306 308 308 308 309 308 309 311 312 314 315 316 317 318 319 323 327
306 305 304 305 310 316 318 319 318 316 311 306 304 309 309 309 308 305 303 305 305 306 307 308 308 308 310 308 307 308 308 307 308 307 308 308 310 313 313 315 318 319 320 323 326
303 305 304 300 299 312 317 318 317 311 310 304 308 309 309 310 307 304 306 305 305 307 308 308 307 307 307 309 309 309 310 309 308 308 307 308 309 310 313 314 317 321 322 323 324
304 302 300 298 297 304 313 317 315 313 307 305 308 308 308 309 306 305 304 306 306 308 309 308 308 307 307 308 308 309 310 310 309 309 308 307 309 310 311 314 317 319 321 323 323
304 303 301 298 296 309 313 315 313 311 306 306 307 309 308 307 306 306 306 307 307 308 309 308 309 308 307 308 309 310 309 310 309 309 310 308 311 311 311 314 316 318 321 322 322
304 303 302 299 298 311 314 314 310 310 306 306 307 308 309 306 306 306 306 306 308 309 309 308 308 307 308 310 311 310 312 311 311 312 311 311 312 313 313 316 317 318 320 322 322
303 303 303 300 297 307 311 309 307 307 307 307 307 307 308 307 306 305 305 307 308 309 309 308 308 310 310 310 313 312 314 314 317 314 312 312 314 315 316 316 317 318 321 321 322
304 303 303 302 298 304 310 307 305 305 305 307 308 308 307 307 305 305 306 308 308 309 310 309 311 311 310 310 311 311 312 313 315 312 313 314 315 314 315 315 316 318 322 321 322
304 304 303 301 303 303 309 307 308 308 308 306 307 308 307 307 306 306 306 308 308 309 310 310 310 310 310 312 311 312 313 314 316 316 314 315 316 315 315 315 315 315 316 324 325
303 304 303 300 306 308 306 307 308 305 307 306 307 307 307 307 306 305 307 307 308 309 310 311 312 311 312 311 312 313 314 315 317 317 317 316 319 318 317 315 315 315 315 324 326
302 304 303 299 304 306 304 306 306 305 311 309 307 307 307 307 307 305 308 308 307 309 310 311 311 312 313 314 313 317 314 315 314 318 321 318 322 316 315 318 317 316 318 326 325
302 303 303 299 306 306 306 305 305 305 316 309 308 307 307 307 306 306 308 308 309 309 310 313 313 314 315 315 314 316 314 315 314 316 320 319 320 318 314 320 320 320 321 325 324
303 303 300 300 301 304 306 305 303 310 316 311 308 308 308 308 306 306 307 308 308 310 311 312 312 313 314 314 314 314 316 316 317 319 324 321 320 321 317 313 322 320 318 320 323
302 301 299 303 305 305 304 304 310 314 308 310 309 309 309 310 310 307 308 309 310 315 314 313 313 313 313 313 314 316 315 321 323 323 324 319 321 316 313 312 320 321 319 318 319
300 300 299 303 303 305 304 305 313 310 309 309 308 309 310 309 309 309 308 310 310 312 314 315 317 313 313 314 315 317 318 323 320 323 323 321 321 318 315 315 316 314 317 318 320
300 300 302 302 302 303 304 310 314 310 308 309 309 310 309 309 309 309 309 312 312 312 315 315 316 313 313 312 313 317 319 314 319 319 319 321 318 316 316 313 313 312 312 313 315
301 302 303 302 303 302 305 308 310 306 308 309 311 311 309 309 309 310 312 311 313 312 312 315 319 313 314 314 315 317 315 319 320 322 320 321 320 319 317 315 314 314 312 312 314
303 303 302 302 301 303 307 310 307 306 307 309 311 310 309 308 311 312 312 313 313 313 312 313 314 317 315 316 317 317 316 315 315 316 318 320 320 312 315 316 314 313 313 312 312
302 304 301 302 303 303 309 307 304 309 308 310 311 311 311 311 312 313 313 314 313 313 314 312 315 318 316 314 313 315 314 315 319 317 318 318 316 312 314 314 313 313 313 312 311
303 301 303 302 307 307 305 306 306 309 311 311 312 312 311 312 313 313 314 312 312 313 314 312 315 319 317 315 315 316 315 315 315 319 318 318 317 313 314 314 313 313 312 311 311
303 305 302 303 305 307 308 308 308 308 310 311 311 311 313 313 313 314 314 313 312 313 309 311 313 315 318 316 315 317 315 314 317 321 317 316 315 314 314 314 313 313 312 311 310
304 305 305 307 307 307 306 307 308 310 310 311 312 312 313 314 313 314 314 313 312 311 312 313 314 311 312 313 314 315 315 314 316 316 317 315 315 314 314 314 313 312 312 311 310
304 306 305 306 306 307 305 308 308 309 311 312 312 312 312 313 314 314 314 314 314 313 313 313 316 312 313 312 313 314 314 314 314 314 314 314 314 314 313 312 312 312 311 311 311
304 306 306 305 305 307 307 308 308 309 309 309 311 312 313 312 312 312 312 312 312 313 313 313 314 316 316 312 312 314 312 313 313 314 314 315 314 313 313 312 312 311 311 311 310

GFSSW_850_thetae_102.txt.gz
Theta_e
309 308 308 313 316 319 320 321 319 318 318 312 309 305 305 311 311 310 312 310 308 308 303 310 308 308 308 310 310 310 313 313 313 313 313 314 314 314 314 315 315 317 320 322 326
308 307 309 309 310 315 318 319 320 319 318 315 309 305 305 310 310 311 310 308 305 304 310 309 307 307 307 308 310 310 311 312 311 311 311 312 312 313 313 314 314 316 318 319 322
306 306 306 309 307 309 316 318 320 320 317 314 309 304 307 309 310 309 307 303 305 306 308 307 307 308 308 308 308 310 310 310 310 309 310 310 310 310 311 313 314 315 317 318 321
307 306 306 307 305 305 311 316 319 318 317 312 309 304 308 309 311 306 303 304 311 309 308 308 308 308 308 308 307 307 307 309 309 309 309 309 309 309 310 311 313 315 316 318 320
306 306 306 306 305 301 308 315 315 317 316 312 307 305 309 310 310 306 305 308 307 307 308 308 308 307 308 308 308 308 308 308 308 307 308 308 308 308 309 311 313 313 315 318 320
306 305 306 303 304 298 298 313 314 316 317 313 306 309 309 310 308 307 306 307 306 306 307 308 308 308 307 308 308 308 309 309 310 310 309 308 308 308 308 308 310 312 314 317 322
306 305 305 303 301 297 297 307 314 313 315 309 307 309 310 310 307 305 306 306 307 307 308 308 308 308 308 308 308 309 309 310 310 310 310 309 309 308 308 308 308 312 313 316 320
305 305 304 304 301 297 304 309 315 315 313 307 308 308 309 309 308 306 306 307 307 308 309 308 309 308 308 308 308 310 310 311 310 309 310 310 310 309 308 308 308 310 313 315 319
305 305 304 303 303 297 309 312 312 313 310 307 307 308 309 309 306 307 306 307 307 310 309 308 308 308 308 309 308 310 310 311 311 311 311 311 310 310 308 308 309 310 315 315 318
304 304 304 303 303 300 305 310 309 308 307 306 308 307 307 308 307 306 305 306 308 310 310 309 308 309 310 310 310 312 312 312 312 313 313 312 311 311 310 309 310 314 317 317 319
303 303 303 303 303 300 302 308 305 305 308 308 307 308 308 307 306 306 305 307 308 308 309 309 310 309 309 309 310 310 311 312 311 313 313 313 311 311 312 312 314 316 317 321 322
304 303 303 303 302 305 302 306 307 307 307 307 307 308 308 308 307 306 306 308 308 309 309 310 309 309 310 310 311 312 312 312 312 316 313 314 312 313 314 313 315 315 315 319 322
303 303 303 303 301 306 304 307 307 307 308 308 307 308 307 307 307 306 307 307 308 309 309 311 311 310 311 312 313 311 312 312 315 313 315 316 316 315 315 316 315 315 315 316 322
301 303 303 303 301 305 304 305 306 306 309 308 307 307 307 308 308 306 306 308 307 308 309 310 310 311 313 314 314 313 314 315 316 315 320 316 319 317 314 314 314 315 315 317 324
302 303 304 302 305 305 306 307 305 306 314 309 307 307 308 308 306 305 307 308 308 308 310 310 313 312 313 314 314 314 314 316 316 316 314 319 319 317 313 318 318 316 318 323 324
304 303 303 300 300 304 305 305 305 309 314 310 307 309 308 308 305 306 307 307 308 310 310 310 310 312 314 314 314 314 315 316 316 317 322 321 320 318 314 314 316 322 324 323 323
303 303 301 304 305 304 304 304 309 312 309 308 309 308 309 309 309 307 306 309 310 312 312 313 313 313 313 313 313 315 317 318 321 323 323 317 319 315 313 313 317 320 321 323 321
300 300 301 304 303 304 303 305 311 310 312 309 309 309 311 309 310 308 309 309 310 311 314 314 316 313 312 314 314 316 317 319 323 323 325 318 319 315 315 313 318 318 317 317 320
300 302 303 302 302 303 304 308 310 310 309 309 309 309 309 309 309 308 309 311 312 312 316 316 316 313 312 312 313 318 318 314 318 319 322 320 315 313 313 314 313 314 316 316 315
302 303 302 303 302 304 305 310 308 307 308 309 312 310 308 308 309 309 310 312 313 312 312 315 316 312 312 313 314 316 315 316 318 324 325 320 317 319 314 316 314 313 313 314 314
303 303 302 303 302 303 307 308 308 307 307 311 312 310 308 308 311 312 313 313 313 313 312 312 311 316 314 317 317 316 315 315 314 315 318 320 318 316 315 315 314 313 312 312 312
302 303 303 302 303 304 308 307 305 308 308 310 312 311 310 310 312 313 314 314 313 313 313 313 315 317 316 314 313 314 314 314 315 316 315 315 316 314 314 313 313 312 311 311 310
302 301 302 303 306 306 306 306 306 309 311 311 312 311 311 313 313 314 314 312 312 313 312 311 313 316 316 314 314 316 313 314 317 317 314 314 315 312 311 311 312 311 311 310 310
304 304 302 303 305 307 306 306 309 309 311 311 311 311 312 313 313 314 314 313 312 312 310 311 312 313 314 315 314 315 313 313 315 313 314 313 313 312 312 311 311 311 311 311 311
305 304 304 307 308 306 306 306 308 311 311 311 312 312 313 313 313 314 313 313 313 312 312 312 311 305 311 313 313 314 313 313 312 314 313 313 313 312 311 310 311 311 311 311 311
306 306 306 306 306 306 305 308 309 311 312 311 312 312 312 313 314 314 313 313 312 313 312 312 311 312 312 311 312 312 312 313 313 313 313 312 312 310 312 312 312 311 311 311 310
306 306 306 305 305 307 307 308 309 310 310 310 311 312 312 311 312 312 312 312 311 311 311 312 312 311 311 311 311 312 310 312 313 312 313 313 312 311 311 311 311 311 311 310 310

GFSSW_850_thetae_105.txt.gz
Theta_e
307 308 309 309 309 309 313 318 320 320 319 317 314 311 305 307 311 310 309 310 309 309 306 309 309 308 309 310 310 310 310 311 312 312 312 312 310 312 311 312 313 313 313 315 323
308 308 307 308 307 307 307 314 318 319 319 318 316 311 305 308 310 310 310 312 309 307 307 309 307 307 307 307 309 309 308 309 309 309 308 308 309 309 309 309 310 311 313 319 326
308 307 307 307 308 307 306 307 315 317 318 318 317 311 304 309 308 309 309 311 305 304 308 308 306 307 307 307 308 309 309 309 309 309 309 310 309 308 308 308 309 310 312 313 316
307 307 306 307 306 306 306 305 313 315 317 318 316 310 307 309 309 308 307 304 305 306 308 307 308 308 307 307 307 306 307 307 308 308 308 307 307 307 307 307 308 309 310 312 315
306 306 307 305 306 306 303 298 308 315 317 317 316 309 308 309 309 306 303 310 308 307 308 308 307 307 307 307 307 307 307 308 308 308 308 307 307 307 307 307 307 308 308 310 312
307 306 305 305 305 305 300 297 301 313 315 314 310 306 308 310 308 308 306 305 306 306 307 307 307 307 307 307 307 307 308 308 308 308 309 310 310 307 307 307 307 307 308 308 311
306 307 306 306 305 303 300 297 298 310 315 313 308 308 308 310 306 307 306 305 305 307 307 307 308 307 307 307 307 308 308 309 308 308 309 310 310 309 308 307 307 307 307 307 310
305 306 306 306 305 303 299 303 302 312 314 311 309 308 309 309 306 306 307 306 306 307 308 308 307 307 307 307 307 307 308 308 309 309 309 309 308 308 308 308 307 307 307 307 308
304 306 305 305 305 303 299 311 310 311 311 309 309 309 309 309 308 306 305 306 307 308 308 308 308 308 307 306 306 307 305 307 309 310 310 310 310 309 309 308 307 307 307 307 309
302 302 302 302 304 303 300 302 310 309 309 307 307 307 307 308 307 307 306 306 307 309 309 308 307 307 309 307 304 309 308 309 310 311 311 312 313 312 310 309 308 310 310 309 312
302 304 303 303 303 302 304 307 306 306 308 308 308 309 308 307 306 305 305 306 308 308 309 309 308 307 306 307 306 308 309 309 309 310 313 313 313 312 310 311 310 309 311 312 314
302 303 303 304 303 303 304 307 306 305 306 307 308 308 307 307 307 306 305 307 308 306 308 309 309 307 308 308 309 309 311 310 310 312 313 313 313 311 310 310 311 311 313 312 313
302 302 303 303 303 305 303 306 306 307 308 308 306 308 307 306 307 306 306 307 308 307 306 306 308 309 309 311 312 312 312 310 312 311 312 313 315 313 312 312 310 313 313 314 315
302 303 303 303 303 304 303 305 305 306 309 308 308 308 307 307 308 306 305 307 307 307 306 307 307 310 311 312 313 314 311 313 315 315 316 313 315 315 313 312 313 312 314 315 315
302 303 303 304 304 305 304 305 305 306 310 308 307 306 307 308 306 306 306 308 307 307 308 308 313 312 312 312 313 313 313 314 314 317 314 315 317 318 314 314 314 311 313 315 318
303 303 302 300 301 304 305 306 305 307 309 309 307 308 308 308 306 307 307 307 307 309 308 308 310 311 312 313 313 313 314 314 315 316 319 319 319 317 314 313 313 316 316 319 321
302 303 304 304 304 304 304 305 306 309 309 308 309 308 308 307 307 307 306 308 307 307 310 311 311 312 311 311 312 313 315 315 319 320 321 317 318 315 310 314 314 320 322 322 322
300 301 301 303 304 303 304 305 309 310 308 308 308 309 310 309 309 307 306 306 307 309 309 307 310 312 312 313 315 314 316 318 319 323 323 317 316 312 310 319 318 318 317 320 321
302 302 302 302 302 303 304 306 309 310 309 309 309 308 308 308 308 307 307 309 311 309 313 314 314 313 312 312 313 316 318 315 317 319 320 318 313 311 312 315 316 316 316 315 315
302 302 303 302 302 304 302 309 308 308 308 309 310 307 307 307 307 309 309 311 313 312 311 313 313 312 312 313 313 313 314 317 316 319 322 319 317 315 312 316 315 314 314 314 315
303 302 302 301 302 304 306 308 307 307 308 311 310 309 306 308 310 311 313 312 312 313 311 311 311 315 314 316 315 314 315 315 313 314 320 318 318 311 315 314 313 311 311 313 313
301 300 301 303 301 304 305 305 306 308 309 309 310 310 307 310 311 313 314 313 312 312 314 312 314 313 315 313 312 312 314 312 312 315 312 312 317 314 313 312 311 310 309 309 309
301 302 302 304 301 302 304 306 306 309 310 311 310 310 310 313 313 313 313 312 312 312 311 311 310 311 312 310 310 314 312 312 314 311 312 311 318 313 310 309 309 309 310 310 310
303 296 302 304 305 304 305 305 309 309 310 311 311 310 311 312 311 312 313 312 312 312 311 311 309 310 309 312 311 312 312 311 311 309 313 313 315 311 310 309 309 310 310 310 310
305 301 303 301 304 304 305 305 309 310 310 310 310 311 311 312 312 313 312 312 312 312 311 310 308 303 310 312 312 310 311 312 311 311 313 313 313 311 308 307 308 310 310 310 310
305 304 306 305 305 305 304 307 309 310 309 309 310 311 310 311 310 312 311 310 310 309 310 309 307 310 310 309 309 309 309 311 312 311 311 310 311 309 309 310 309 310 310 310 310
306 306 305 304 302 304 304 307 309 309 309 310 309 310 310 309 308 309 311 310 310 310 309 310 307 307 308 309 309 310 309 309 311 310 311 312 310 307 308 308 309 310 310 309 309

GFSSW_850_thetae_108.txt.gz
Theta_e
310 309 308 308 307 308 308 309 313 318 319 319 318 315 309 305 310 310 308 307 308 308 306 305 309 308 308 309 310 310 308 310 311 311 312 310 307 309 309 309 309 310 311 317 328
309 310 309 308 308 308 308 307 307 317 317 319 319 315 309 305 310 309 309 309 311 308 305 308 307 306 306 307 309 308 306 308 308 308 308 308 308 309 308 308 308 308 310 311 312
308 308 308 308 308 308 305 306 306 309 315 318 318 317 309 306 308 309 308 312 312 308 308 309 307 307 306 307 307 308 308 307 308 308 309 309 309 308 307 307 308 307 308 308 310
308 308 307 307 308 307 305 302 298 304 315 316 317 316 307 307 308 309 308 313 311 305 308 307 306 307 306 306 307 306 306 308 307 307 307 307 306 306 306 306 307 307 307 307 308
306 307 308 307 307 305 306 302 299 304 314 315 315 313 308 308 308 309 312 312 307 306 306 306 307 307 306 306 306 306 306 307 307 307 308 308 308 307 306 307 307 307 307 307 307
305 307 307 307 307 307 304 303 299 300 314 314 315 313 309 310 309 307 306 309 304 306 308 308 307 307 307 306 305 306 306 307 307 307 307 308 308 308 309 308 308 307 307 307 307
303 305 306 306 306 307 304 302 300 298 312 315 312 310 309 310 308 307 306 305 305 306 307 307 307 307 306 306 307 307 307 307 308 308 308 308 309 309 308 309 309 308 308 308 307
304 302 302 307 306 306 303 302 307 297 307 313 311 309 309 307 307 307 306 306 306 307 307 308 308 307 307 306 306 307 306 306 307 308 309 308 308 307 308 308 308 308 308 308 308
303 302 302 302 304 305 303 306 307 305 311 312 309 307 308 307 307 307 307 306 305 307 307 307 307 307 306 306 304 304 302 305 308 309 309 308 309 309 310 309 308 307 308 308 307
302 302 302 304 304 303 303 303 311 311 311 309 307 308 307 308 306 306 305 306 307 308 308 307 307 307 307 306 300 306 305 307 307 308 308 310 310 310 311 311 309 308 307 307 307
303 304 303 303 302 303 304 303 306 306 307 308 307 309 308 307 307 307 306 306 308 309 306 308 306 306 304 305 305 306 307 308 308 308 309 311 311 312 311 311 309 308 308 309 309
302 303 304 304 303 304 304 304 303 305 305 308 308 307 306 306 306 306 305 307 308 307 307 307 308 306 305 305 307 308 310 310 309 309 310 311 312 312 311 310 310 309 309 309 309
302 301 303 303 304 304 305 305 306 304 305 306 307 308 307 307 307 305 305 307 307 305 305 305 305 307 307 307 310 312 310 310 309 310 312 311 313 311 311 310 310 309 310 312 313
303 303 302 302 304 303 304 302 305 306 308 308 308 308 307 307 307 305 306 307 306 306 306 306 306 307 308 309 311 313 311 312 314 315 315 312 316 314 312 311 311 312 311 313 314
303 302 303 304 304 305 305 304 304 306 308 307 307 306 307 307 306 306 305 307 307 306 308 307 310 312 311 311 312 313 311 312 312 313 314 315 316 312 312 313 311 310 312 313 314
303 303 302 303 304 305 305 306 306 303 303 308 306 308 307 307 306 307 307 307 307 307 307 307 308 309 309 312 312 312 313 313 313 315 316 317 317 317 314 313 311 310 314 313 316
301 302 304 303 304 304 305 305 304 306 307 309 307 307 307 307 306 306 306 307 306 306 308 308 309 310 311 312 311 313 314 312 314 317 317 318 318 315 312 311 311 314 318 319 319
301 300 302 303 303 303 304 301 306 308 308 308 308 308 309 309 309 306 304 305 305 308 307 311 306 311 311 312 314 313 314 316 318 320 318 316 316 314 309 318 318 317 316 318 320
302 300 300 301 303 303 304 305 310 309 308 308 308 307 309 308 307 306 306 306 309 307 311 313 309 312 311 312 313 315 318 314 316 317 319 318 313 309 309 315 316 315 315 315 316
301 301 300 302 303 305 303 308 308 308 308 309 309 306 307 307 306 308 309 311 313 312 311 313 313 312 312 312 313 313 313 318 316 320 320 317 317 313 310 314 314 315 314 314 315
301 301 302 303 305 305 307 307 308 307 307 310 309 306 306 309 310 311 313 312 313 312 311 310 312 313 314 314 315 315 316 316 314 314 318 317 318 309 311 312 311 313 312 312 313
301 297 304 305 302 304 305 304 305 307 308 308 308 308 307 308 312 314 314 313 312 312 313 312 312 312 313 312 312 312 314 313 313 315 312 313 316 311 311 311 310 309 309 308 311
301 301 305 305 299 303 303 305 306 307 308 310 310 309 310 312 312 312 312 312 312 312 311 312 309 311 310 309 310 312 312 311 312 310 311 313 317 312 311 311 310 309 308 308 308
302 297 305 306 305 302 303 304 307 309 309 309 310 309 310 310 310 312 312 312 311 311 311 310 308 308 309 312 310 311 310 310 309 310 313 314 313 310 308 308 308 309 309 309 309
304 301 303 300 302 303 303 304 309 309 309 309 309 309 311 312 311 311 310 309 311 310 310 307 308 302 308 309 310 309 309 310 309 310 311 312 311 309 307 307 308 309 309 309 309
305 304 305 303 304 301 302 306 308 309 308 309 310 309 308 310 309 310 309 309 310 308 308 307 306 309 308 308 308 309 308 309 310 311 310 310 311 308 307 308 309 309 309 309 309
306 306 305 301 300 302 303 306 308 308 309 309 308 309 309 308 307 308 308 308 308 309 308 309 306 306 305 305 308 307 308 309 310 310 309 311 310 306 307 307 308 309 309 309 309

GFSSW_850_thetae_111.txt.gz
Theta_e
310 310 310 311 310 309 308 308 305 310 317 318 319 318 315 310 306 310 307 307 306 307 305 304 306 306 308 308 309 309 308 309 311 312 312 308 307 308 309 309 308 309 310 315 313
309 309 309 308 308 308 309 308 305 305 312 317 319 318 314 311 306 309 307 308 308 309 306 305 306 307 306 307 309 307 305 307 308 308 308 308 308 308 308 308 307 308 309 310 312
308 308 307 308 308 308 308 308 308 303 304 316 316 317 316 310 308 308 308 310 314 308 304 307 306 306 306 306 306 307 307 306 307 308 308 308 307 307 307 306 307 308 307 308 309
306 306 307 307 308 308 308 308 307 308 298 312 317 316 315 308 310 310 309 313 313 308 307 308 306 306 305 305 306 306 306 307 307 307 307 306 306 306 306 306 306 306 307 307 307
306 304 305 306 307 308 308 307 307 306 302 313 316 313 313 308 308 311 312 314 308 306 307 307 306 306 305 305 306 306 306 307 307 307 307 307 307 307 307 307 306 306 307 307 307
305 306 304 304 306 307 307 307 306 303 305 311 314 313 313 310 308 314 313 310 307 306 306 306 306 306 306 306 305 305 306 306 306 307 307 307 307 306 307 307 307 307 307 307 307
304 304 304 303 305 307 307 307 305 302 301 311 311 311 311 310 309 311 310 309 304 306 307 307 307 306 306 305 306 306 306 305 306 307 308 308 307 307 307 307 307 307 308 308 308
303 303 303 302 302 306 306 306 302 302 300 308 312 312 308 308 309 308 311 305 306 307 307 307 307 307 306 306 305 305 305 305 306 308 308 308 308 306 308 308 307 308 309 309 308
303 302 302 303 302 302 305 302 307 301 300 311 307 308 307 308 310 309 305 306 306 307 307 307 307 306 306 305 302 303 301 303 306 307 308 307 307 307 308 309 308 309 309 310 309
303 304 302 304 304 304 303 306 310 308 310 308 307 307 307 307 308 306 306 305 307 308 308 307 307 307 305 306 300 305 304 305 306 306 307 307 307 307 308 309 309 310 310 310 310
302 304 304 303 303 304 302 303 307 306 306 306 308 308 308 307 306 306 306 306 307 308 306 307 304 301 303 303 304 305 307 307 307 307 308 308 308 308 309 310 310 310 310 310 309
301 303 303 304 305 303 303 304 304 304 306 308 308 307 307 306 307 306 306 307 308 306 307 308 305 304 304 304 305 307 309 309 308 308 308 309 310 310 310 309 310 310 310 309 309
302 302 303 304 304 305 305 304 304 306 304 306 307 307 307 306 306 306 306 307 306 306 305 303 304 305 306 306 307 309 310 310 310 309 310 311 310 310 310 310 310 309 309 309 310
303 302 303 303 303 303 303 305 306 307 308 306 307 306 307 307 306 305 305 307 306 305 304 304 304 306 307 307 308 311 309 311 311 314 313 311 313 310 310 310 309 310 311 312 311
300 301 303 304 304 305 303 303 305 306 303 308 307 306 307 307 306 305 305 306 306 305 306 304 307 311 311 310 310 311 311 312 312 314 312 313 315 310 310 311 310 308 310 312 313
303 303 303 304 304 304 304 304 305 299 307 306 306 307 307 307 306 307 306 306 306 306 306 305 307 309 308 310 310 311 312 313 312 314 316 313 315 306 313 313 312 309 311 314 314
302 303 303 303 304 305 305 304 300 302 306 309 307 306 307 307 306 306 306 305 304 301 304 306 308 308 310 311 309 312 315 310 310 312 315 317 318 312 312 309 313 311 313 318 318
300 300 302 303 303 304 304 300 303 307 307 307 307 307 308 308 306 305 304 304 304 307 308 311 305 310 311 311 312 313 314 316 316 313 315 316 317 315 309 315 316 316 315 316 316
300 301 302 303 304 304 305 307 309 307 307 308 308 307 308 308 306 305 304 305 308 306 308 311 310 312 310 311 312 314 317 314 316 315 318 317 314 310 308 314 315 315 315 315 317
300 301 304 305 306 306 304 308 306 307 308 307 308 305 306 306 306 306 307 310 312 311 310 313 312 309 312 312 312 312 313 317 316 319 321 318 316 311 309 309 314 314 313 311 315
300 302 305 305 306 306 306 306 307 307 307 309 308 306 306 309 308 310 312 311 312 312 311 311 310 312 314 313 314 315 316 316 316 313 317 318 317 308 308 308 312 310 311 309 309
303 298 306 306 303 301 302 304 305 306 307 306 307 306 305 309 313 313 314 312 311 312 312 311 312 312 313 311 312 313 314 313 314 316 310 313 315 308 309 309 309 308 309 307 307
303 303 305 306 300 299 302 304 305 307 308 309 309 308 309 311 312 312 311 311 311 311 311 311 308 309 309 308 309 311 312 311 312 310 312 311 316 312 310 310 308 307 307 307 308
303 298 305 305 303 301 301 303 307 308 308 308 308 309 309 310 309 311 311 311 311 311 312 309 307 308 308 311 310 310 309 309 311 309 313 312 312 309 308 308 307 307 308 308 308
304 301 303 298 301 301 301 303 307 308 308 309 309 308 309 311 309 309 309 308 310 308 309 306 308 302 307 307 307 309 308 309 308 310 311 311 310 308 307 307 307 308 308 308 308
305 304 303 302 302 300 300 304 307 307 307 308 309 308 307 309 309 310 307 308 309 307 308 305 306 308 308 306 306 309 308 309 309 310 310 310 311 307 307 307 308 308 308 308 308
305 305 304 300 300 302 302 304 306 306 308 308 307 307 308 308 307 307 307 307 306 308 307 307 305 304 304 305 306 306 309 309 310 309 309 310 309 305 306 307 308 308 309 308 308

GFSSW_850_thetae_114.txt.gz
Theta_e
307 309 310 310 310 309 311 310 309 305 309 317 318 319 317 317 311 308 309 307 306 308 306 305 306 308 307 308 309 310 307 307 309 311 310 307 307 308 308 308 308 310 309 312 313
309 308 309 310 309 308 309 309 309 308 305 307 317 318 318 317 311 308 309 307 307 307 305 305 306 307 306 307 308 305 303 305 307 307 307 307 307 307 308 307 307 308 308 309 310
308 309 308 308 309 309 309 308 308 308 308 299 311 317 317 315 310 310 310 308 312 309 306 305 305 305 306 306 306 306 305 305 307 307 307 306 306 306 307 305 306 307 307 308 308
306 307 306 306 306 307 308 308 308 307 307 300 314 316 316 311 311 311 308 314 313 308 305 306 306 306 303 304 305 305 305 306 306 306 306 306 306 306 306 305 305 305 306 306 306
304 305 305 306 305 304 307 308 308 308 304 305 311 316 316 312 309 312 311 316 311 307 306 307 306 305 303 304 305 305 305 306 306 306 306 306 306 306 306 305 305 305 306 306 306
305 304 304 304 303 303 305 307 308 307 304 305 312 313 312 311 313 315 314 313 306 306 306 306 305 306 306 305 304 305 305 305 306 306 306 306 306 306 306 306 306 306 306 307 307
304 303 303 303 302 303 306 307 307 308 303 303 310 310 311 310 313 314 312 308 307 306 306 306 306 306 306 304 306 306 305 304 305 306 306 307 306 306 308 307 307 308 308 309 309
303 303 304 303 302 302 307 307 307 305 302 302 307 311 309 310 312 311 311 305 307 307 306 307 306 306 306 305 304 304 302 303 304 307 307 307 308 305 307 307 307 308 308 309 309
303 303 304 303 302 302 305 305 304 305 308 303 309 308 308 309 309 309 307 306 306 307 306 307 307 306 305 304 299 301 302 303 305 306 307 307 307 306 308 308 307 307 308 309 311
304 303 304 304 303 303 303 307 305 305 306 305 307 307 306 309 308 306 306 306 307 307 306 306 306 304 305 300 300 305 304 305 305 305 307 307 307 306 307 307 307 307 309 309 311
302 303 304 304 303 302 305 307 307 305 305 304 306 307 307 308 306 306 306 307 307 308 305 306 300 298 302 302 302 306 306 307 307 306 307 307 307 307 308 308 307 308 308 309 311
302 303 304 304 304 303 305 305 305 305 305 307 307 307 307 306 306 306 306 307 308 304 306 304 301 303 303 303 304 306 307 306 306 307 307 308 309 309 309 309 309 309 309 310 310
302 303 303 305 305 303 304 305 305 306 304 305 306 306 306 306 306 306 306 307 305 305 305 302 304 304 305 306 306 306 306 307 309 308 308 309 308 307 309 310 310 310 309 309 309
301 304 303 303 303 304 304 305 306 306 307 306 307 306 306 306 306 305 306 306 306 304 303 303 303 305 306 306 306 308 307 309 310 312 314 311 312 308 308 308 308 309 310 310 311
303 303 304 304 303 304 304 305 305 305 304 307 307 306 306 305 305 305 305 306 305 305 303 303 306 309 310 309 307 310 310 310 311 313 313 312 313 310 310 310 311 309 309 311 313
302 302 303 304 303 304 303 304 305 298 305 305 307 306 306 305 306 306 305 305 306 305 305 303 305 307 306 307 308 308 310 311 311 315 314 311 314 309 314 311 310 311 312 314 317
302 303 303 304 304 305 305 304 299 303 305 305 306 305 305 305 305 305 305 304 303 300 301 305 307 306 308 310 308 311 314 308 307 314 312 316 318 315 312 310 315 316 316 316 315
302 304 304 304 304 304 304 300 304 307 307 306 306 306 306 306 303 304 304 303 303 305 306 307 304 308 310 311 311 313 314 314 312 312 314 315 315 314 310 309 315 316 315 312 314
301 304 305 306 306 305 305 306 305 307 306 307 307 306 307 307 306 304 303 304 306 304 306 310 306 310 310 310 312 314 317 314 316 314 317 316 314 312 308 308 313 312 312 312 313
303 304 306 306 306 306 303 308 306 307 307 306 307 304 306 306 305 305 306 308 311 307 309 311 313 308 311 311 312 312 313 317 316 318 319 318 315 311 308 307 308 311 309 309 310
305 305 306 307 308 306 305 305 307 307 307 309 308 305 305 309 308 309 310 309 311 312 311 311 310 310 313 313 314 315 316 316 316 314 317 317 315 307 306 307 307 309 307 307 307
305 300 306 308 305 299 301 303 305 306 307 306 307 306 306 310 311 313 312 311 311 311 311 311 312 312 312 311 311 312 314 314 313 316 311 313 315 310 308 309 308 307 307 307 307
304 305 306 307 301 297 301 304 305 306 307 308 309 308 308 309 311 311 310 310 311 310 310 310 307 308 308 308 308 311 311 310 311 309 312 313 316 311 310 310 308 307 307 307 306
304 299 305 305 302 301 301 303 306 307 308 307 307 308 308 309 308 310 309 310 310 311 311 309 306 307 308 310 308 310 308 308 310 309 312 312 313 311 309 308 307 307 307 307 307
305 301 302 297 302 300 302 304 307 307 307 308 308 307 307 309 308 308 307 306 309 308 309 306 306 302 305 306 306 308 308 308 307 309 311 310 310 308 306 306 307 307 307 307 307
305 303 302 301 301 301 300 304 306 306 307 307 307 306 306 308 308 308 307 307 308 306 306 304 305 307 307 306 306 308 308 309 309 309 308 309 309 306 306 307 307 308 308 307 307
304 304 303 300 299 301 302 304 306 305 307 308 307 306 307 307 307 307 306 306 305 305 306 305 304 304 304 303 305 307 308 309 309 309 308 310 308 304 305 305 307 308 308 308 307

GFSSW_850_thetae_120.txt.gz
Theta_e
305 305 307 306 312 311 312 311 310 309 309 308 316 320 319 318 316 311 309 309 306 306 306 306 307 307 306 310 311 309 310 312 312 312 313 311 312 310 309 311 311 311 311 311 311
305 305 308 309 312 311 310 311 310 310 308 305 314 319 318 318 315 310 310 307 307 306 305 307 308 307 308 309 310 310 310 311 310 312 311 310 310 309 309 310 310 310 311 311 310
305 304 307 307 305 310 311 310 310 309 308 307 307 315 317 317 311 310 308 311 312 306 305 305 306 307 308 308 309 309 310 308 309 309 309 309 308 308 308 310 309 309 308 308 308
305 305 304 306 305 307 308 311 309 308 306 308 302 311 316 314 314 312 311 315 312 306 305 305 306 307 308 309 307 309 308 309 308 308 308 308 307 307 307 308 307 307 307 307 307
305 304 304 305 304 304 306 308 309 309 306 306 306 309 313 312 312 309 314 316 314 307 306 306 306 306 308 308 307 307 307 307 307 307 307 307 307 308 307 307 307 307 307 307 307
306 305 303 303 303 302 303 305 308 309 305 305 307 311 312 311 313 315 316 313 308 306 306 305 306 306 306 307 307 307 307 307 307 307 307 307 308 306 308 308 308 308 308 308 309
305 303 303 304 303 302 304 306 307 308 303 309 311 313 311 310 311 313 309 308 307 305 305 304 304 307 306 308 307 307 308 307 308 308 309 308 310 310 309 308 308 309 309 309 309
305 304 303 304 304 306 306 307 308 307 302 309 311 311 309 310 311 311 306 305 305 305 305 305 305 306 307 306 306 308 308 310 308 308 309 308 311 310 308 309 309 309 309 309 310
304 303 302 304 303 307 306 306 305 304 304 309 309 309 309 309 308 307 307 307 306 306 306 306 305 307 306 308 309 308 311 310 310 308 309 310 311 310 309 309 310 310 310 310 310
304 305 303 305 306 307 308 307 305 307 308 307 307 308 308 306 306 306 307 307 307 307 307 306 306 308 307 309 312 310 310 309 309 308 308 309 310 310 310 310 311 311 311 311 311
303 304 304 306 307 307 305 305 305 305 305 307 307 308 306 306 307 307 307 307 307 308 309 307 310 312 308 307 308 308 309 309 309 308 308 310 311 312 311 311 312 312 313 312 312
303 303 304 305 305 306 305 305 304 304 304 306 306 306 306 306 306 306 306 308 308 309 307 309 309 306 306 306 307 308 309 310 309 309 310 312 313 313 313 312 312 312 313 313 313
303 303 305 305 305 306 306 305 305 305 303 304 304 305 306 306 306 306 307 307 307 308 306 309 307 306 306 307 308 309 310 310 311 311 312 313 316 312 311 312 312 313 314 314 314
303 305 305 305 306 306 306 306 306 306 310 306 306 305 305 306 306 306 306 306 306 306 306 306 305 306 307 309 309 312 309 310 311 313 316 313 318 315 313 314 314 313 314 315 315
304 305 306 306 307 306 305 304 305 305 311 306 306 305 305 306 305 306 305 306 307 307 306 307 308 308 310 310 309 311 310 310 312 312 313 313 316 316 314 313 312 311 313 315 314
305 305 305 306 305 304 304 305 303 313 309 307 306 306 306 305 305 305 305 305 305 306 306 306 305 307 308 307 309 309 311 313 313 312 315 315 316 320 313 312 311 310 310 311 311
305 305 305 305 305 304 304 304 314 309 305 306 307 306 305 305 305 305 305 304 308 311 311 309 309 307 306 309 310 311 313 317 317 316 319 315 316 317 311 310 309 309 309 308 308
305 305 305 305 305 305 304 308 307 305 306 306 307 307 307 305 303 305 306 309 305 308 311 312 313 310 310 311 312 313 314 317 318 319 319 315 319 320 310 308 307 308 308 308 308
305 306 306 306 305 305 307 310 308 307 307 308 307 307 308 307 307 307 307 308 308 307 311 311 313 310 310 311 312 315 316 314 315 316 317 318 317 313 310 309 308 308 308 307 307
306 306 307 307 307 306 310 308 309 308 307 307 307 306 308 307 308 308 309 309 310 309 308 311 313 310 311 311 312 313 313 319 317 319 320 319 317 316 311 311 309 309 308 307 307
306 307 307 308 309 309 310 309 309 307 307 310 308 309 310 312 310 310 311 311 311 311 308 312 312 313 312 315 316 315 316 314 316 318 319 318 318 312 312 311 310 309 308 307 307
306 312 307 307 310 306 310 307 305 308 307 308 309 309 312 311 312 313 313 312 311 312 313 312 313 315 315 312 313 314 315 314 317 319 316 316 318 312 311 310 309 309 308 307 306
306 306 307 307 314 310 305 306 306 309 308 309 310 309 309 312 313 312 312 311 311 312 313 312 313 315 312 312 311 314 314 314 313 313 316 318 319 313 312 311 310 309 308 307 306
304 313 306 307 304 308 309 308 310 307 308 308 309 309 310 311 310 311 311 310 310 311 311 311 312 313 316 314 312 312 311 311 312 316 317 316 315 314 313 312 311 309 308 307 306
305 304 302 312 307 306 306 308 310 310 308 307 309 309 310 311 310 310 310 309 309 308 310 312 313 310 310 311 311 311 310 310 312 314 316 314 315 314 313 312 311 309 308 307 306
305 305 303 303 302 306 305 309 309 309 309 310 310 309 309 310 310 310 310 310 310 308 309 307 313 309 310 309 310 310 310 310 312 312 313 313 314 313 312 311 310 309 308 307 307
304 304 304 301 304 306 307 308 308 307 308 308 308 309 309 310 308 308 308 308 308 309 309 309 311 312 313 307 308 310 310 310 313 312 313 314 314 312 311 310 310 310 309 308 307

GFSSW_850_thetae_123.txt.gz
Theta_e
305 305 305 308 308 309 314 313 311 309 310 312 315 319 320 317 314 309 313 312 313 305 307 309 310 310 312 314 315 313 313 315 315 315 316 313 314 313 312 313 313 313 313 314 313
305 305 305 307 306 310 312 311 311 309 308 308 311 316 318 317 315 314 312 308 307 306 309 309 310 310 310 312 312 312 313 315 313 315 314 313 312 312 311 312 312 312 312 312 312
306 305 305 305 306 308 312 310 311 310 309 305 312 314 318 316 313 313 308 312 309 307 309 309 309 310 311 311 311 311 314 311 311 311 311 311 311 311 311 312 312 312 311 310 310
307 305 305 304 306 306 311 311 311 308 308 303 313 317 316 313 316 312 313 315 307 308 308 308 308 309 311 311 310 312 310 311 311 310 310 310 309 310 309 310 310 309 309 309 309
306 305 304 304 304 306 309 309 310 307 306 305 311 316 314 313 312 310 316 316 307 307 308 308 308 310 311 311 309 310 310 309 309 308 308 308 309 310 310 310 310 309 309 309 309
304 304 304 303 303 304 307 309 310 306 305 306 310 313 312 311 310 311 317 315 309 308 308 308 309 309 309 310 310 309 309 309 309 309 309 309 310 308 311 310 309 309 310 310 310
303 304 305 303 303 305 307 309 308 306 307 308 311 308 309 311 312 311 309 310 307 308 308 307 307 308 309 309 308 309 310 310 310 310 310 310 312 311 311 311 310 310 310 311 311
304 302 303 306 304 305 308 308 305 308 310 311 311 309 310 310 309 307 308 308 307 305 305 307 308 308 310 308 308 311 310 313 311 310 311 310 312 312 311 310 311 310 310 311 311
305 304 304 308 305 307 307 305 303 309 309 310 310 309 308 308 307 308 308 308 308 307 307 307 308 308 308 311 311 311 315 314 313 310 310 311 312 312 311 310 310 311 312 312 312
304 305 306 308 307 307 306 307 308 308 308 308 308 309 307 306 307 309 308 308 308 308 307 307 308 310 309 312 316 314 313 312 311 312 310 311 311 311 311 311 312 312 313 313 314
304 305 306 306 306 306 307 307 308 306 307 308 307 306 306 306 307 308 307 308 308 309 311 309 313 317 310 310 310 310 310 311 311 311 310 312 313 313 313 313 314 314 314 314 315
304 305 305 305 305 305 306 306 305 306 305 305 306 306 306 306 306 307 308 308 310 311 309 311 312 308 308 308 309 310 310 311 311 311 312 313 314 314 314 314 313 314 315 316 316
305 305 305 305 306 306 306 306 306 306 305 305 305 305 306 307 307 307 308 308 309 309 309 313 309 307 308 309 309 310 310 311 312 313 314 315 317 315 315 314 314 314 315 316 317
305 305 306 307 307 307 306 306 306 307 311 307 307 305 306 307 307 307 307 307 307 307 308 309 308 307 309 310 310 312 311 311 313 314 317 314 317 316 316 316 314 312 313 312 311
306 306 306 306 306 305 304 305 305 306 313 308 307 306 306 307 306 306 306 307 308 307 309 309 309 310 311 311 310 312 310 311 313 314 315 315 316 317 316 316 313 310 310 310 309
305 306 307 307 305 304 305 305 304 314 310 308 307 307 306 306 306 306 306 306 306 307 307 308 307 309 310 308 309 310 313 315 313 314 317 317 317 321 315 313 311 309 309 308 309
305 305 305 305 307 304 304 306 315 311 306 307 306 305 305 305 305 306 306 308 311 315 313 311 310 309 308 311 312 313 315 319 319 319 319 316 317 320 314 311 309 308 309 308 308
306 305 305 305 305 304 304 309 310 306 306 307 307 307 307 307 306 308 309 311 309 310 313 315 315 312 311 313 314 313 315 319 318 321 321 317 319 320 312 310 309 309 309 308 308
306 307 306 305 305 307 309 312 309 307 308 308 308 308 309 309 309 310 310 311 311 311 313 314 315 311 311 312 313 315 316 315 316 316 317 319 318 316 312 311 310 309 309 309 308
306 308 307 308 309 309 311 310 310 309 308 309 309 309 310 310 310 311 311 311 312 311 310 313 316 312 313 313 313 314 313 318 317 319 322 322 320 322 311 311 311 310 310 309 308
306 310 307 307 311 312 312 312 310 309 309 311 310 311 312 312 312 313 313 312 311 312 311 313 313 314 313 315 317 315 315 315 315 317 321 320 323 314 312 312 312 311 309 309 308
307 313 307 310 314 313 314 312 309 310 309 311 311 311 313 312 313 314 314 313 311 313 314 313 313 316 316 314 314 315 316 316 319 322 318 318 322 314 314 312 311 310 310 309 308
309 309 307 309 317 314 309 310 310 311 311 312 312 311 311 313 314 314 314 312 312 313 313 313 314 316 317 313 312 314 315 315 314 314 316 319 323 314 313 313 312 311 310 309 308
308 316 311 309 309 313 313 312 312 309 310 310 311 311 312 313 312 313 313 312 312 312 311 312 313 315 318 315 313 315 313 314 314 315 318 318 318 316 315 315 313 311 310 309 308
306 309 306 314 311 310 311 311 312 312 310 310 311 312 312 313 312 312 311 311 310 311 311 312 314 314 313 312 312 312 312 313 313 314 317 319 316 316 315 315 313 312 310 309 309
309 309 306 307 307 310 309 312 312 311 311 312 312 311 311 311 311 311 311 311 311 311 311 311 313 312 312 311 311 312 312 312 312 312 314 314 315 315 315 314 313 312 310 310 309
304 304 307 306 308 309 311 311 311 310 311 310 310 311 311 311 310 310 310 310 311 311 312 311 312 312 313 311 311 311 310 311 311 312 314 316 316 315 315 314 313 312 311 310 310

GFSSW_850_thetae_126.txt.gz
Theta_e
307 307 306 306 307 308 309 311 313 312 311 310 315 317 318 319 314 307 315 313 311 305 307 309 310 312 315 316 317 313 315 315 315 316 315 313 314 313 313 312 314 313 313 313 313
306 306 306 305 307 310 309 313 312 311 309 311 316 317 318 318 313 315 314 311 310 307 310 310 310 311 312 313 313 313 313 314 313 313 314 313 312 312 311 312 313 312 312 312 312
306 306 306 305 306 311 312 312 310 309 308 308 314 318 317 317 315 314 309 309 306 310 310 310 310 310 311 311 311 312 315 312 311 312 311 312 311 311 311 311 312 312 311 311 311
305 305 305 306 307 312 312 311 310 309 307 307 312 313 318 316 316 313 314 315 308 309 309 309 310 310 311 311 311 312 311 311 311 310 310 310 310 310 310 310 311 310 310 310 309
305 305 304 305 308 311 311 309 306 307 308 311 311 311 314 313 312 314 316 312 307 308 309 309 309 311 311 311 310 310 311 310 310 309 309 309 309 309 309 310 310 310 310 309 309
305 304 305 306 309 310 311 307 305 305 308 313 312 313 313 312 311 316 316 311 308 308 308 309 310 310 311 311 311 310 310 310 310 310 309 309 310 310 310 311 310 310 310 310 310
304 306 304 307 309 310 307 308 308 305 310 312 309 311 309 309 312 311 311 309 308 309 309 308 308 309 310 310 309 309 310 311 310 310 311 310 311 310 310 311 311 311 311 311 311
303 307 304 307 308 307 306 310 309 310 311 310 310 310 309 307 309 308 309 308 307 308 307 308 309 310 311 309 309 311 309 312 311 311 311 310 310 312 311 311 311 311 311 310 311
305 307 305 307 307 304 308 309 309 310 310 309 308 308 308 307 308 308 308 308 307 305 306 305 308 309 309 311 310 310 314 314 313 311 311 311 311 311 312 311 311 311 311 312 313
307 306 306 307 306 306 307 307 308 308 309 309 309 308 307 307 309 308 308 308 308 307 307 307 309 310 310 312 315 312 312 312 312 312 310 310 310 310 311 312 312 312 313 314 314
306 306 306 307 306 307 308 309 307 305 306 307 307 306 307 307 308 308 308 308 309 310 310 309 315 314 309 309 309 310 310 311 311 311 309 309 310 312 312 313 314 314 314 315 316
305 305 305 305 305 305 307 306 306 306 306 306 306 306 306 307 308 308 309 309 311 311 309 312 312 309 309 309 310 310 310 310 311 311 311 311 313 313 313 313 314 314 314 314 314
305 306 306 307 307 306 306 307 306 306 306 306 306 306 307 308 307 308 309 309 309 310 311 313 309 308 308 309 309 310 310 311 311 312 312 312 314 315 313 314 314 312 311 311 310
306 307 308 308 308 308 306 306 306 309 310 307 307 306 307 308 307 307 307 308 308 308 309 309 308 308 309 310 310 312 310 311 313 312 312 311 309 313 315 315 314 311 310 309 309
306 307 307 306 306 307 304 305 305 309 311 307 307 307 307 307 306 306 306 308 308 307 309 309 308 309 311 311 310 312 311 311 312 313 313 314 310 313 315 316 312 309 309 309 309
306 306 306 307 305 305 305 304 307 312 308 305 307 307 306 306 306 306 306 305 307 307 308 308 308 309 310 308 309 310 311 313 313 313 311 314 312 312 313 313 310 309 308 309 309
306 305 305 305 306 305 304 308 312 309 306 307 306 305 305 305 305 307 308 308 311 312 313 310 310 309 308 310 312 312 313 315 312 317 313 316 313 312 314 311 309 309 309 309 309
306 306 305 305 305 305 308 311 307 306 306 306 307 307 307 307 308 309 310 311 309 310 313 313 310 311 311 312 313 313 313 315 314 317 315 315 313 313 313 310 309 309 309 310 309
306 308 307 307 307 308 310 310 309 307 307 307 309 309 310 309 309 310 310 311 311 311 313 314 314 310 312 312 313 316 316 314 310 312 316 313 314 315 312 311 311 310 310 309 309
306 310 307 311 311 310 310 309 310 308 308 309 310 309 310 310 310 311 311 311 312 311 310 312 313 312 313 312 313 314 313 316 314 315 317 319 316 315 310 311 312 310 310 309 308
307 311 307 309 314 313 312 312 310 309 310 312 311 311 312 313 312 313 313 311 311 312 311 312 312 313 313 314 315 313 313 314 314 314 319 318 316 312 308 310 312 311 310 309 308
310 316 307 313 315 314 314 312 310 310 310 311 311 312 313 312 313 313 314 313 312 313 313 313 312 313 315 314 314 314 315 314 316 320 318 318 315 314 312 312 312 311 310 309 308
310 308 308 311 318 314 310 310 311 311 312 312 313 312 311 313 315 314 314 312 312 313 313 312 313 311 315 312 312 312 314 314 315 314 313 317 314 314 313 312 312 311 311 310 309
310 315 310 311 311 313 312 312 312 310 311 311 312 311 312 313 312 313 313 312 312 312 312 312 312 312 312 314 312 313 314 314 315 315 314 315 314 314 312 312 312 313 312 310 309
307 310 308 317 312 311 311 312 313 313 310 311 312 312 312 313 312 312 311 311 311 312 311 312 311 309 311 312 312 311 311 311 312 313 313 314 315 313 312 311 313 314 312 311 310
310 309 306 308 308 310 309 312 312 312 311 312 312 312 311 311 310 311 311 311 311 309 310 311 310 310 310 311 311 309 310 310 311 312 312 312 312 311 312 313 314 313 312 311 310
304 304 308 308 309 309 311 311 311 311 311 311 310 310 311 310 310 310 310 310 309 310 309 310 309 308 309 310 309 307 309 309 310 310 311 311 311 311 312 313 313 313 312 311 310

GFSSW_850_thetae_129.txt.gz
Theta_e
307 308 306 306 305 307 308 309 309 310 314 314 316 318 321 319 310 306 313 312 311 306 305 307 311 314 316 318 317 313 309 311 312 314 312 312 312 313 312 311 313 313 313 313 313
307 306 305 306 307 309 310 310 314 315 313 311 315 316 320 318 310 315 312 311 308 308 308 309 312 314 313 315 314 309 308 312 311 311 311 312 311 311 310 310 311 312 312 312 312
306 306 306 307 311 311 313 312 312 311 311 309 314 318 318 315 314 314 314 311 307 310 310 310 312 311 311 312 310 311 311 310 312 312 311 310 310 310 310 309 310 310 310 311 311
306 306 307 311 311 311 310 310 309 307 308 311 317 318 318 315 317 313 312 310 309 310 310 310 309 311 309 309 310 309 311 311 311 310 310 310 309 308 309 310 310 310 310 310 310
307 309 310 311 310 309 306 307 308 308 311 313 316 318 317 314 313 313 312 307 309 309 309 309 310 310 308 309 309 309 310 310 310 309 308 308 308 308 308 309 309 310 310 310 310
306 310 309 308 309 310 308 306 312 311 313 312 312 313 313 311 313 316 308 307 308 308 308 309 309 310 310 309 309 309 310 309 309 309 309 309 309 309 309 311 310 310 310 310 310
307 308 306 306 309 309 307 308 311 311 312 311 312 311 311 309 311 312 309 308 309 308 309 309 309 310 310 309 309 308 309 309 309 309 310 309 308 308 310 310 310 310 310 311 311
306 307 305 309 310 309 311 311 310 310 311 310 310 310 307 308 308 308 308 308 309 308 309 308 310 310 310 309 308 309 307 309 310 310 310 308 305 309 311 310 310 310 310 310 311
306 306 306 307 307 308 309 310 309 309 309 308 309 308 306 307 308 308 307 306 306 305 307 308 308 308 308 307 306 308 309 310 312 310 311 309 307 309 310 310 310 311 311 311 313
307 307 307 307 307 308 308 308 308 309 308 309 309 307 307 307 308 308 308 306 305 306 306 307 309 306 306 307 308 310 309 312 311 310 309 309 308 309 309 310 311 310 314 315 315
306 306 306 305 306 305 308 307 306 306 307 307 307 307 307 307 308 308 308 308 309 309 307 309 305 303 307 307 308 308 309 309 309 310 309 308 308 309 310 311 312 313 313 313 314
306 306 306 306 306 307 308 306 306 306 306 307 307 308 308 308 308 309 309 309 310 308 308 307 306 308 308 308 308 308 308 308 310 311 311 310 311 311 311 311 313 312 311 310 310
306 306 306 306 306 306 307 307 307 307 306 307 307 307 307 307 307 307 308 307 307 308 308 306 307 308 308 308 309 309 309 310 310 310 310 310 307 313 312 312 310 309 309 309 309
307 306 306 308 307 308 305 305 307 308 303 307 306 306 307 307 306 305 307 307 307 306 307 307 307 307 308 310 309 311 310 310 311 309 308 309 306 308 312 312 308 308 308 308 309
306 306 306 307 305 305 305 304 305 310 304 305 307 307 307 307 306 304 306 307 306 307 307 307 307 308 310 310 309 311 309 310 310 310 305 308 304 308 313 314 311 307 308 309 309
305 305 305 306 306 306 304 305 308 301 305 303 307 307 306 305 305 306 306 306 307 307 306 307 307 307 308 308 308 309 311 311 311 312 306 309 307 308 310 313 310 307 309 309 309
307 306 305 305 305 305 305 309 301 303 304 304 306 304 304 304 305 307 307 306 307 305 310 308 308 307 308 309 309 311 310 307 315 316 309 313 307 309 311 310 309 308 309 309 309
307 308 305 305 304 307 309 300 300 303 305 305 306 306 307 307 307 308 309 308 308 308 308 306 305 309 309 310 312 312 312 312 308 310 307 311 309 309 311 310 309 309 309 310 309
308 307 310 310 308 309 307 301 301 305 306 307 308 308 308 307 308 308 309 309 310 309 308 311 309 310 310 311 312 315 316 313 305 306 314 306 308 312 310 310 309 309 310 309 309
308 310 307 313 312 310 303 306 307 307 307 308 308 308 308 308 308 308 310 310 311 310 309 311 310 311 311 312 312 313 313 314 312 311 316 311 309 311 309 310 310 309 310 310 308
309 311 309 311 314 311 303 305 309 309 309 310 311 310 311 311 311 312 312 310 311 310 310 311 311 312 312 313 313 312 312 312 312 311 313 314 311 309 310 309 309 310 311 310 309
310 306 307 309 311 308 303 310 309 309 309 310 310 310 311 311 311 312 313 312 311 312 313 312 311 309 311 313 311 311 311 312 308 317 314 316 314 315 311 309 310 311 311 311 309
307 309 310 312 306 305 309 309 310 310 310 311 312 311 310 312 313 313 312 312 312 312 312 311 308 305 310 309 311 311 312 313 312 312 313 310 310 312 311 311 312 312 311 311 309
309 305 310 311 311 308 310 311 311 310 311 311 311 311 311 311 311 312 312 311 312 312 312 311 309 308 309 312 311 312 312 312 312 310 310 311 311 311 311 310 310 312 312 312 311
306 308 307 306 308 309 309 310 312 311 310 310 310 310 311 311 310 311 310 311 311 312 311 309 308 304 308 309 310 311 311 310 311 311 311 311 311 310 309 308 311 312 313 313 311
308 307 305 307 308 309 308 309 311 310 310 310 310 310 309 310 309 309 309 309 308 309 308 309 308 309 307 308 308 308 309 309 310 310 311 312 312 311 310 310 310 311 312 312 311
304 304 307 307 305 306 306 308 309 310 310 311 309 309 309 308 309 309 309 309 308 307 307 308 306 305 306 307 306 306 306 307 308 308 309 310 311 309 308 307 311 312 313 313 312

GFSSW_850_thetae_132.txt.gz
Theta_e
306 306 306 306 306 307 307 308 309 307 307 308 313 318 320 315 310 308 312 313 310 306 306 309 311 319 318 319 315 312 307 309 312 313 312 311 312 312 312 312 313 313 312 313 312
308 309 310 310 307 308 309 308 308 308 309 311 315 317 320 309 308 312 315 314 308 307 307 310 313 316 316 316 313 308 307 311 310 310 311 310 311 311 310 309 311 312 311 311 312
312 311 310 310 312 311 309 309 310 310 313 314 313 315 313 314 310 314 315 313 309 309 309 311 313 314 311 313 310 310 309 310 311 310 311 310 309 310 310 309 310 311 311 311 310
310 311 311 309 310 310 308 311 313 313 313 310 314 317 312 314 314 315 312 307 310 310 310 311 310 310 309 308 310 309 310 311 310 309 309 309 309 308 309 310 310 310 310 310 310
308 310 310 311 307 309 310 307 307 311 312 313 316 315 314 314 313 315 308 309 309 309 309 310 309 310 307 308 308 309 309 310 310 309 308 308 307 307 308 308 308 309 309 309 310
309 309 310 308 308 312 312 313 313 312 313 314 315 314 313 312 314 309 308 308 309 309 309 309 309 310 308 308 307 309 309 308 308 308 309 308 308 308 309 310 310 310 310 310 310
308 309 310 311 311 313 311 311 312 312 312 313 315 314 313 310 311 309 307 308 308 308 309 309 310 310 309 308 309 308 309 308 308 308 309 309 306 308 309 309 310 310 310 310 310
307 308 309 309 310 310 310 311 311 310 310 310 311 312 308 308 308 308 308 308 308 308 309 309 310 310 309 308 308 308 305 308 309 309 310 307 305 307 309 310 310 310 310 310 309
307 307 307 308 308 309 309 309 309 309 310 310 310 309 306 308 308 307 308 308 308 308 309 309 310 308 308 305 305 305 307 308 311 310 311 308 306 307 310 309 309 310 310 311 313
306 306 305 305 306 308 307 308 308 308 308 308 308 307 306 307 308 308 306 305 305 306 307 308 308 304 304 305 304 308 307 310 310 309 308 308 308 307 309 309 309 310 313 314 314
305 306 307 307 307 307 307 307 307 307 308 307 307 307 307 308 308 308 308 309 309 308 307 308 304 302 307 307 307 308 308 308 309 309 309 307 307 308 309 309 309 312 311 311 311
306 306 306 306 307 307 308 307 307 307 307 307 307 307 308 308 308 308 309 309 308 306 307 304 305 307 307 307 307 307 307 308 309 310 310 309 310 309 309 309 310 310 310 311 311
306 306 306 307 306 305 307 307 307 306 306 307 306 307 307 306 306 307 308 307 307 307 306 305 307 307 307 307 308 308 308 309 310 309 309 308 305 306 310 308 309 309 309 310 309
306 306 306 306 306 305 304 304 307 307 302 305 307 306 307 307 305 306 307 307 306 306 306 306 306 306 308 309 308 310 309 309 310 308 306 308 305 306 309 310 308 308 309 309 309
305 305 305 305 305 305 304 304 306 309 305 304 307 306 306 306 306 304 306 307 306 307 305 305 306 308 309 308 308 310 309 309 310 310 302 307 302 306 310 312 309 308 309 309 309
307 305 305 305 305 305 304 306 307 301 301 302 306 305 304 305 305 306 306 307 306 306 305 306 307 307 307 307 307 308 311 309 310 308 302 307 305 308 305 312 310 308 309 309 309
307 305 305 305 304 305 307 308 301 301 302 302 305 304 304 305 306 307 307 306 307 304 308 307 307 307 307 309 308 310 307 302 304 302 307 309 305 309 308 309 309 309 309 309 309
307 309 310 308 308 308 309 300 299 301 304 304 305 306 306 306 307 307 308 307 307 307 306 304 305 309 308 310 311 311 309 303 306 305 305 308 310 309 310 310 310 309 309 309 309
308 307 309 312 310 309 306 299 300 303 304 306 307 307 307 307 307 307 308 308 309 308 307 309 308 309 309 310 311 313 310 311 309 303 307 304 305 308 310 309 309 309 310 309 309
307 310 310 312 312 307 303 304 306 306 306 307 307 307 307 307 307 308 309 309 310 310 308 310 308 310 311 311 311 312 312 312 309 311 310 306 305 310 306 310 309 308 309 310 310
310 310 307 311 312 308 302 304 308 308 309 310 310 309 309 310 311 311 311 309 310 310 310 310 306 309 311 311 311 310 311 311 308 310 314 313 309 305 309 310 310 309 310 310 310
309 304 308 311 309 305 302 309 309 308 309 309 309 310 310 310 311 311 312 311 311 310 312 311 310 307 310 310 309 309 309 308 307 308 311 315 313 310 311 309 309 310 310 311 310
306 309 310 311 304 303 308 309 310 309 310 310 311 310 310 311 313 312 311 311 311 311 310 309 307 305 309 309 310 312 311 310 310 312 314 309 309 310 310 310 310 310 311 312 310
306 301 310 311 309 306 308 309 310 310 310 310 310 310 310 311 310 311 311 311 311 311 311 311 307 307 307 311 309 310 310 311 312 314 310 311 310 309 309 308 308 310 311 312 312
307 306 305 302 306 308 308 308 310 310 309 309 310 309 310 310 310 310 309 310 310 311 311 308 308 303 305 307 308 309 309 309 312 313 311 309 310 310 308 307 308 310 310 309 311
305 307 306 306 307 307 307 307 309 309 308 309 309 309 307 308 306 307 307 307 308 309 308 307 307 307 306 307 307 308 307 308 309 310 311 311 312 310 310 310 309 309 310 311 311
305 305 305 305 304 305 305 306 308 309 309 310 308 308 308 307 309 309 309 308 308 307 307 306 306 304 306 304 305 305 305 306 307 307 309 309 309 308 306 306 307 309 311 313 313